Date StartTime U_cm/s V_cm/s W_cm/s Ustd_cm/s Vstd_cm/s Wstd_cm/s Uvar_(cm/s)^2 Vvar_(cm/s)^2 Wvar_(cm/s)^2 KE_(m/s)^2 TurbulentKE_(m/s)^2 HorizWindSpeed_cm/s FrictionSpeec_cm/s DragCoef SpeedOfSound_m/s SonicTemperature_C Pressure_mb 
01/26/2014  00:00:00     -116.853      -61.160      -13.373       24.826       15.676       16.010      616.346      245.743      256.304        0.935        0.056      131.891       14.708        0.012      332.435        1.095      867.465
01/26/2014  00:01:00     -137.925      -39.972      -17.145       24.450       13.755       11.120      597.786      189.195      123.648        1.091        0.046      143.601       11.355        0.006      332.408        1.050      867.470
01/26/2014  00:02:00     -132.763      -50.035      -12.349       13.715       20.714       10.700      188.099      429.051      114.483        1.051        0.037      141.879        9.853        0.005      332.364        0.978      867.478
01/26/2014  00:03:00     -123.916      -53.260      -12.317       30.444       17.789       14.826      926.815      316.460      219.822        0.990        0.073      134.877       13.871        0.011      332.396        1.032      867.488
01/26/2014  00:04:00     -130.976      -47.764      -14.678       26.201       22.406       12.991      686.478      502.021      168.759        1.050        0.068      139.414       13.596        0.010      332.387        1.017      867.493
01/26/2014  00:05:00     -115.582      -40.481      -16.541       16.360       14.964       13.529      267.659      223.926      183.039        0.797        0.034      122.466        6.715        0.003      332.372        0.991      867.489
01/26/2014  00:06:00     -124.466      -49.725      -10.313       21.789       19.049       14.847      474.751      362.851      220.420        0.956        0.053      134.032        9.680        0.005      332.374        0.995      867.480
01/26/2014  00:07:00     -137.719      -48.772      -10.492       20.242       14.275       11.837      409.727      203.771      140.121        1.110        0.038      146.100       11.836        0.007      332.377        1.001      867.462
01/26/2014  00:08:00     -115.402      -62.198       -4.440       20.378       15.615       11.319      415.263      243.821      128.115        0.900        0.039      131.096        5.486        0.002      332.328        0.919      867.452
01/26/2014  00:09:00     -123.320      -51.527      -10.317       10.302       14.277       11.600      106.131      203.847      134.556        0.921        0.022      133.652        5.245        0.002      332.353        0.960      867.444
01/26/2014  00:10:00      -98.225      -34.317       -9.105       18.258       19.781       11.232      333.356      391.294      126.166        0.588        0.043      104.047        6.157        0.004      332.402        1.040      867.434
01/26/2014  00:11:00     -106.407      -53.790      -10.116       13.927        9.992       10.444      193.958       99.846      109.068        0.736        0.020      119.230        8.117        0.005      332.361        0.973      867.420
01/26/2014  00:12:00     -115.841      -55.300       -6.932       10.120       12.910        9.911      102.423      166.667       98.224        0.845        0.018      128.363        2.739        0.000      332.358        0.968      867.403
01/26/2014  00:13:00     -135.578      -43.358       -4.574       15.035       11.454       14.053      226.052      131.194      197.475        1.042        0.028      142.343       11.277        0.006      332.365        0.980      867.392
01/26/2014  00:14:00     -120.235      -27.431       -3.400       28.142       24.441       16.448      791.954      597.351      270.544        0.844        0.083      123.325       17.026        0.019      332.308        0.886      867.383
01/26/2014  00:15:00     -105.684      -44.788       -7.082       24.216       20.179       14.293      586.413      407.185      204.290        0.721        0.060      114.783        8.467        0.005      332.258        0.804      867.379
01/26/2014  00:16:00     -106.680      -35.522      -12.731       32.394       16.964       16.581     1049.347      287.784      274.938        0.721        0.081      112.439       18.175        0.026      332.214        0.732      867.369
01/26/2014  00:17:00     -103.005      -34.517      -17.834       26.509       15.665       14.559      702.748      245.408      211.976        0.664        0.058      108.634       11.502        0.011      332.192        0.696      867.362
01/26/2014  00:18:00     -112.495      -23.863      -25.099       32.766       16.900       16.079     1073.579      285.613      258.528        0.774        0.081      114.999        8.138        0.005      332.138        0.606      867.357
01/26/2014  00:19:00     -101.511      -17.873      -10.066       28.019       30.377       14.387      785.050      922.735      206.998        0.632        0.096      103.072       14.120        0.019      332.090        0.526      867.350
01/26/2014  00:20:00     -106.367       -5.872      -17.089       17.188       16.645       13.587      295.441      277.052      184.618        0.620        0.038      106.529        9.158        0.007      332.141        0.611      867.339
01/26/2014  00:21:00      -66.700      -33.687       -9.640       24.438       19.653       13.123      597.216      386.226      172.221        0.342        0.058       74.725       12.531        0.028      332.156        0.635      867.334
01/26/2014  00:22:00      -84.886      -29.377       -7.894       32.277       21.015       17.172     1041.790      441.643      294.863        0.495        0.089       89.825       15.113        0.028      332.171        0.662      867.332
01/26/2014  00:23:00      -92.293      -25.644      -15.410       25.724       20.545       16.881      661.727      422.099      284.962        0.539        0.068       95.789       17.344        0.033      332.167        0.654      867.321
01/26/2014  00:24:00      -76.635      -10.520       -8.129       19.798       13.835       12.473      391.971      191.414      155.584        0.339        0.037       77.353        8.836        0.013      332.158        0.638      867.304
01/26/2014  00:25:00      -72.560      -33.300      -13.309       16.181       15.740       10.860      261.819      247.742      117.932        0.359        0.031       79.837        8.485        0.011      332.156        0.636      867.297
01/26/2014  00:26:00      -67.937      -26.933      -10.468       20.891       14.806       12.481      436.451      219.221      155.784        0.313        0.041       73.082        8.299        0.013      332.190        0.693      867.276
01/26/2014  00:27:00      -78.867      -24.677      -15.485       11.369        8.781        6.759      129.249       77.112       45.682        0.366        0.013       82.638        4.828        0.003      332.183        0.680      867.259
01/26/2014  00:28:00      -90.886      -21.020      -21.334       15.648       11.122        8.777      244.847      123.708       77.028        0.480        0.022       93.286        4.377        0.002      332.122        0.580      867.258
01/26/2014  00:29:00      -67.990      -19.226      -12.167       18.586       19.124        9.650      345.446      365.743       93.127        0.297        0.040       70.656        4.896        0.005      332.156        0.635      867.269
01/26/2014  00:30:00      -48.397      -31.469       -8.957       10.782       14.512       10.056      116.254      210.595      101.119        0.192        0.021       57.728        5.009        0.008      332.220        0.740      867.284
01/26/2014  00:31:00      -57.243      -27.270      -11.040       13.752       15.047       10.860      189.109      226.416      117.943        0.234        0.027       63.407        8.855        0.020      332.194        0.699      867.291
01/26/2014  00:32:00      -55.612      -40.435       -8.950       23.167       15.141       12.398      536.711      229.244      153.722        0.286        0.046       68.758       11.681        0.029      332.159        0.641      867.286
01/26/2014  00:33:00      -89.321      -37.938      -13.559       17.571        8.548        6.996      308.755       73.071       48.942        0.502        0.022       97.044        4.499        0.002      332.114        0.566      867.260
01/26/2014  00:34:00      -91.175      -39.917       -7.211       14.691       10.841        7.738      215.817      117.528       59.881        0.518        0.020       99.530        4.542        0.002      332.175        0.667      867.239
01/26/2014  00:35:00      -87.141      -34.904      -13.323       17.437       10.598        7.301      304.066      112.322       53.304        0.473        0.023       93.871        5.008        0.003      332.231        0.761      867.239
01/26/2014  00:36:00      -63.918      -29.614       -6.676       16.162       12.378       10.267      261.213      153.218      105.412        0.276        0.026       70.445        8.534        0.015      332.154        0.634      867.257
01/26/2014  00:37:00      -37.718      -32.634        0.231       27.782       13.549       11.747      771.821      183.588      137.981        0.179        0.055       49.876       12.818        0.066      332.208        0.721      867.275
01/26/2014  00:38:00      -46.562      -25.226       -4.660       15.043       17.078        7.466      226.283      291.646       55.745        0.170        0.029       52.956        2.924        0.003      332.277        0.833      867.292
01/26/2014  00:39:00      -64.029      -41.848       -6.631       15.251       11.302       13.954      232.604      127.741      194.704        0.322        0.028       76.492       11.160        0.021      332.329        0.918      867.290
01/26/2014  00:40:00      -64.019      -37.175       -8.549       10.929       11.748        9.675      119.443      138.027       93.597        0.295        0.018       74.030        2.470        0.001      332.217        0.734      867.280
01/26/2014  00:41:00      -69.552      -25.112      -10.566        8.213        8.264        6.617       67.459       68.300       43.782        0.288        0.009       73.947        4.825        0.004      332.169        0.658      867.267
01/26/2014  00:42:00      -72.160      -20.936      -10.488        7.513        9.125        7.254       56.441       83.266       52.616        0.297        0.010       75.136        5.050        0.005      332.191        0.694      867.262
01/26/2014  00:43:00      -78.586        2.854       -6.986        8.768        8.064        7.688       76.878       65.029       59.111        0.322        0.010       78.637        4.152        0.003      332.174        0.666      867.260
01/26/2014  00:44:00      -83.335        6.387       -7.881       10.226        9.778        8.119      104.564       95.607       65.916        0.366        0.013       83.580        4.074        0.002      332.174        0.667      867.270
01/26/2014  00:45:00     -101.782        0.190      -10.855       11.543        7.217       11.335      133.232       52.080      128.483        0.540        0.016      101.782        8.415        0.007      332.219        0.740      867.271
01/26/2014  00:46:00      -86.497      -26.410      -20.230       14.442        9.917        6.836      208.575       98.354       46.725        0.447        0.018       90.439        4.906        0.003      332.144        0.615      867.257
01/26/2014  00:47:00      -66.203      -28.449      -18.547       10.179       12.931        7.434      103.612      167.208       55.271        0.293        0.016       72.057        1.396        0.000      332.094        0.533      867.246
01/26/2014  00:48:00      -40.880      -20.427       -9.556       16.365       18.181       12.745      267.820      330.533      162.435        0.147        0.038       45.699       10.435        0.052      332.014        0.403      867.239
01/26/2014  00:49:00      -59.917      -10.582      -10.893       18.856       13.258       11.304      355.533      175.787      127.778        0.224        0.033       60.844       10.795        0.031      331.933        0.267      867.247
01/26/2014  00:50:00      -50.889       -1.526       -4.841       14.292       11.794       12.630      204.255      139.089      159.518        0.156        0.025       50.912       10.063        0.039      331.991        0.365      867.249
01/26/2014  00:51:00      -43.031       -9.216       -8.528       13.873        8.616        5.429      192.474       74.231       29.470        0.115        0.015       44.007        2.705        0.004      332.089        0.525      867.257
01/26/2014  00:52:00      -47.541      -19.331       -7.951       13.465        9.479        6.602      181.302       89.846       43.591        0.151        0.016       51.321        2.200        0.002      332.042        0.449      867.264
01/26/2014  00:53:00      -71.125      -15.121       -6.906        9.095        9.403        6.745       82.716       88.424       45.493        0.278        0.011       72.715        4.206        0.003      331.865        0.155      867.274
01/26/2014  00:54:00      -67.166      -29.687      -14.208        6.807        9.098        4.936       46.340       82.778       24.369        0.287        0.008       73.434        3.493        0.002      331.847        0.124      867.285
01/26/2014  00:55:00      -77.442      -44.391       -7.800        9.417        9.636        6.886       88.686       92.858       47.413        0.413        0.011       89.263        5.623        0.004      331.936        0.273      867.291
01/26/2014  00:56:00      -78.591      -30.680       -7.589       15.546       12.659        8.960      241.676      160.263       80.289        0.383        0.024       84.367        9.057        0.012      331.934        0.269      867.299
01/26/2014  00:57:00      -85.239      -21.005      -16.075       13.222       11.634       10.056      174.809      135.351      101.129        0.419        0.021       87.789        4.895        0.003      331.975        0.337      867.309
01/26/2014  00:58:00      -71.186      -31.769      -10.923       14.423       11.166        9.991      208.012      124.679       99.823        0.331        0.022       77.953        8.131        0.011      332.041        0.446      867.304
01/26/2014  00:59:00      -68.505      -32.087        0.084       16.695       11.110       13.592      278.735      123.441      184.749        0.315        0.029       75.647        9.418        0.015      331.985        0.353      867.315
01/26/2014  01:00:00      -68.226      -34.255       -4.618       22.669       11.939       11.478      513.877      142.548      131.753        0.332        0.039       76.342       11.142        0.021      331.964        0.319      867.323
01/26/2014  01:01:00      -80.941      -28.777       -6.954       14.315        8.093        8.006      204.916       65.493       64.100        0.388        0.017       85.905        4.156        0.002      331.983        0.349      867.331
01/26/2014  01:02:00      -84.159      -26.002       -7.787       16.289       13.277       11.173      265.338      176.274      124.846        0.419        0.028       88.085        8.433        0.009      331.915        0.238      867.342
01/26/2014  01:03:00     -108.779      -38.782       -4.326       19.377       17.506       12.681      375.481      306.470      160.805        0.710        0.042      115.485        8.782        0.006      331.930        0.262      867.348
01/26/2014  01:04:00     -125.275      -52.386       -3.724       20.211       22.864       13.712      408.485      522.768      188.005        0.979        0.056      135.787       11.508        0.007      331.864        0.155      867.350
01/26/2014  01:05:00      -89.716      -52.468        2.365       42.987       25.404       19.981     1847.853      645.354      399.257        0.685        0.145      103.932       22.588        0.047      331.898        0.211      867.348
01/26/2014  01:06:00      -81.990      -47.656        2.955       44.472       25.098       18.584     1977.718      629.899      345.355        0.598        0.148       94.834       21.552        0.052      331.969        0.327      867.350
01/26/2014  01:07:00     -102.869      -34.668        3.750       28.098       23.892       16.067      789.479      570.813      258.161        0.671        0.081      108.554       13.571        0.016      331.983        0.350      867.354
01/26/2014  01:08:00      -80.801      -19.331        4.002       25.734       18.418       18.209      662.249      339.240      331.565        0.413        0.067       83.081       15.993        0.037      331.921        0.248      867.358
01/26/2014  01:09:00      -90.166      -17.425       -1.727       28.788       24.901       14.256      828.768      620.039      203.232        0.504        0.083       91.834       12.641        0.019      331.888        0.192      867.362
01/26/2014  01:10:00     -127.593      -22.092       -4.639       27.527       25.004       16.285      757.712      625.195      265.207        0.922        0.082      129.492       15.123        0.014      331.835        0.108      867.367
01/26/2014  01:11:00     -115.746      -17.301       -3.717       31.832       25.000       17.946     1013.256      625.016      322.057        0.783        0.098      117.032       17.083        0.021      331.785        0.025      867.369
01/26/2014  01:12:00      -96.681      -15.220        0.421       33.895       25.908       20.013     1148.872      671.236      400.524        0.590        0.111       97.871       19.037        0.038      331.818        0.080      867.359
01/26/2014  01:13:00      -96.464      -31.328       -6.430       27.489       24.720       18.010      755.673      611.078      324.363        0.601        0.085      101.424       14.628        0.021      331.768       -0.004      867.349
01/26/2014  01:14:00      -77.160      -40.294       -3.263       21.307       21.433       13.834      453.976      459.391      191.371        0.435        0.055       87.047        4.435        0.003      331.817        0.078      867.333
01/26/2014  01:15:00      -40.708      -27.539       -0.993       34.567       24.108       16.960     1194.912      581.213      287.645        0.224        0.103       49.148       21.251        0.187      331.781        0.018      867.313
01/26/2014  01:16:00      -45.317      -22.127        2.306       30.786       34.304       19.621      947.786     1176.749      385.002        0.253        0.125       50.430       18.445        0.134      331.836        0.109      867.305
01/26/2014  01:17:00      -58.734       10.011       -5.685       43.361       27.545       21.781     1880.147      758.750      474.433        0.335        0.156       59.581       17.206        0.083      331.950        0.295      867.290
01/26/2014  01:18:00      -73.861       10.047       -5.479       38.043       29.298       18.098     1447.287      858.375      327.536        0.411        0.132       74.541       14.506        0.038      331.962        0.316      867.264
01/26/2014  01:19:00      -71.225      -28.405        0.308       41.369       27.751       20.346     1711.379      770.139      413.956        0.439        0.145       76.680       22.319        0.085      332.004        0.385      867.244
01/26/2014  01:20:00      -35.419      -33.952        1.715       24.939       26.246       12.392      621.942      688.856      153.551        0.194        0.073       49.063        5.949        0.015      331.936        0.273      867.228
01/26/2014  01:21:00      -44.338      -26.456      -10.669       15.086       13.421       12.071      227.573      180.126      145.716        0.167        0.028       51.631        5.346        0.011      331.914        0.237      867.223
01/26/2014  01:22:00      -46.379      -25.334       -9.414       10.134       11.496        9.435      102.693      132.152       89.010        0.160        0.016       52.847        5.275        0.010      331.839        0.112      867.234
01/26/2014  01:23:00      -43.641      -19.822       -7.382       13.115       11.284        8.450      172.012      127.336       71.401        0.136        0.019       47.932        4.377        0.008      331.822        0.085      867.225
01/26/2014  01:24:00      -41.189      -16.383      -10.355       10.125       14.681       10.622      102.525      215.523      112.816        0.125        0.022       44.328        7.168        0.026      331.772        0.002      867.209
01/26/2014  01:25:00      -38.239      -14.096       -7.960       17.323        9.815        8.834      300.093       96.344       78.047        0.110        0.024       40.754        8.499        0.043      331.788        0.028      867.204
01/26/2014  01:26:00      -39.953      -28.144       -5.220       10.629        8.835        7.818      112.982       78.061       61.127        0.133        0.013       48.870        3.512        0.005      331.848        0.128      867.186
01/26/2014  01:27:00      -37.332      -29.337       -8.679       10.468        9.597        9.008      109.580       92.094       81.150        0.131        0.014       47.480        5.648        0.014      331.857        0.143      867.177
01/26/2014  01:28:00      -37.997      -44.776       -3.657       15.197       15.411       11.624      230.941      237.487      135.129        0.203        0.030       58.726        5.675        0.009      331.954        0.303      867.170
01/26/2014  01:29:00      -35.680      -44.482      -12.948       13.521       13.829       10.267      182.816      191.232      105.418        0.195        0.024       57.024        8.167        0.021      332.213        0.730      867.161
01/26/2014  01:30:00      -32.274      -24.455       -5.544       18.883       14.947       13.878      356.583      223.424      192.586        0.122        0.039       40.492        9.889        0.060      332.138        0.605      867.153
01/26/2014  01:31:00      -59.015      -14.857       -9.117       11.870       12.038        8.160      140.890      144.917       66.586        0.207        0.018       60.857        4.623        0.006      331.913        0.234      867.151
01/26/2014  01:32:00      -69.560      -26.423       -8.553       12.885       14.954       10.122      166.034      223.611      102.455        0.305        0.025       74.410        7.334        0.010      331.825        0.089      867.151
01/26/2014  01:33:00      -80.059      -29.041       -7.563       18.262       17.012        9.353      333.488      289.394       87.484        0.401        0.036       85.163        7.042        0.007      331.699       -0.116      867.144
01/26/2014  01:34:00      -93.924      -25.805      -14.666       16.195       12.186       10.834      262.285      148.493      117.385        0.512        0.026       97.404        8.869        0.008      331.620       -0.247      867.142
01/26/2014  01:35:00     -107.892      -25.810      -15.412       20.919       12.330        8.870      437.619      152.027       78.674        0.661        0.033      110.936        4.124        0.001      331.535       -0.388      867.136
01/26/2014  01:36:00      -94.235      -35.877      -15.092       17.983       17.460        8.890      323.382      304.867       79.038        0.555        0.035      100.833        7.315        0.005      331.611       -0.262      867.144
01/26/2014  01:37:00     -114.283      -38.781      -11.799       20.094       13.329        7.510      403.765      177.670       56.398        0.767        0.032      120.684        6.651        0.003      331.661       -0.179      867.142
01/26/2014  01:38:00      -95.417      -48.413        1.413       28.226       19.230       13.047      796.691      369.785      170.212        0.639        0.067      106.996       11.677        0.012      331.693       -0.128      867.137
01/26/2014  01:39:00      -79.202      -32.779       -3.126       19.722       19.183       11.724      388.951      367.975      137.462        0.413        0.045       85.717        6.836        0.006      331.779        0.014      867.125
01/26/2014  01:40:00      -65.375      -36.555       -4.266       21.404       17.322       12.329      458.139      300.063      152.000        0.327        0.046       74.901        9.199        0.015      331.819        0.081      867.115
01/26/2014  01:41:00      -73.185      -27.916       -7.403       18.706       16.722       13.127      349.931      279.616      172.326        0.350        0.040       78.329        7.770        0.010      331.828        0.095      867.103
01/26/2014  01:42:00      -56.172      -46.880       -4.752       34.805       19.009       16.701     1211.416      361.359      278.911        0.361        0.093       73.165       11.798        0.026      331.860        0.147      867.099
01/26/2014  01:43:00      -69.007      -40.513        1.086       34.276       23.968       17.055     1174.820      574.479      290.884        0.422        0.102       80.020       17.364        0.047      331.738       -0.053      867.090
01/26/2014  01:44:00      -70.440      -48.014        1.136       36.082       21.892       15.717     1301.889      479.266      247.032        0.465        0.101       85.248       13.987        0.027      331.702       -0.112      867.095
01/26/2014  01:45:00      -46.258      -31.077        1.836       26.757       19.871       17.516      715.944      394.843      306.800        0.226        0.071       55.728       16.393        0.087      331.777        0.011      867.093
01/26/2014  01:46:00      -62.522      -21.426       -0.549       28.867       17.926       12.675      833.278      321.353      160.664        0.284        0.066       66.091       13.307        0.041      331.724       -0.076      867.099
01/26/2014  01:47:00      -54.908      -20.557       -1.031       24.213       18.455       10.908      586.293      340.578      118.975        0.224        0.052       58.630       10.644        0.033      331.717       -0.087      867.095
01/26/2014  01:48:00      -70.733      -19.212        1.009       26.635       17.923       12.519      709.421      321.240      156.722        0.328        0.059       73.296       11.976        0.027      331.688       -0.135      867.089
01/26/2014  01:49:00      -58.952      -13.260        4.691       29.623       20.144       15.378      877.551      405.771      236.468        0.260        0.076       60.424       15.877        0.069      331.568       -0.333      867.091
01/26/2014  01:50:00      -48.486      -16.421        3.896       27.214       19.474       16.825      740.601      379.227      283.094        0.202        0.070       51.191       11.891        0.054      331.543       -0.376      867.082
01/26/2014  01:51:00      -63.267       -7.878        2.775       26.519       21.731       15.363      703.261      472.216      236.009        0.274        0.071       63.756       14.157        0.049      331.537       -0.385      867.087
01/26/2014  01:52:00      -89.958      -26.874        0.055       30.337       28.313       18.060      920.364      801.640      326.179        0.543        0.102       93.886       16.239        0.030      331.538       -0.383      867.095
01/26/2014  01:53:00      -63.803      -18.223        2.373       36.708       24.195       17.481     1347.482      585.388      305.576        0.332        0.112       66.355       16.562        0.062      331.509       -0.431      867.108
01/26/2014  01:54:00      -78.586      -16.637        2.871       43.152       23.245       17.611     1862.088      540.348      310.134        0.459        0.136       80.328       19.818        0.061      331.543       -0.373      867.119
01/26/2014  01:55:00      -61.068      -18.964        3.812       26.373       19.751       15.269      695.554      390.110      233.135        0.271        0.066       63.945       14.333        0.050      331.544       -0.373      867.123
01/26/2014  01:56:00      -68.354      -16.861        5.582       30.775       22.401       12.104      947.128      501.812      146.510        0.329        0.080       70.403       13.172        0.035      331.592       -0.293      867.126
01/26/2014  01:57:00      -96.118      -12.977       -4.948       32.205       15.713       15.407     1037.173      246.903      237.382        0.548        0.076       96.990       16.031        0.027      331.554       -0.356      867.126
01/26/2014  01:58:00     -103.117       -9.261       -6.147       24.569       21.852       18.552      603.638      477.521      344.177        0.609        0.071      103.532       15.278        0.022      331.562       -0.343      867.120
01/26/2014  01:59:00     -102.034      -21.767       -5.860       25.996       15.960       16.650      675.767      254.720      277.222        0.606        0.060      104.330       15.951        0.023      331.537       -0.385      867.118
01/26/2014  02:00:00     -117.186       -7.778      -13.750       26.437       17.358       19.220      698.920      301.310      369.402        0.768        0.068      117.444       16.813        0.020      331.549       -0.365      867.112
01/26/2014  02:01:00     -102.774       -7.172       -9.654       26.061       19.059       17.705      679.163      363.261      313.483        0.603        0.068      103.024       16.692        0.026      331.565       -0.338      867.113
01/26/2014  02:02:00     -127.180       -6.475      -15.797       27.441       17.764       16.172      752.989      315.570      261.549        0.890        0.067      127.345       14.964        0.014      331.562       -0.341      867.116
01/26/2014  02:03:00      -92.260      -38.445       -0.915       27.225       27.657       17.899      741.200      764.886      320.370        0.591        0.091       99.949       15.686        0.025      331.417       -0.583      867.121
01/26/2014  02:04:00     -108.646      -41.008       -6.533       26.968       29.998       19.347      727.284      899.896      374.314        0.776        0.100      116.127       12.950        0.012      331.415       -0.585      867.122
01/26/2014  02:05:00      -83.400      -38.397       -4.806       41.421       29.373       18.254     1715.688      862.757      333.208        0.568        0.146       91.815       20.850        0.052      331.380       -0.642      867.138
01/26/2014  02:06:00     -115.620      -24.623      -15.137       20.867       19.449       14.209      435.429      378.269      201.884        0.761        0.051      118.213        9.785        0.007      331.300       -0.773      867.150
01/26/2014  02:07:00      -91.072      -20.306      -10.449       29.774       18.725       12.461      886.489      350.637      155.266        0.510        0.070       93.308       13.083        0.020      331.311       -0.755      867.155
01/26/2014  02:08:00      -77.401      -41.568       -3.000       31.409       24.395       14.777      986.555      595.103      218.356        0.476        0.090       87.857       13.122        0.022      331.307       -0.763      867.154
01/26/2014  02:09:00      -87.980      -39.729      -16.598       21.336       19.191       14.312      455.219      368.310      204.822        0.531        0.051       96.535       11.065        0.013      331.323       -0.735      867.146
01/26/2014  02:10:00      -80.497      -29.447      -11.716       21.107       16.594       16.889      445.500      275.352      285.247        0.424        0.050       85.714        7.006        0.007      331.385       -0.634      867.145
01/26/2014  02:11:00      -66.230      -33.494      -13.854       23.294       24.828       22.658      542.587      616.415      513.375        0.369        0.084       74.218       13.007        0.031      331.398       -0.613      867.155
01/26/2014  02:12:00      -73.197      -24.091       -8.514       24.968       19.833       13.725      623.380      393.361      188.384        0.361        0.060       77.059       13.355        0.030      331.411       -0.591      867.154
01/26/2014  02:13:00      -80.803      -17.772      -14.558       21.657       17.080       13.607      469.006      291.743      185.137        0.400        0.047       82.734       11.587        0.020      331.370       -0.659      867.144
01/26/2014  02:14:00      -90.136      -10.909      -18.168       11.490       16.046       12.561      132.011      257.465      157.766        0.456        0.027       90.794        5.720        0.004      331.331       -0.722      867.142
01/26/2014  02:15:00      -94.002       -2.171      -14.688       11.537       13.773       10.613      133.104      189.703      112.639        0.475        0.022       94.027        4.197        0.002      331.330       -0.725      867.139
01/26/2014  02:16:00      -79.953       -2.097      -12.164       15.149       15.920       10.384      229.504      253.443      107.837        0.357        0.030       79.981        7.699        0.009      331.327       -0.729      867.134
01/26/2014  02:17:00      -75.736       -8.461      -16.844       15.829       10.442        8.496      250.549      109.026       72.189        0.326        0.022       76.207        5.960        0.006      331.286       -0.796      867.130
01/26/2014  02:18:00      -92.096      -10.395      -19.020       13.260       11.717        8.367      175.820      137.296       70.005        0.467        0.019       92.681        3.605        0.002      331.327       -0.729      867.125
01/26/2014  02:19:00      -89.624      -14.665      -16.165       14.567       13.572       11.131      212.205      184.207      123.909        0.451        0.026       90.816        5.596        0.004      331.259       -0.841      867.128
01/26/2014  02:20:00      -86.652      -17.706      -13.892       15.803       16.289       10.386      249.733      265.345      107.868        0.432        0.031       88.443        9.559        0.012      331.267       -0.827      867.128
01/26/2014  02:21:00      -75.850      -10.041      -15.709       12.269       13.883       10.664      150.523      192.734      113.721        0.328        0.023       76.512        6.029        0.006      331.359       -0.675      867.116
01/26/2014  02:22:00      -79.252      -34.326      -15.251       14.970       21.302       18.130      224.095      453.788      328.707        0.435        0.050       86.366        9.591        0.012      331.341       -0.707      867.104
01/26/2014  02:23:00      -91.476      -29.046      -19.990       17.453       19.728       14.125      304.592      389.181      199.502        0.525        0.045       95.977       11.632        0.015      331.303       -0.769      867.111
01/26/2014  02:24:00     -104.335      -25.286      -22.203       18.899       20.963       13.082      357.175      439.455      171.148        0.649        0.048      107.355       13.681        0.016      331.312       -0.755      867.110
01/26/2014  02:25:00      -57.738      -44.651      -11.863       19.650       28.028       16.224      386.130      785.546      263.207        0.345        0.072       72.989        9.254        0.016      331.263       -0.834      867.101
01/26/2014  02:26:00     -104.927      -38.756      -14.937       32.735       22.552       16.499     1071.581      508.582      272.233        0.729        0.093      111.856       15.214        0.019      331.274       -0.816      867.101
01/26/2014  02:27:00      -54.299      -39.977       -2.812       41.493       26.273       21.635     1721.693      690.294      468.094        0.372        0.144       67.428       25.760        0.146      331.310       -0.756      867.110
01/26/2014  02:28:00      -77.756      -33.652       -9.319       14.086       16.494       11.731      198.409      272.048      137.607        0.394        0.030       84.725        5.614        0.004      331.336       -0.714      867.115
01/26/2014  02:29:00      -78.008      -43.413       -3.230       35.887       24.771       13.902     1287.842      613.609      193.273        0.504        0.105       89.275       16.569        0.034      331.362       -0.672      867.116
01/26/2014  02:30:00      -99.955      -36.098       -2.652       21.828       17.998       13.064      476.460      323.943      170.678        0.614        0.049      106.274       12.370        0.014      331.406       -0.600      867.116
01/26/2014  02:31:00      -74.351      -47.340        1.159       26.430       21.051       17.973      698.546      443.124      323.014        0.462        0.073       88.142       13.433        0.023      331.442       -0.540      867.128
01/26/2014  02:32:00      -66.252      -53.635        0.664       30.627       20.637       19.962      938.028      425.885      398.486        0.451        0.088       85.242       17.409        0.042      331.445       -0.536      867.119
01/26/2014  02:33:00      -79.136      -52.084       -1.120       42.241       31.439       19.710     1784.267      988.415      388.465        0.607        0.158       94.738       17.500        0.034      331.427       -0.566      867.107
01/26/2014  02:34:00     -117.346      -56.959        0.577       31.281       28.147       20.603      978.472      792.278      424.468        0.960        0.110      130.439       17.571        0.018      331.426       -0.567      867.095
01/26/2014  02:35:00     -125.447      -43.080       -2.511       23.371       21.910       15.383      546.187      480.068      236.627        0.943        0.063      132.638       12.301        0.009      331.437       -0.548      867.095
01/26/2014  02:36:00     -105.362      -35.963       -1.581       32.018       20.113       18.454     1025.148      404.523      340.554        0.708        0.089      111.331       18.694        0.028      331.473       -0.490      867.082
01/26/2014  02:37:00      -78.294      -20.374        0.468       23.298       24.349       16.951      542.793      592.871      287.331        0.398        0.071       80.902       13.963        0.030      331.491       -0.459      867.066
01/26/2014  02:38:00      -80.772      -13.400       -2.165       24.748       17.688       13.228      612.484      312.871      174.976        0.390        0.055       81.876       12.970        0.025      331.450       -0.529      867.049
01/26/2014  02:39:00      -97.116      -20.096       -7.287       23.844       17.470       12.525      568.526      305.209      156.885        0.546        0.052       99.173       11.552        0.014      331.441       -0.542      867.039
01/26/2014  02:40:00     -117.051      -28.149       -5.525       15.890       12.661       12.612      252.484      160.294      159.066        0.755        0.029      120.388       11.797        0.010      331.398       -0.613      867.032
01/26/2014  02:41:00      -93.391      -41.508      -11.439       15.697       17.382       12.108      246.405      302.134      146.592        0.564        0.035      102.199        7.647        0.006      331.282       -0.802      867.017
01/26/2014  02:42:00      -76.624      -37.518       -2.783       22.996       19.619       14.954      528.810      384.915      223.630        0.421        0.057       85.316        8.962        0.011      331.213       -0.916      867.010
01/26/2014  02:43:00      -48.563      -28.750       -8.227       27.483       17.800       17.776      755.309      316.852      315.985        0.232        0.069       56.435       18.314        0.105      331.238       -0.875      866.999
01/26/2014  02:44:00      -39.369      -24.883       -3.575       25.021       13.503       18.088      626.040      182.328      327.192        0.166        0.057       46.573       18.141        0.152      331.220       -0.906      866.997
01/26/2014  02:45:00      -78.003      -20.328       -9.821       21.124       23.648       11.550      446.206      559.222      133.402        0.387        0.057       80.608        7.992        0.010      331.186       -0.960      867.004
01/26/2014  02:46:00      -50.415      -20.602       -6.345       22.665       26.679       20.306      513.706      711.760      412.353        0.232        0.082       54.462       19.290        0.125      331.155       -1.013      867.021
01/26/2014  02:47:00      -69.848      -19.952      -16.369       18.850       26.575       14.277      355.329      706.224      203.839        0.340        0.063       72.642       12.386        0.029      331.094       -1.114      867.033
01/26/2014  02:48:00      -41.445      -28.751       -6.583       19.741       18.604       15.619      389.689      346.104      243.958        0.178        0.049       50.441        6.505        0.017      331.185       -0.964      867.043
01/26/2014  02:49:00      -46.064      -26.498      -11.435       15.355       18.840       17.727      235.791      354.961      314.250        0.193        0.045       53.142       11.719        0.049      331.119       -1.070      867.051
01/26/2014  02:50:00      -61.081      -24.016       -9.580       13.648       11.280       10.013      186.266      127.246      100.264        0.241        0.021       65.633        9.023        0.019      331.256       -0.846      867.058
01/26/2014  02:51:00      -72.239      -34.562      -12.934       11.560       11.005        7.905      133.631      121.111       62.488        0.345        0.016       80.082        5.955        0.006      331.206       -0.930      867.057
01/26/2014  02:52:00      -76.440      -18.131      -16.228        9.222       11.497        9.476       85.043      132.180       89.785        0.337        0.015       78.560        6.988        0.008      331.250       -0.856      867.061
01/26/2014  02:53:00      -67.248      -18.274      -14.926       14.097       25.145       12.935      198.726      632.291      167.303        0.304        0.050       69.687        8.598        0.015      331.125       -1.063      867.056
01/26/2014  02:54:00      -94.856       -9.422      -14.582       26.447       25.987       15.220      699.421      675.342      231.660        0.545        0.080       95.323       13.685        0.021      331.102       -1.099      867.056
01/26/2014  02:55:00      -98.488       -4.815      -18.546       17.439       18.848       13.877      304.107      355.236      192.576        0.546        0.043       98.606        8.456        0.007      331.038       -1.205      867.049
01/26/2014  02:56:00      -76.320      -13.427      -11.760       22.252       15.494       16.295      495.155      240.054      265.524        0.357        0.050       77.492       12.179        0.025      331.074       -1.146      867.048
01/26/2014  02:57:00      -68.582      -38.050      -16.318       23.235       17.261       13.565      539.849      297.929      184.019        0.372        0.051       78.431        8.819        0.013      331.039       -1.204      867.055
01/26/2014  02:58:00      -79.873      -29.303      -12.521       24.569       18.565       13.252      603.640      344.664      175.624        0.426        0.056       85.078       12.619        0.022      331.008       -1.254      867.054
01/26/2014  02:59:00      -76.646      -45.783       -2.694       17.158       27.501       16.286      294.400      756.287      265.239        0.465        0.066       89.279       12.159        0.019      330.949       -1.351      867.055
01/26/2014  03:00:00      -75.697      -35.018      -13.347       27.817       13.733       12.794      773.793      188.593      163.677        0.413        0.056       83.405       10.133        0.015      330.962       -1.328      867.040
01/26/2014  03:01:00      -42.332      -36.270        3.248       27.833       18.945       16.848      774.688      358.930      283.861        0.227        0.071       55.745       17.439        0.098      331.048       -1.189      867.030
01/26/2014  03:02:00      -63.097      -35.868       -3.884       24.737       20.567       15.141      611.903      423.003      229.264        0.327        0.063       72.579       13.826        0.036      330.988       -1.286      867.031
01/26/2014  03:03:00      -61.098      -37.270        2.087       25.115       24.737       16.508      630.752      611.899      272.530        0.332        0.076       71.569       16.708        0.054      330.977       -1.305      867.032
01/26/2014  03:04:00      -94.570      -29.811      -11.029       10.175        8.756        6.680      103.524       76.661       44.625        0.509        0.011       99.157        5.558        0.003      330.974       -1.309      867.032
01/26/2014  03:05:00      -70.368      -29.365      -10.600       18.187       11.401        9.789      330.753      129.981       95.824        0.324        0.028       76.249        6.942        0.008      331.164       -0.998      867.024
01/26/2014  03:06:00      -62.245      -20.277       -7.107       11.826       13.015       11.468      139.859      169.390      131.520        0.239        0.022       65.464        4.931        0.006      331.264       -0.832      867.017
01/26/2014  03:07:00      -24.763      -21.361        6.545       23.266       17.303       11.358      541.314      299.377      129.012        0.104        0.048       32.703       13.594        0.173      331.218       -0.907      867.005
01/26/2014  03:08:00      -54.668      -15.177       -7.796       11.679       10.678        7.838      136.397      114.018       61.430        0.180        0.016       56.736        4.368        0.006      331.239       -0.873      867.004
01/26/2014  03:09:00      -66.953      -10.375      -11.394       12.912       11.104       10.137      166.728      123.288      102.761        0.256        0.020       67.753        8.654        0.016      331.241       -0.870      867.001
01/26/2014  03:10:00      -84.510       -9.969      -12.923       13.802       10.642        8.166      190.489      113.258       66.676        0.389        0.019       85.096        4.980        0.003      331.221       -0.903      866.979
01/26/2014  03:11:00      -83.787      -23.104       -1.858       18.457       18.161       12.597      340.653      329.836      158.694        0.419        0.041       86.914       12.319        0.020      331.168       -0.992      866.970
01/26/2014  03:12:00      -68.037      -27.791       -7.581       22.070       14.347        9.952      487.105      205.840       99.036        0.313        0.040       73.495        7.531        0.011      331.198       -0.940      866.958
01/26/2014  03:13:00      -61.370      -20.216       -7.403       14.628       15.584       11.517      213.989      242.858      132.649        0.241        0.029       64.614        8.910        0.019      331.223       -0.901      866.953
01/26/2014  03:14:00      -79.629       -7.142      -11.225       12.594       10.652        8.629      158.608      113.464       74.466        0.343        0.017       79.949        5.230        0.004      331.209       -0.924      866.953
01/26/2014  03:15:00      -77.691       -7.245      -10.965       15.207       12.123       11.009      231.241      146.960      121.199        0.335        0.025       78.028        8.184        0.011      331.204       -0.931      866.937
01/26/2014  03:16:00      -90.620      -16.259      -10.325       20.346       11.147       13.284      413.964      124.246      176.472        0.465        0.036       92.067       13.234        0.021      331.194       -0.947      866.924
01/26/2014  03:17:00      -88.877      -14.990       -4.764       24.597       18.941       13.929      605.008      358.761      194.013        0.465        0.058       90.132        4.070        0.002      331.163       -0.999      866.908
01/26/2014  03:18:00      -86.275      -28.548       -1.655       30.555       22.639       16.655      933.591      512.528      277.389        0.499        0.086       90.876       18.637        0.042      331.089       -1.119      866.891
01/26/2014  03:19:00     -104.186       -5.364       -9.294       28.632       15.489       16.111      819.809      239.899      259.575        0.614        0.066      104.324       15.018        0.021      331.019       -1.237      866.887
01/26/2014  03:20:00      -99.405      -10.623       -4.416       33.904       18.026       17.361     1149.449      324.936      301.407        0.589        0.089       99.971       16.109        0.026      331.022       -1.231      866.897
01/26/2014  03:21:00      -91.170      -10.865       -0.954       29.817       16.413       14.048      889.079      269.386      197.340        0.489        0.068       91.815       15.759        0.029      330.964       -1.327      866.907
01/26/2014  03:22:00      -67.049      -19.242        2.687       36.297       24.569       14.755     1317.460      603.612      217.700        0.351        0.107       69.755       18.336        0.069      330.979       -1.302      866.927
01/26/2014  03:23:00      -88.689      -34.055       -6.959       21.647       19.090       16.846      468.580      364.447      283.773        0.510        0.056       95.003        9.138        0.009      331.036       -1.208      866.946
01/26/2014  03:24:00      -85.793      -28.522       -5.944       30.637       23.325       13.254      938.656      544.044      175.659        0.493        0.083       90.410       15.522        0.029      331.058       -1.174      866.967
01/26/2014  03:25:00      -68.615      -30.439        3.633       32.301       22.447       17.747     1043.342      503.865      314.944        0.375        0.093       75.063       19.058        0.064      331.062       -1.166      866.984
01/26/2014  03:26:00      -80.878      -22.442        0.421       41.656       24.912       17.589     1735.218      620.618      309.373        0.485        0.133       83.934       22.240        0.070      331.005       -1.259      866.993
01/26/2014  03:27:00      -86.286      -29.799        1.725       35.027       23.113       18.655     1226.860      534.228      348.004        0.522        0.105       91.287       15.066        0.027      330.923       -1.393      866.996
01/26/2014  03:28:00     -100.904      -21.679       -1.814       37.866       28.474       18.718     1433.808      810.788      350.347        0.662        0.130      103.206       18.722        0.033      330.908       -1.418      866.987
01/26/2014  03:29:00      -86.802      -22.492       -0.861       27.599       23.848       19.261      761.712      568.716      370.968        0.487        0.085       89.669       13.554        0.023      330.922       -1.395      866.968
01/26/2014  03:30:00     -108.757      -13.278      -11.015       26.503       21.166       14.691      702.435      448.014      215.820        0.675        0.068      109.565       13.527        0.015      330.857       -1.503      866.955
01/26/2014  03:31:00     -134.641      -17.259      -11.137       18.932       13.104       10.843      358.416      171.722      117.571        0.960        0.032      135.742        8.428        0.004      330.821       -1.561      866.947
01/26/2014  03:32:00     -127.764       -9.295      -11.455       18.706       12.537       13.879      349.925      157.171      192.617        0.862        0.035      128.102       11.875        0.009      330.817       -1.568      866.938
01/26/2014  03:33:00      -89.229      -15.103       -7.922       27.538       22.731       12.730      758.355      516.681      162.060        0.484        0.072       90.499       10.418        0.013      330.764       -1.653      866.926
01/26/2014  03:34:00     -112.859      -14.747       -9.985       21.283       19.196       17.700      452.981      368.470      313.282        0.709        0.057      113.819       10.927        0.009      330.790       -1.613      866.917
01/26/2014  03:35:00     -114.527      -23.662      -15.669       29.014       19.588       16.479      841.830      383.690      271.569        0.771        0.075      116.946       14.160        0.015      330.769       -1.647      866.909
01/26/2014  03:36:00     -148.598      -35.121      -24.558       20.122       18.468       11.806      404.901      341.062      139.370        1.240        0.044      152.692        7.835        0.003      330.701       -1.757      866.898
01/26/2014  03:37:00     -107.276      -38.982      -12.284       23.828       21.996       19.491      567.791      483.809      379.889        0.730        0.072      114.139       15.879        0.019      330.653       -1.837      866.889
01/26/2014  03:38:00     -102.159      -42.919      -15.328       24.871       28.658       17.215      618.552      821.308      296.345        0.712        0.087      110.809       11.720        0.011      330.721       -1.724      866.882
01/26/2014  03:39:00     -104.930      -44.940      -14.998       34.786       19.292       15.134     1210.032      372.176      229.036        0.753        0.091      114.149       13.478        0.014      330.730       -1.709      866.881
01/26/2014  03:40:00      -47.401      -46.913      -12.028       31.926       21.850       16.099     1019.274      477.421      259.162        0.317        0.088       66.690        7.546        0.013      330.800       -1.596      866.875
01/26/2014  03:41:00      -67.270      -44.988      -12.829       32.310       19.255       16.909     1043.949      370.771      285.914        0.421        0.085       80.927        5.533        0.005      330.752       -1.674      866.870
01/26/2014  03:42:00      -79.542      -32.488       -5.086       39.467       24.381       18.488     1557.680      594.415      341.800        0.495        0.125       85.921       14.346        0.028      330.778       -1.630      866.856
01/26/2014  03:43:00      -89.943      -43.314       -4.037       29.648       32.982       18.511      879.026     1087.838      342.662        0.615        0.115       99.829       14.350        0.021      330.786       -1.619      866.848
01/26/2014  03:44:00      -68.501      -21.692       -2.017       35.247       32.535       21.357     1242.336     1058.537      456.102        0.396        0.138       71.853       17.453        0.059      330.843       -1.524      866.841
01/26/2014  03:45:00      -44.800      -28.564        3.539       29.872       27.795       19.826      892.363      772.569      393.085        0.245        0.103       53.131       16.636        0.098      330.810       -1.578      866.845
01/26/2014  03:46:00      -71.892      -20.941      -12.627       19.964       16.699       13.088      398.552      278.852      171.308        0.331        0.042       74.880        7.293        0.009      330.769       -1.646      866.841
01/26/2014  03:47:00      -73.131       -9.472      -14.679       17.522       11.982       11.676      307.031      143.566      136.325        0.312        0.029       73.742        5.177        0.005      330.816       -1.569      866.835
01/26/2014  03:48:00      -64.845      -22.804      -12.559       11.700       14.725       10.978      136.880      216.827      120.510        0.268        0.024       68.738        6.479        0.009      330.809       -1.581      866.825
01/26/2014  03:49:00      -59.029      -20.304       -3.149       15.135       13.297       15.144      229.076      176.805      229.329        0.227        0.032       62.424       11.132        0.032      330.788       -1.615      866.821
01/26/2014  03:50:00      -61.915      -10.390      -10.934        8.442       10.239       11.236       71.264      104.841      126.253        0.218        0.015       62.781        8.591        0.019      330.890       -1.448      866.828
01/26/2014  03:51:00      -57.702      -22.397       -9.870       10.245       10.407        9.850      104.955      108.296       97.028        0.212        0.016       61.896        5.066        0.007      330.932       -1.377      866.826
01/26/2014  03:52:00      -57.200      -24.423      -11.732       10.011       12.192       11.027      100.220      148.647      121.594        0.219        0.019       62.196        2.389        0.001      330.979       -1.302      866.823
01/26/2014  03:53:00      -52.783      -25.864       -5.542       10.599       12.185       11.290      112.328      148.464      127.455        0.194        0.019       58.779        5.317        0.008      330.929       -1.382      866.816
01/26/2014  03:54:00      -54.012      -18.293       -8.713        8.439       11.983        9.125       71.224      143.590       83.265        0.181        0.015       57.026        2.716        0.002      331.073       -1.148      866.807
01/26/2014  03:55:00      -39.513      -16.531       -8.802       10.624       11.408       10.144      112.868      130.133      102.895        0.113        0.017       42.831        5.693        0.018      331.268       -0.826      866.811
01/26/2014  03:56:00      -16.212      -23.395        3.669       14.986       13.879       13.459      224.590      192.630      181.151        0.071        0.030       28.463        8.754        0.095      331.069       -1.154      866.829
01/26/2014  03:57:00      -53.501      -37.604       -8.924       22.507       15.242       13.691      506.572      232.310      187.442        0.264        0.046       65.394        9.915        0.023      330.917       -1.405      866.832
01/26/2014  03:58:00      -92.623      -36.535      -11.648       18.458       16.037       11.068      340.685      257.191      122.494        0.538        0.036       99.568       10.010        0.010      330.790       -1.612      866.844
01/26/2014  03:59:00     -108.283      -40.674      -14.513       22.693       16.697       14.690      514.953      278.805      215.810        0.730        0.050      115.670       11.185        0.009      330.796       -1.603      866.849
01/26/2014  04:00:00     -102.539      -43.932      -15.968       13.048       19.867       11.197      170.249      394.699      125.375        0.669        0.035      111.554        4.830        0.002      330.767       -1.650      866.862
01/26/2014  04:01:00      -82.066      -33.345       -7.953       15.955       12.925       13.867      254.577      167.057      192.287        0.426        0.031       88.582        9.757        0.012      330.785       -1.620      866.868
01/26/2014  04:02:00      -99.205        3.433      -13.271       20.226       12.112       11.642      409.106      146.708      135.528        0.536        0.035       99.265        3.690        0.001      330.693       -1.770      866.870
01/26/2014  04:03:00     -107.608        0.493      -15.238       16.159       15.973       14.789      261.107      255.133      218.714        0.627        0.037      107.609        9.982        0.009      330.712       -1.740      866.871
01/26/2014  04:04:00     -100.171        0.917      -11.879       20.590       15.272       14.575      423.955      233.227      212.434        0.552        0.043      100.175        9.664        0.009      330.747       -1.682      866.862
01/26/2014  04:05:00      -80.623      -14.803      -10.073       19.873       18.589       16.472      394.955      345.540      271.328        0.392        0.051       81.971       12.092        0.022      330.766       -1.652      866.856
01/26/2014  04:06:00      -96.208       -7.188      -15.949       23.017       14.599       10.403      529.782      213.119      108.230        0.521        0.043       96.476        7.759        0.006      330.745       -1.685      866.855
01/26/2014  04:07:00      -84.744       -4.082      -17.058       15.818       13.688       14.452      250.223      187.360      208.871        0.407        0.032       84.842        8.393        0.010      330.732       -1.706      866.860
01/26/2014  04:08:00      -73.587       -9.870      -13.354       13.237       14.394       10.993      175.208      207.185      120.837        0.310        0.025       74.245        7.351        0.010      330.787       -1.617      866.852
01/26/2014  04:09:00     -106.275        2.409      -20.321       26.163       19.462       15.092      684.516      378.776      227.756        0.650        0.065      106.302       11.744        0.012      330.782       -1.626      866.824
01/26/2014  04:10:00      -95.315       -1.270      -13.782       17.115       10.420       13.991      292.926      108.571      195.759        0.494        0.030       95.324        6.578        0.005      330.750       -1.678      866.803
01/26/2014  04:11:00      -54.795       -7.955       -8.072       19.243       11.071       10.100      370.309      122.576      102.008        0.186        0.030       55.370        7.662        0.019      330.745       -1.684      866.793
01/26/2014  04:12:00      -53.260      -19.332       -7.351        8.962       13.418        8.296       80.312      180.041       68.830        0.180        0.016       56.660        4.374        0.006      330.767       -1.649      866.786
01/26/2014  04:13:00      -40.877      -21.328      -16.139       11.714        9.812        8.689      137.229       96.272       75.497        0.135        0.015       46.107        3.484        0.006      330.933       -1.377      866.790
01/26/2014  04:14:00      -49.515      -33.297      -16.767       16.633       10.640       10.835      276.670      113.213      117.387        0.217        0.025       59.669        8.582        0.021      330.894       -1.440      866.785
01/26/2014  04:15:00      -66.506      -13.468      -11.788       22.461       11.088        8.673      504.477      122.933       75.215        0.272        0.035       67.856        6.904        0.010      330.749       -1.680      866.783
01/26/2014  04:16:00      -69.580      -11.841      -14.704        8.770        7.608        9.755       76.912       57.879       95.164        0.271        0.011       70.581        6.687        0.009      330.747       -1.684      866.788
01/26/2014  04:17:00      -66.840      -13.172      -11.183        9.071       10.191       10.345       82.283      103.858      107.020        0.253        0.015       68.126        6.576        0.009      330.794       -1.606      866.784
01/26/2014  04:18:00      -84.028      -10.184      -10.311       16.949       13.344       11.539      287.266      178.054      133.159        0.393        0.030       84.643        7.011        0.007      330.743       -1.689      866.793
01/26/2014  04:19:00      -85.861      -12.003      -13.946       14.702       13.113        9.968      216.147      171.955       99.362        0.410        0.024       86.696        6.398        0.005      330.700       -1.760      866.806
01/26/2014  04:20:00      -95.181      -13.862      -15.653       13.721       15.286       11.874      188.259      233.675      141.003        0.503        0.028       96.185        7.919        0.007      330.649       -1.842      866.807
01/26/2014  04:21:00      -78.726      -16.418      -13.288       12.320       15.821       13.744      151.773      250.310      188.903        0.362        0.030       80.419        9.811        0.015      330.608       -1.908      866.806
01/26/2014  04:22:00      -73.015      -17.789      -12.307       15.168       20.445       12.801      230.081      418.004      163.872        0.331        0.041       75.151        9.315        0.015      330.642       -1.855      866.800
01/26/2014  04:23:00      -64.536      -34.485       -0.276       16.176       25.967       19.448      261.647      674.272      378.242        0.333        0.066       73.171       12.715        0.030      330.684       -1.785      866.792
01/26/2014  04:24:00      -75.686      -26.968       -4.531       25.213       20.250       16.002      635.716      410.063      256.056        0.389        0.065       80.347       13.149        0.027      330.703       -1.753      866.787
01/26/2014  04:25:00      -60.230      -24.818       -6.219       16.575       18.315       13.044      274.718      335.449      170.142        0.253        0.039       65.143       10.550        0.026      330.675       -1.800      866.788
01/26/2014  04:26:00      -79.938      -17.573       -9.815       14.874       14.729       11.886      221.236      216.938      141.269        0.369        0.029       81.847        8.787        0.012      330.690       -1.776      866.790
01/26/2014  04:27:00      -71.630      -20.102       -2.356       38.110       22.499       16.571     1452.403      506.227      274.595        0.389        0.112       74.397       13.460        0.033      330.584       -1.950      866.791
01/26/2014  04:28:00      -58.597      -36.140      -13.527       22.592       18.985       18.874      510.388      360.422      356.231        0.307        0.061       68.846        9.311        0.018      330.608       -1.910      866.794
01/26/2014  04:29:00      -71.928       -8.121      -20.050       11.709       15.640       11.032      137.107      244.624      121.713        0.307        0.025       72.385        7.887        0.012      330.652       -1.839      866.794
01/26/2014  04:30:00      -59.868      -23.096       -1.388       21.812       18.740       15.715      475.742      351.197      246.958        0.260        0.054       64.168       10.870        0.029      330.704       -1.753      866.791
01/26/2014  04:31:00      -84.994      -40.169      -17.605       16.357       20.403       11.905      267.546      416.276      141.718        0.499        0.041       94.008        7.949        0.007      330.630       -1.873      866.798
01/26/2014  04:32:00      -79.260      -40.104      -14.265       19.041       22.806       16.519      362.546      520.098      272.875        0.462        0.058       88.828       10.626        0.014      330.618       -1.894      866.802
01/26/2014  04:33:00      -69.913      -21.868       -5.952       20.418       22.323       13.036      416.899      498.325      169.930        0.324        0.054       73.253        9.468        0.017      330.600       -1.924      866.800
01/26/2014  04:34:00      -76.280      -20.711       -6.909       20.918       19.094       13.390      437.565      364.569      179.301        0.364        0.049       79.042       11.506        0.021      330.627       -1.879      866.805
01/26/2014  04:35:00      -97.372      -20.321      -15.264       12.156       13.243        8.599      147.776      175.390       73.940        0.526        0.020       99.470        4.237        0.002      330.634       -1.867      866.801
01/26/2014  04:36:00      -99.231      -10.503      -17.786        9.966        8.961        8.242       99.320       80.292       67.936        0.526        0.012       99.785        4.728        0.002      330.634       -1.867      866.799
01/26/2014  04:37:00      -90.670      -29.193      -15.733       13.055       15.206        9.369      170.446      231.237       87.785        0.491        0.024       95.254        7.604        0.006      330.613       -1.901      866.806
01/26/2014  04:38:00      -87.551      -16.742      -15.458       23.230       12.164       11.275      539.647      147.973      127.132        0.450        0.041       89.137       10.402        0.014      330.652       -1.838      866.800
01/26/2014  04:39:00      -40.913       -9.320       -5.346       17.282       16.362       15.292      298.653      267.727      233.851        0.129        0.040       41.961       14.933        0.127      330.666       -1.815      866.794
01/26/2014  04:40:00      -55.044       -4.491       -4.457       23.668       14.277       11.498      560.195      203.826      132.207        0.198        0.045       55.227       11.551        0.044      330.684       -1.785      866.790
01/26/2014  04:41:00      -61.240       -3.019       -4.868       22.644       13.474        8.602      512.772      181.554       73.997        0.228        0.038       61.314        9.763        0.025      330.699       -1.762      866.782
01/26/2014  04:42:00      -74.506      -12.341       -5.692       16.277       11.373        9.632      264.955      129.351       92.781        0.311        0.024       75.521        9.074        0.014      330.700       -1.758      866.793
01/26/2014  04:43:00      -83.378      -20.594       -7.121       19.781       13.710       11.190      391.303      187.970      125.208        0.407        0.035       85.883        9.176        0.011      330.659       -1.827      866.801
01/26/2014  04:44:00      -70.928      -32.435       -8.713       15.794       13.977       10.687      249.435      195.345      114.209        0.336        0.028       77.992        8.607        0.012      330.696       -1.766      866.808
01/26/2014  04:45:00      -76.503      -33.004       -5.578        9.122       13.367        8.415       83.220      178.673       70.811        0.365        0.017       83.319        6.147        0.005      330.715       -1.735      866.815
01/26/2014  04:46:00      -67.355      -14.127       -6.211       17.384       11.456        8.079      302.192      131.251       65.272        0.264        0.025       68.820        5.930        0.007      330.689       -1.777      866.827
01/26/2014  04:47:00      -51.864      -13.442       -4.621       18.294       11.803        9.312      334.678      139.320       86.707        0.173        0.028       53.578        8.993        0.028      330.734       -1.705      866.840
01/26/2014  04:48:00      -67.534       -5.942       -9.355        8.671       11.344        7.993       75.181      128.683       63.884        0.248        0.013       67.795        6.179        0.008      330.736       -1.701      866.853
01/26/2014  04:49:00      -51.485       -2.052       -7.677       18.673        9.039       10.707      348.695       81.708      114.648        0.163        0.027       51.526        7.722        0.022      330.768       -1.649      866.860
01/26/2014  04:50:00      -58.263       -9.586      -10.128       11.666        7.364        7.493      136.095       54.231       56.150        0.192        0.012       59.046        2.752        0.002      330.788       -1.616      866.849
01/26/2014  04:51:00      -58.622      -21.530      -14.110        7.987       11.662        6.671       63.787      135.995       44.501        0.217        0.012       62.451        4.743        0.006      330.618       -1.894      866.842
01/26/2014  04:52:00      -60.230       -3.912       -8.108       13.504        9.568        8.402      182.347       91.554       70.587        0.203        0.017       60.357        7.366        0.015      330.601       -1.922      866.834
01/26/2014  04:53:00      -47.005       -7.101       -7.560       13.244       11.042        7.452      175.411      121.929       55.535        0.133        0.018       47.538        6.510        0.019      330.666       -1.815      866.823
01/26/2014  04:54:00      -63.604       -9.272       -7.303        9.013        9.088        6.134       81.231       82.584       37.630        0.219        0.010       64.277        3.191        0.002      330.609       -1.909      866.813
01/26/2014  04:55:00      -69.708      -14.518      -13.091        8.646        9.308        7.532       74.748       86.634       56.735        0.273        0.011       71.204        5.508        0.006      330.544       -2.014      866.802
01/26/2014  04:56:00      -75.563       -6.749       -9.170       12.694       12.550        9.396      161.143      157.501       88.293        0.312        0.020       75.863        6.241        0.007      330.490       -2.103      866.792
01/26/2014  04:57:00      -83.625      -19.139       -8.792        7.062       12.583        7.156       49.868      158.338       51.210        0.385        0.013       85.788        5.698        0.004      330.388       -2.274      866.785
01/26/2014  04:58:00      -80.588      -13.748      -13.751       11.736        9.611        6.284      137.735       92.374       39.485        0.357        0.013       81.752        4.648        0.003      330.354       -2.327      866.773
01/26/2014  04:59:00      -90.255      -13.995      -12.209       12.407        9.972        7.980      153.924       99.440       63.679        0.440        0.016       91.334        3.203        0.001      330.319       -2.384      866.766
01/26/2014  05:00:00      -83.948       -5.481      -14.685       13.541        8.142        8.177      183.357       66.297       66.861        0.380        0.016       84.127        4.733        0.003      330.424       -2.212      866.760
01/26/2014  05:01:00      -70.905       -2.245      -11.298       12.130       13.870        9.529      147.128      192.380       90.809        0.280        0.022       70.940        9.413        0.018      330.339       -2.350      866.754
01/26/2014  05:02:00      -64.138      -11.759      -10.319        9.129       11.954       11.447       83.346      142.887      131.033        0.236        0.018       65.207        6.123        0.009      330.412       -2.232      866.750
01/26/2014  05:03:00      -59.766      -16.654      -12.592        7.982       13.307        7.545       63.720      177.084       56.927        0.215        0.015       62.043        6.616        0.011      330.392       -2.266      866.748
01/26/2014  05:04:00      -49.337      -11.909      -12.820        9.308       12.023        6.858       86.636      144.541       47.036        0.151        0.014       50.754        4.739        0.009      330.488       -2.108      866.739
01/26/2014  05:05:00      -46.554        0.136      -10.863        6.512       12.536       12.362       42.409      157.139      152.823        0.132        0.018       46.555        8.012        0.030      330.709       -1.744      866.732
01/26/2014  05:06:00      -39.802      -15.563      -10.263       13.844       16.042        7.678      191.656      257.346       58.950        0.122        0.025       42.736        6.471        0.023      330.688       -1.779      866.719
01/26/2014  05:07:00      -11.777      -11.445       -4.506        8.210        5.935        9.824       67.410       35.228       96.505        0.024        0.010       16.423        4.449        0.073      330.803       -1.591      866.706
01/26/2014  05:08:00      -17.099      -10.580       -9.157       12.208        7.562        5.625      149.029       57.185       31.645        0.036        0.012       20.108        3.658        0.033      330.826       -1.552      866.702
01/26/2014  05:09:00      -32.225      -13.886       -4.913        9.590        9.547        8.884       91.974       91.143       78.928        0.076        0.013       35.089        5.639        0.026      330.777       -1.632      866.697
01/26/2014  05:10:00      -23.483      -15.639       -8.790       13.424       12.876        9.407      180.212      165.787       88.495        0.065        0.022       28.214        7.766        0.076      330.850       -1.513      866.708
01/26/2014  05:11:00      -51.523      -26.788      -15.356       18.182        9.762        9.750      330.592       95.288       95.064        0.206        0.026       58.071        8.716        0.023      330.534       -2.032      866.727
01/26/2014  05:12:00      -78.050      -18.551      -15.788        9.004        7.357        7.888       81.078       54.122       62.213        0.344        0.010       80.224        2.907        0.001      330.420       -2.218      866.742
01/26/2014  05:13:00      -70.462      -11.864       -8.921       15.374       12.009       12.036      236.360      144.221      144.872        0.286        0.026       71.454       10.764        0.023      330.414       -2.229      866.753
01/26/2014  05:14:00      -61.637      -13.807      -11.837       12.155       10.780       10.251      147.733      116.216      105.087        0.225        0.018       63.164        8.668        0.019      330.374       -2.296      866.749
01/26/2014  05:15:00      -59.471      -11.362      -10.957       11.405        9.292        7.327      130.085       86.348       53.687        0.203        0.014       60.546        5.469        0.008      330.421       -2.218      866.725
01/26/2014  05:16:00      -44.562      -17.708      -14.959       13.654       11.320        9.139      186.429      128.133       83.522        0.146        0.020       47.952        5.264        0.012      330.453       -2.165      866.700
01/26/2014  05:17:00      -40.193      -26.262      -15.804       15.444       11.844        9.645      238.523      140.272       93.030        0.151        0.024       48.012        6.988        0.021      330.543       -2.017      866.680
01/26/2014  05:18:00      -38.990      -20.438      -13.308       13.287       13.522       10.028      176.550      182.856      100.566        0.129        0.023       44.022        7.575        0.030      330.558       -1.993      866.659
01/26/2014  05:19:00      -47.476      -23.553      -13.830       10.028       13.668        9.447      100.554      186.811       89.248        0.169        0.019       52.998        4.262        0.006      330.586       -1.946      866.639
01/26/2014  05:20:00      -47.261      -21.499      -10.120       12.066       10.729        8.399      145.581      115.110       70.544        0.156        0.017       51.921        2.818        0.003      330.512       -2.068      866.620
01/26/2014  05:21:00      -32.304      -26.713       -8.684       13.336       13.701        7.748      177.843      187.729       60.027        0.113        0.021       41.918        4.322        0.011      330.573       -1.967      866.600
01/26/2014  05:22:00      -50.496      -18.550      -10.406        7.917       10.000        7.763       62.683       99.998       60.265        0.161        0.011       53.796        3.164        0.003      330.465       -2.144      866.579
01/26/2014  05:23:00      -60.235      -19.030      -10.649        9.354        8.146        9.253       87.506       66.355       85.615        0.217        0.012       63.170        5.044        0.006      330.374       -2.294      866.573
01/26/2014  05:24:00      -73.822      -14.642      -10.623       10.066       10.802        8.039      101.317      116.677       64.619        0.303        0.014       75.260        5.431        0.005      330.249       -2.500      866.572
01/26/2014  05:25:00      -70.640       -9.156      -13.443        9.525        9.094        9.274       90.720       82.705       86.014        0.276        0.013       71.231        4.005        0.003      330.253       -2.492      866.570
01/26/2014  05:26:00      -62.967      -14.199      -14.685        9.029        9.783        7.364       81.518       95.713       54.234        0.231        0.012       64.548        3.339        0.003      330.274       -2.458      866.570
01/26/2014  05:27:00      -61.916      -28.338       -9.665       11.143       11.755       11.551      124.176      138.176      133.429        0.256        0.020       68.093        3.154        0.002      330.219       -2.547      866.571
01/26/2014  05:28:00      -66.007      -24.390      -15.020       13.126       10.300       10.678      172.299      106.096      114.019        0.278        0.020       70.369        5.523        0.006      330.255       -2.490      866.572
01/26/2014  05:29:00      -85.697      -27.003      -14.030       15.062       16.027       10.946      226.872      256.879      119.819        0.444        0.030       89.851        7.347        0.007      330.230       -2.531      866.569
01/26/2014  05:30:00      -78.458      -28.265      -17.217       24.340       24.409       14.178      592.446      595.808      201.029        0.432        0.069       83.394       13.686        0.027      330.244       -2.508      866.573
01/26/2014  05:31:00      -99.152      -19.421      -15.216       17.207       17.066       12.239      296.094      291.251      149.781        0.559        0.037      101.036        9.153        0.008      330.156       -2.652      866.587
01/26/2014  05:32:00      -93.261      -13.799      -15.742       14.062       11.472        9.969      197.731      131.606       99.384        0.478        0.021       94.277        7.126        0.006      330.154       -2.656      866.591
01/26/2014  05:33:00      -80.391      -27.471      -12.793       12.821       13.217       17.270      164.378      174.688      298.256        0.401        0.032       84.955        6.403        0.006      330.198       -2.583      866.595
01/26/2014  05:34:00      -61.837      -28.834      -13.078       15.851       12.173       10.274      251.242      148.180      105.551        0.267        0.025       68.229        5.804        0.007      330.185       -2.604      866.593
01/26/2014  05:35:00      -69.778      -16.951      -11.979       15.844       15.316       10.802      251.024      234.586      116.692        0.295        0.030       71.808        5.664        0.006      330.137       -2.683      866.587
01/26/2014  05:36:00      -57.288      -20.334       -0.812       15.097       17.111       15.680      227.905      292.785      245.852        0.223        0.038       60.790        8.564        0.020      330.160       -2.646      866.592
01/26/2014  05:37:00      -62.332      -22.934      -11.886       12.826       11.972       14.563      164.495      143.330      212.084        0.254        0.026       66.418        6.940        0.011      330.148       -2.665      866.599
01/26/2014  05:38:00      -61.812      -14.666       -9.999       19.271       12.620       13.070      371.361      159.276      170.827        0.242        0.035       63.528        9.014        0.020      330.212       -2.560      866.606
01/26/2014  05:39:00      -73.287      -13.499       -9.086       17.678       12.923        9.396      312.499      166.993       88.292        0.310        0.028       74.520        2.227        0.001      330.187       -2.601      866.611
01/26/2014  05:40:00      -78.594      -10.041      -12.131       10.920        9.843        8.264      119.248       96.894       68.300        0.335        0.014       79.233        2.568        0.001      330.116       -2.716      866.617
01/26/2014  05:41:00      -73.011       -4.658      -15.280       11.435        9.507        9.728      130.765       90.385       94.642        0.295        0.016       73.159        4.176        0.003      330.117       -2.718      866.618
01/26/2014  05:42:00      -61.101      -15.296      -16.386       10.467       11.965       11.657      109.557      143.155      135.877        0.231        0.019       62.987        4.049        0.004      330.159       -2.647      866.627
01/26/2014  05:43:00      -79.385       -6.632      -13.319       10.950       11.859       11.099      119.904      140.629      123.182        0.345        0.019       79.661        5.548        0.005      330.126       -2.701      866.647
01/26/2014  05:44:00      -73.752      -11.099      -16.000       11.181        8.605        9.328      125.013       74.053       87.008        0.305        0.014       74.582        4.613        0.004      330.090       -2.761      866.654
01/26/2014  05:45:00      -75.215      -16.760      -12.159       12.534       13.154        9.153      157.107      173.041       83.781        0.325        0.021       77.059        4.772        0.004      330.138       -2.681      866.658
01/26/2014  05:46:00      -81.412      -19.079      -17.234       12.300       10.932       10.869      151.290      119.506      118.141        0.384        0.019       83.618        3.630        0.002      330.189       -2.597      866.662
01/26/2014  05:47:00      -60.289      -20.261      -13.281       11.181       13.253       12.111      125.012      175.642      146.669        0.233        0.022       63.602        6.894        0.012      330.175       -2.621      866.671
01/26/2014  05:48:00      -59.696      -17.769      -11.438       10.247       10.042       10.153      104.999      100.851      103.074        0.216        0.015       62.285        6.628        0.011      330.160       -2.644      866.679
01/26/2014  05:49:00      -58.239      -19.945      -13.605       11.072       11.526        9.393      122.587      132.846       88.225        0.216        0.017       61.560        6.465        0.011      330.214       -2.556      866.689
01/26/2014  05:50:00      -66.707      -16.497      -11.020        6.740       10.937       10.759       45.434      119.622      115.762        0.256        0.014       68.716        4.491        0.004      330.193       -2.590      866.707
01/26/2014  05:51:00      -74.909      -18.933      -14.011       18.781        9.315        8.950      352.738       86.770       80.106        0.334        0.026       77.265        7.176        0.009      330.132       -2.690      866.712
01/26/2014  05:52:00      -89.957      -14.518      -13.123       11.841       12.660        9.596      140.215      160.274       92.085        0.443        0.020       91.121        7.745        0.007      330.105       -2.735      866.720
01/26/2014  05:53:00      -92.687      -20.209      -11.322        9.014       18.545        9.996       81.248      343.906       99.925        0.483        0.026       94.864        6.972        0.005      330.107       -2.731      866.718
01/26/2014  05:54:00      -79.256      -21.273      -10.772       21.458       14.144       13.800      460.444      200.040      190.439        0.385        0.043       82.062       12.175        0.022      330.029       -2.860      866.713
01/26/2014  05:55:00      -76.830      -29.603      -12.277       15.456       24.742       15.242      238.900      612.178      232.323        0.401        0.054       82.335       15.373        0.035      330.081       -2.775      866.715
01/26/2014  05:56:00      -73.086      -13.636      -12.001       16.802       13.673       12.121      282.318      186.950      146.914        0.314        0.031       74.347       10.995        0.022      330.170       -2.630      866.708
01/26/2014  05:57:00      -52.125       -1.793       -8.239       11.785       10.678       12.302      138.897      114.021      151.346        0.160        0.020       52.156        9.001        0.030      330.259       -2.482      866.699
01/26/2014  05:58:00      -56.131       -6.269      -10.044        9.330        7.486        7.891       87.047       56.042       62.260        0.175        0.010       56.480        5.542        0.010      330.254       -2.492      866.700
01/26/2014  05:59:00      -42.510      -18.527      -10.821       10.935       13.391       10.745      119.569      179.317      115.450        0.134        0.021       46.372        4.935        0.011      330.313       -2.394      866.698
01/26/2014  06:00:00      -48.674      -11.982      -19.136        8.149       12.561        9.202       66.411      157.772       84.685        0.159        0.015       50.127        4.079        0.007      330.276       -2.454      866.692
01/26/2014  06:01:00      -39.112      -17.477      -11.965        6.574        9.916        6.130       43.214       98.331       37.581        0.108        0.009       42.839        2.978        0.005      330.261       -2.479      866.688
01/26/2014  06:02:00      -24.706      -11.069        0.592        9.541        8.293        6.816       91.023       68.782       46.463        0.047        0.010       27.072        2.925        0.012      330.439       -2.188      866.689
01/26/2014  06:03:00      -22.305       -1.604        1.051        9.676        9.857        6.145       93.629       97.152       37.767        0.036        0.011       22.363        3.215        0.021      330.534       -2.032      866.684
01/26/2014  06:04:00      -25.989      -24.464       -7.727       16.289       12.777        7.108      265.329      163.256       50.524        0.091        0.024       35.692        5.368        0.023      330.531       -2.036      866.679
01/26/2014  06:05:00      -13.199      -17.098       -7.648       10.662       13.299       10.085      113.684      176.862      101.708        0.046        0.020       21.600        9.616        0.198      330.430       -2.202      866.675
01/26/2014  06:06:00      -46.417      -16.352       -6.244       13.582        8.542        8.143      184.482       72.959       66.315        0.139        0.016       49.213        4.341        0.008      330.241       -2.513      866.666
01/26/2014  06:07:00      -58.185      -15.110      -11.574        9.803        8.121        8.845       96.093       65.952       78.231        0.199        0.012       60.115        5.920        0.010      330.079       -2.779      866.666
01/26/2014  06:08:00      -56.843      -23.940      -15.832        8.303        8.941        5.719       68.943       79.947       32.708        0.212        0.009       61.679        2.430        0.002      330.143       -2.674      866.673
01/26/2014  06:09:00      -73.982       -7.150      -14.708       14.588       10.204        7.869      212.810      104.114       61.917        0.306        0.019       74.327        3.382        0.002      330.057       -2.813      866.683
01/26/2014  06:10:00      -75.957      -12.523      -15.348       10.413       10.447        8.748      108.420      109.137       76.533        0.323        0.015       76.983        3.030        0.002      330.017       -2.878      866.696
01/26/2014  06:11:00      -73.377      -15.228      -11.088       10.297       15.587        8.859      106.025      242.948       78.474        0.308        0.021       74.940        2.972        0.002      329.998       -2.910      866.715
01/26/2014  06:12:00      -63.921      -10.697       -9.041        8.442        8.390        7.870       71.260       70.398       61.935        0.224        0.010       64.810        3.537        0.003      329.995       -2.915      866.729
01/26/2014  06:13:00      -66.775       -4.543      -12.072        9.935       11.543        9.461       98.712      133.230       89.510        0.247        0.016       66.929        6.123        0.008      330.007       -2.895      866.751
01/26/2014  06:14:00      -71.764       -8.122      -11.751       10.707        9.432        9.506      114.633       88.964       90.362        0.282        0.015       72.223        5.425        0.006      330.080       -2.776      866.758
01/26/2014  06:15:00      -77.054       -4.388      -12.929       10.830        7.402        8.437      117.289       54.790       71.184        0.318        0.012       77.179        4.262        0.003      330.009       -2.894      866.765
01/26/2014  06:16:00      -71.440      -14.164      -12.194       12.187       11.927       11.268      148.532      142.255      126.965        0.294        0.021       72.831        9.402        0.017      330.018       -2.879      866.768
01/26/2014  06:17:00      -82.272      -17.209      -14.090       11.473       10.551        8.784      131.630      111.331       77.159        0.379        0.016       84.052        6.247        0.006      329.998       -2.912      866.768
01/26/2014  06:18:00      -80.965       -6.871      -15.081        9.311        7.644        7.703       86.699       58.436       59.342        0.352        0.010       81.256        4.789        0.003      330.017       -2.880      866.775
01/26/2014  06:19:00      -90.266      -20.417      -14.574       21.640       17.054       11.725      468.278      290.836      137.473        0.484        0.045       92.546        7.244        0.006      329.969       -2.956      866.769
01/26/2014  06:20:00      -67.178      -19.154      -13.377       13.257       14.211       11.526      175.737      201.945      132.844        0.278        0.026       69.855        9.031        0.017      330.023       -2.871      866.770
01/26/2014  06:21:00      -64.447      -13.840      -16.207       13.829       12.775       11.933      191.238      163.192      142.388        0.255        0.025       65.916        6.862        0.011      330.085       -2.767      866.763
01/26/2014  06:22:00      -92.336      -12.321      -12.330       28.050       17.150       13.188      786.816      294.128      173.931        0.504        0.063       93.155       14.350        0.024      330.050       -2.823      866.765
01/26/2014  06:23:00     -112.005      -13.998      -18.876       30.240       15.543       14.606      914.453      241.590      213.327        0.723        0.068      112.876       11.783        0.011      329.887       -3.091      866.773
01/26/2014  06:24:00     -127.407       -6.511      -19.785       11.947        8.650        9.128      142.737       74.830       83.323        0.848        0.015      127.573        4.812        0.001      329.916       -3.046      866.780
01/26/2014  06:25:00     -119.889       -2.494      -15.506       23.483       14.210       11.396      551.433      201.922      129.880        0.775        0.044      119.915        8.492        0.005      329.912       -3.052      866.793
01/26/2014  06:26:00     -119.058      -12.840      -19.224       12.955       14.336       11.407      167.822      205.532      130.111        0.761        0.025      119.748        2.919        0.001      329.928       -3.027      866.811
01/26/2014  06:27:00     -114.778      -15.683      -14.312       12.198       12.774        8.831      148.800      163.181       77.983        0.701        0.019      115.845        3.269        0.001      329.922       -3.035      866.802
01/26/2014  06:28:00     -113.681      -24.706      -14.092       18.782       16.914       11.137      352.761      286.084      124.038        0.725        0.038      116.335        7.657        0.004      329.949       -2.991      866.801
01/26/2014  06:29:00     -121.151      -10.922      -12.577       22.082       18.304       15.730      487.633      335.024      247.431        0.801        0.054      121.642       13.563        0.012      330.018       -2.879      866.796
01/26/2014  06:30:00      -91.281      -13.412       -3.943       32.779       22.913       19.014     1074.452      525.011      361.539        0.524        0.098       92.261       18.663        0.041      330.014       -2.883      866.792
01/26/2014  06:31:00      -76.802      -14.666        2.101       32.211       21.871       21.346     1037.523      478.361      455.640        0.404        0.099       78.190       19.695        0.063      329.956       -2.979      866.777
01/26/2014  06:32:00      -92.150       -9.868        1.454       28.391       16.584       14.597      806.027      275.017      213.086        0.494        0.065       92.677       14.415        0.024      329.986       -2.930      866.756
01/26/2014  06:33:00     -122.441      -18.454       -5.614       19.376       14.208       12.626      375.421      201.857      159.403        0.805        0.037      123.824        9.601        0.006      330.015       -2.882      866.748
01/26/2014  06:34:00     -113.862      -16.035      -13.651       14.651       14.780       12.134      214.647      218.446      147.228        0.699        0.029      114.985        8.898        0.006      329.997       -2.911      866.747
01/26/2014  06:35:00      -98.365      -10.624       -9.141       20.038       15.173       14.013      401.513      230.213      196.359        0.535        0.041       98.937       11.585        0.014      330.021       -2.870      866.744
01/26/2014  06:36:00     -105.091      -10.034       -6.397       25.651       15.024       15.055      657.978      225.711      226.662        0.615        0.056      105.569       13.565        0.017      330.085       -2.768      866.742
01/26/2014  06:37:00     -105.144      -22.126      -13.615       16.758       16.026       10.949      280.840      256.825      119.887        0.619        0.033      107.447       11.697        0.012      330.040       -2.841      866.737
01/26/2014  06:38:00      -87.122      -52.764       -8.819       28.554       23.826       17.078      815.328      567.668      291.642        0.606        0.084      101.854       14.393        0.020      330.000       -2.908      866.750
01/26/2014  06:39:00     -115.475      -52.824      -12.649       18.514       22.626       14.127      342.771      511.952      199.571        0.867        0.053      126.984       12.514        0.010      329.910       -3.055      866.753
01/26/2014  06:40:00     -127.542      -43.735       -9.450       22.412       18.181       14.062      502.282      330.546      197.743        0.965        0.052      134.833       13.530        0.010      329.853       -3.146      866.761
01/26/2014  06:41:00     -134.020      -37.810      -27.577       16.445       20.287       13.600      270.426      411.571      184.950        1.051        0.043      139.251        5.461        0.002      329.850       -3.152      866.767
01/26/2014  06:42:00      -88.295      -52.342      -15.993       41.302       19.504       13.740     1705.862      380.425      188.785        0.653        0.114      102.644       16.017        0.024      329.873       -3.116      866.778
01/26/2014  06:43:00      -95.549      -20.214      -14.959       18.612       28.154       19.910      346.408      792.635      396.423        0.565        0.077       97.664       12.410        0.016      329.891       -3.087      866.799
01/26/2014  06:44:00      -90.761      -14.465      -10.965       18.868       25.755       15.815      356.004      663.338      250.128        0.492        0.063       91.907       11.071        0.015      329.881       -3.102      866.816
01/26/2014  06:45:00     -113.006      -25.318      -10.441       28.936       30.869       19.299      837.303      952.872      372.467        0.784        0.108      115.807       17.674        0.023      329.857       -3.143      866.821
01/26/2014  06:46:00     -111.655       -0.886      -10.527       35.965       28.269       18.863     1293.479      799.119      355.810        0.751        0.122      111.659       13.462        0.015      329.896       -3.077      866.816
01/26/2014  06:47:00     -101.363      -15.617       -5.519       32.924       23.033       18.692     1083.990      530.538      349.402        0.626        0.098      102.559       16.937        0.027      329.891       -3.088      866.810
01/26/2014  06:48:00      -83.470      -17.631       -3.949       37.118       35.578       20.292     1377.770     1265.811      411.773        0.517        0.153       85.312       17.737        0.043      329.869       -3.123      866.803
01/26/2014  06:49:00     -149.932        7.285       -7.639       48.422       27.762       25.018     2344.695      770.727      625.907        1.317        0.187      150.109       20.543        0.019      329.859       -3.139      866.810
01/26/2014  06:50:00     -115.139       -5.031       -8.816       49.670       26.275       21.847     2467.119      690.389      477.294        0.850        0.182      115.248       24.159        0.044      329.783       -3.260      866.811
01/26/2014  06:51:00     -102.290      -17.446       -1.767       24.109       27.398       19.925      581.229      750.642      397.016        0.625        0.086      103.767       16.473        0.025      329.768       -3.288      866.806
01/26/2014  06:52:00      -67.218       -6.759       -6.168       27.791       25.506       11.628      772.362      650.549      135.199        0.308        0.078       67.557       10.339        0.023      329.810       -3.217      866.807
01/26/2014  06:53:00      -46.147       -5.570       -8.987       16.619       15.178       12.474      276.188      230.385      155.607        0.145        0.033       46.482        9.546        0.042      329.815       -3.210      866.818
01/26/2014  06:54:00      -82.476       -7.104       -0.275       40.199       29.040       19.536     1615.950      843.304      381.667        0.485        0.142       82.781       19.268        0.054      329.832       -3.182      866.820
01/26/2014  06:55:00      -49.704       -8.990       -2.631       39.641       27.154       14.747     1571.431      737.349      217.488        0.254        0.126       50.510       12.689        0.063      329.846       -3.158      866.816
01/26/2014  06:56:00      -69.051      -27.973       -3.200       24.925       25.800       16.868      621.262      665.637      284.519        0.357        0.079       74.502       10.712        0.021      329.874       -3.113      866.816
01/26/2014  06:57:00      -52.922      -12.444      -14.736       14.648       14.096       13.488      214.567      198.693      181.921        0.188        0.030       54.366        5.204        0.009      329.796       -3.242      866.822
01/26/2014  06:58:00      -63.921      -15.580      -14.614       17.851       13.002       15.434      318.641      169.057      238.222        0.263        0.036       65.792        7.630        0.013      329.844       -3.163      866.826
01/26/2014  06:59:00      -90.620      -26.469       -9.337       18.741       16.392       13.138      351.225      268.698      172.605        0.490        0.040       94.407        8.436        0.008      329.818       -3.205      866.835
01/26/2014  07:00:00      -88.297      -37.631       -9.629       20.979       15.976       16.222      440.099      255.229      263.167        0.513        0.048       95.982       11.417        0.014      329.821       -3.201      866.834
01/26/2014  07:01:00     -103.555      -36.838      -11.727       24.434       19.697       11.631      597.024      387.956      135.286        0.667        0.056      109.912        8.676        0.006      329.778       -3.269      866.832
01/26/2014  07:02:00     -104.161      -14.548       -8.163       33.157       18.298       17.841     1099.413      334.809      318.284        0.644        0.088      105.172       17.299        0.027      329.764       -3.293      866.835
01/26/2014  07:03:00      -71.129      -15.313      -11.220       36.922       23.573       25.213     1363.213      555.705      635.670        0.399        0.128       72.759       21.745        0.089      329.952       -2.986      866.836
01/26/2014  07:04:00      -58.795      -19.466       -6.957       18.053       19.479       11.946      325.927      379.422      142.717        0.237        0.042       61.934       10.142        0.027      329.908       -3.058      866.840
01/26/2014  07:05:00      -76.353      -15.774       -5.934       31.029       16.050       12.643      962.806      257.615      159.848        0.375        0.069       77.966       13.579        0.030      329.852       -3.149      866.851
01/26/2014  07:06:00      -80.142      -28.426       -7.605       10.546       14.509        8.795      111.212      210.505       77.359        0.384        0.020       85.034        5.371        0.004      329.858       -3.140      866.850
01/26/2014  07:07:00      -76.828      -34.834      -21.698       15.863       16.170       12.224      251.634      261.480      149.423        0.412        0.033       84.356        9.686        0.013      329.902       -3.067      866.840
01/26/2014  07:08:00      -89.064      -41.415      -20.639       17.930       11.139       12.489      321.479      124.069      155.969        0.534        0.030       98.222        5.957        0.004      329.815       -3.210      866.834
01/26/2014  07:09:00     -104.470       -9.784      -14.619       19.052       18.851       11.831      362.983      355.351      139.972        0.604        0.043      104.927        8.400        0.006      329.838       -3.171      866.827
01/26/2014  07:10:00     -108.764       -1.090      -13.696       17.808       14.174       12.583      317.138      200.911      158.321        0.635        0.034      108.769        3.702        0.001      329.910       -3.056      866.829
01/26/2014  07:11:00      -99.517        2.530      -12.000       18.864        9.200       11.127      355.847       84.639      123.806        0.531        0.028       99.549       10.855        0.012      329.943       -3.001      866.843
01/26/2014  07:12:00      -96.620        2.051      -11.930       14.174        7.414       10.158      200.909       54.965      103.190        0.492        0.018       96.641        6.706        0.005      330.048       -2.829      866.848
01/26/2014  07:13:00      -95.742       -3.088      -12.529       12.984       14.652       11.705      168.597      214.687      136.997        0.493        0.026       95.792        6.891        0.005      330.002       -2.903      866.858
01/26/2014  07:14:00      -77.518       -0.387      -12.648       24.105        9.867       11.199      581.070       97.357      125.422        0.349        0.040       77.519        9.117        0.014      329.950       -2.990      866.854
01/26/2014  07:15:00      -92.368       -7.512      -13.932       24.242       12.976       12.913      587.665      168.373      166.734        0.485        0.046       92.673       12.711        0.019      329.933       -3.018      866.846
01/26/2014  07:16:00     -125.956        0.163      -21.583       12.997        9.120       10.295      168.917       83.168      105.988        0.834        0.018      125.956        5.865        0.002      329.976       -2.946      866.843
01/26/2014  07:17:00     -116.259        2.125      -17.286       15.402        8.840       10.418      237.220       78.145      108.531        0.712        0.021      116.279        2.180        0.000      330.000       -2.906      866.859
01/26/2014  07:18:00     -100.872       -0.940      -10.983       21.170       10.207       13.572      448.170      104.189      184.187        0.552        0.037      100.876       11.969        0.014      329.969       -2.957      866.869
01/26/2014  07:19:00     -102.460       -1.978      -14.967       19.171       11.849       11.146      367.544      140.398      124.232        0.568        0.032      102.479        5.995        0.003      329.953       -2.984      866.882
01/26/2014  07:20:00      -87.330       -3.991       -5.908       24.402       18.891       11.515      595.463      356.860      132.591        0.438        0.054       87.421       12.625        0.021      329.891       -3.085      866.887
01/26/2014  07:21:00      -65.953       -3.170      -10.973       25.299       19.180       14.557      640.058      367.888      211.897        0.285        0.061       66.029       14.159        0.046      329.889       -3.088      866.887
01/26/2014  07:22:00      -89.268      -16.524      -18.512       17.741       23.473       13.254      314.736      550.960      175.670        0.481        0.052       90.784        7.408        0.007      329.843       -3.164      866.884
01/26/2014  07:23:00      -79.317      -15.404       -6.079       23.877       18.345       11.813      570.105      336.537      139.545        0.381        0.052       80.799        8.472        0.011      329.759       -3.302      866.876
01/26/2014  07:24:00      -48.290       -6.946       -9.163       23.408       15.243       18.687      547.911      232.337      349.189        0.180        0.056       48.787       18.223        0.140      329.860       -3.136      866.881
01/26/2014  07:25:00      -69.756      -17.761       -6.956       27.870       12.797       13.099      776.749      163.768      171.586        0.317        0.056       71.982       15.147        0.044      329.938       -3.008      866.879
01/26/2014  07:26:00      -76.571      -28.885      -20.108       12.329       15.294        9.139      151.996      233.919       83.519        0.379        0.023       81.839        1.959        0.001      329.875       -3.113      866.885
01/26/2014  07:27:00      -72.482      -27.097      -15.017       18.508       12.897        9.019      342.549      166.337       81.344        0.340        0.030       77.381        6.514        0.007      329.810       -3.218      866.894
01/26/2014  07:28:00      -67.172      -20.143      -18.746       21.367       16.144       12.225      456.563      260.628      149.454        0.307        0.043       70.127       11.663        0.028      329.841       -3.168      866.900
01/26/2014  07:29:00      -81.115       -8.759      -12.881       12.731       10.397        9.871      162.077      108.105       97.427        0.359        0.018       81.587        5.487        0.005      329.842       -3.165      866.902
01/26/2014  07:30:00      -72.542      -40.210      -12.937       17.556       22.168       15.654      308.205      491.413      245.060        0.405        0.052       82.941        9.363        0.013      329.819       -3.202      866.913
01/26/2014  07:31:00      -85.941      -10.537      -12.091       11.086       13.715        9.600      122.901      188.088       92.169        0.402        0.020       86.585        4.906        0.003      329.777       -3.270      866.918
01/26/2014  07:32:00      -54.528      -32.341       -9.395       19.606       18.059       15.239      384.376      326.114      232.231        0.252        0.047       63.398       10.516        0.028      329.780       -3.266      866.917
01/26/2014  07:33:00      -77.351      -25.150       -8.151       13.130       20.451       12.090      172.398      418.237      146.163        0.371        0.037       81.337       11.658        0.021      329.807       -3.223      866.913
01/26/2014  07:34:00      -54.141      -19.454       -8.241       12.423       13.793       10.521      154.323      190.251      110.686        0.192        0.023       57.530        6.518        0.013      329.815       -3.210      866.905
01/26/2014  07:35:00      -53.473      -17.732       -2.612       11.778       17.020        9.862      138.720      289.693       97.267        0.185        0.026       56.336        6.181        0.012      329.811       -3.218      866.897
01/26/2014  07:36:00      -50.923       -1.435       -6.659       11.799        8.167        7.381      139.206       66.695       54.479        0.145        0.013       50.943        5.444        0.011      329.851       -3.151      866.886
01/26/2014  07:37:00      -30.370        6.313      -10.443        6.289        5.498        6.308       39.547       30.224       39.793        0.059        0.005       31.020        3.687        0.014      330.005       -2.900      866.880
01/26/2014  07:38:00      -34.013       -5.344      -10.443        7.125        7.420        6.395       50.767       55.060       40.891        0.072        0.007       34.431        4.028        0.014      330.090       -2.760      866.892
01/26/2014  07:39:00      -42.044       -7.105       -4.101       10.451       10.802        9.684      109.232      116.690       93.772        0.108        0.016       42.641        3.125        0.005      330.063       -2.803      866.905
01/26/2014  07:40:00      -36.852      -16.473       -6.201        6.867        5.623        5.921       47.161       31.615       35.061        0.089        0.006       40.366        2.339        0.003      330.055       -2.817      866.907
01/26/2014  07:41:00      -22.129      -15.621       -4.843       11.304       10.405        6.643      127.774      108.269       44.130        0.052        0.014       27.087        2.678        0.010      330.246       -2.505      866.906
01/26/2014  07:42:00      -25.817      -10.464       -3.895        9.970        7.121        7.718       99.397       50.705       59.564        0.050        0.010       27.857        5.492        0.039      330.123       -2.705      866.918
01/26/2014  07:43:00      -30.008      -17.268       -6.577       11.187        9.562        7.501      125.158       91.439       56.271        0.076        0.014       34.622        5.085        0.022      330.148       -2.666      866.915
01/26/2014  07:44:00      -31.129      -13.879       -7.243        7.623        7.855        6.421       58.103       61.694       41.227        0.069        0.008       34.083        3.631        0.011      330.146       -2.669      866.927
01/26/2014  07:45:00       -2.004       11.453        0.488       14.380       20.572       10.163      206.774      423.192      103.288        0.043        0.037       11.627        9.057        0.607      330.476       -2.127      866.920
01/26/2014  07:46:00       -9.910       -2.396        7.160        8.954        5.012        7.382       80.178       25.117       54.495        0.016        0.008       10.195        5.424        0.283      330.660       -1.824      866.925
01/26/2014  07:47:00        1.382        1.457       14.716       13.967        9.093       12.738      195.064       82.686      162.268        0.033        0.022        2.008        7.539       14.102      330.839       -1.532      866.920
01/26/2014  07:48:00       14.118        9.825       14.086       24.668       11.414       12.445      608.517      130.286      154.880        0.069        0.045       17.200        6.667        0.150      330.793       -1.606      866.917
01/26/2014  07:49:00       15.360       10.206        4.521       24.011       13.855       14.191      576.532      191.969      201.371        0.067        0.048       18.441        8.891        0.232      330.813       -1.574      866.918
01/26/2014  07:50:00       39.429       28.369        4.772       18.700       15.753       17.400      349.702      248.149      302.748        0.164        0.045       48.574       11.484        0.056      330.732       -1.707      866.913
01/26/2014  07:51:00       24.619       33.204        1.025       23.466       17.350       17.323      550.662      301.030      300.089        0.143        0.058       41.335       12.314        0.089      330.816       -1.567      866.911
01/26/2014  07:52:00       33.418       21.370        4.222       25.243       16.093       13.454      637.205      258.969      181.015        0.133        0.054       39.667        9.801        0.061      330.787       -1.616      866.905
01/26/2014  07:53:00       24.225       31.183        2.232       14.482       21.056       19.319      209.735      443.344      373.213        0.130        0.051       39.487       15.653        0.157      330.798       -1.599      866.894
01/26/2014  07:54:00       26.383       28.249        4.712       19.264       17.816       16.592      371.084      317.417      275.286        0.124        0.048       38.653       12.827        0.110      330.866       -1.488      866.879
01/26/2014  07:55:00       22.018       34.978        5.456       15.473       20.495       15.018      239.420      420.042      225.528        0.131        0.044       41.331       15.463        0.140      330.856       -1.503      866.880
01/26/2014  07:56:00       16.748       19.224        4.589       16.198       14.562       17.589      262.384      212.057      309.380        0.073        0.039       25.496       13.118        0.265      330.959       -1.334      866.878
01/26/2014  07:57:00       32.912       36.583       -2.008       13.125       21.279       16.367      172.260      452.788      267.875        0.166        0.045       49.209       14.778        0.090      330.885       -1.456      866.870
01/26/2014  07:58:00       39.154       28.417        3.393       16.071       11.952       15.971      258.276      142.856      255.081        0.150        0.033       48.380        9.539        0.039      330.902       -1.428      866.859
01/26/2014  07:59:00       44.003       27.093       -5.351       12.952        8.294       12.141      167.746       68.786      147.395        0.154        0.019       51.675        3.817        0.005      330.913       -1.410      866.860
01/26/2014  08:00:00       46.464       17.246        6.469       19.161       14.560       14.080      367.139      211.993      198.259        0.164        0.039       49.562        7.738        0.024      330.934       -1.375      866.865
01/26/2014  08:01:00       50.936       36.567        6.373       26.277       16.242       16.941      690.459      263.808      286.988        0.261        0.062       62.703       16.284        0.067      330.906       -1.422      866.877
01/26/2014  08:02:00       56.223       47.261        3.302       13.000       19.447       15.945      168.987      378.198      254.234        0.310        0.040       73.448        5.714        0.006      330.890       -1.448      866.875
01/26/2014  08:03:00       26.457       40.171       23.362       20.720       16.238       20.125      429.337      263.658      405.011        0.198        0.055       48.101       14.972        0.097      331.040       -1.202      866.876
01/26/2014  08:04:00       23.687       23.756       20.580       16.282       20.707       15.404      265.103      428.776      237.298        0.124        0.047       33.547       13.259        0.156      331.146       -1.028      866.872
01/26/2014  08:05:00       35.794       30.354       11.374       16.566       18.561       22.993      274.432      344.498      528.700        0.174        0.057       46.931       14.538        0.096      331.084       -1.128      866.877
01/26/2014  08:06:00       35.616       29.604        9.649       15.014       18.183       16.394      225.421      330.626      268.755        0.153        0.041       46.313        7.972        0.030      331.115       -1.077      866.899
01/26/2014  08:07:00       23.844       20.958       18.372       23.808       17.177       17.315      566.805      295.064      299.807        0.125        0.058       31.746       12.916        0.166      331.336       -0.714      866.912
01/26/2014  08:08:00       69.451       35.098       -3.032        9.970       12.244       11.832       99.405      149.909      139.987        0.323        0.019       77.816        3.491        0.002      330.979       -1.301      866.915
01/26/2014  08:09:00       56.763       41.430       -2.447       21.439       20.283       13.646      459.627      411.410      186.200        0.300        0.053       70.275       11.190        0.025      331.050       -1.185      866.912
01/26/2014  08:10:00       61.689       32.637        8.392       16.077       22.057       15.737      258.468      486.506      247.658        0.297        0.050       69.790       10.905        0.024      331.079       -1.139      866.899
01/26/2014  08:11:00       46.156       30.993        2.833       22.082       18.199       16.079      487.619      331.205      258.534        0.209        0.054       55.596       11.914        0.046      331.182       -0.969      866.889
01/26/2014  08:12:00       48.309       37.270        6.976       18.755       15.478       17.462      351.734      239.556      304.910        0.233        0.045       61.015        7.763        0.016      331.206       -0.927      866.877
01/26/2014  08:13:00       65.183       55.320        6.942       19.686       14.022       13.578      387.519      196.624      184.356        0.406        0.038       85.493        6.952        0.007      331.106       -1.092      866.869
01/26/2014  08:14:00       50.901       55.937       29.180       31.069       23.184       22.521      965.296      537.483      507.195        0.429        0.100       75.630       16.283        0.046      331.262       -0.837      866.855
01/26/2014  08:15:00       68.170       68.984       36.957       47.914       28.895       30.927     2295.792      834.910      956.491        0.743        0.204       96.984       16.418        0.029      331.272       -0.819      866.845
01/26/2014  08:16:00       45.871       27.628       32.759       45.717       41.888       34.322     2090.035     1754.577     1178.022        0.448        0.251       53.549       32.485        0.368      331.254       -0.848      866.832
01/26/2014  08:17:00       -4.811        1.561       39.046       16.287       37.886       27.149      265.265     1435.326      737.046        0.199        0.122        5.058       24.989       24.412      331.598       -0.283      866.824
01/26/2014  08:18:00       -2.104      -35.939       12.965       26.816       43.283       18.038      719.075     1873.420      325.371        0.219        0.146       36.001        8.527        0.056      331.412       -0.589      866.829
01/26/2014  08:19:00        1.857       10.612       49.793       14.033       48.484       20.356      196.916     2350.670      414.379        0.278        0.148       10.773       27.953        6.732      331.479       -0.481      866.825
01/26/2014  08:20:00       12.186       46.339       48.480       22.126       22.262       11.746      489.543      495.615      137.970        0.288        0.056       47.915       13.294        0.077      331.369       -0.660      866.829
01/26/2014  08:21:00       57.931       45.277       26.729       22.729       15.597       23.541      516.604      243.255      554.189        0.372        0.066       73.526       13.025        0.031      331.198       -0.943      866.826
01/26/2014  08:22:00       -3.217       40.612       54.983       21.368       28.561       32.565      456.586      815.704     1060.454        0.351        0.117       40.739       23.387        0.330      331.497       -0.449      866.817
01/26/2014  08:23:00       15.969       50.456       59.884       26.868       28.298       21.396      721.885      800.771      457.808        0.418        0.099       52.923       21.327        0.162      331.383       -0.638      866.816
01/26/2014  08:24:00       23.330       44.756       42.728       20.255       24.875       22.945      410.252      618.744      526.488        0.296        0.078       50.472       15.986        0.100      331.313       -0.751      866.814
01/26/2014  08:25:00       27.231       20.085       24.609       24.428       33.106       23.547      596.732     1096.005      554.444        0.200        0.112       33.836       17.238        0.260      331.402       -0.607      866.815
01/26/2014  08:26:00        6.527       38.004       58.941       21.356       23.774       11.039      456.079      565.192      121.857        0.305        0.057       38.561       11.050        0.082      331.559       -0.349      866.826
01/26/2014  08:27:00       36.918       46.600       35.060       33.506       28.941       33.354     1122.662      837.609     1112.506        0.392        0.154       59.451       21.442        0.130      331.383       -0.637      866.835
01/26/2014  08:28:00       35.964       51.935       50.963       21.391       22.121       15.386      457.558      489.325      236.739        0.389        0.059       63.171        9.108        0.021      331.372       -0.656      866.848
01/26/2014  08:29:00       64.985       38.098       19.755       14.085       17.296       20.698      198.386      299.144      428.397        0.350        0.046       75.329       11.958        0.025      331.202       -0.935      866.848
01/26/2014  08:30:00       40.426       47.633       34.049       22.218       17.078       21.526      493.648      291.671      463.355        0.316        0.062       62.475        9.511        0.023      331.379       -0.643      866.850
01/26/2014  08:31:00       38.153       41.137       17.766       15.183       13.443       21.070      230.522      180.705      443.929        0.216        0.043       56.106       11.657        0.043      331.317       -0.746      866.865
01/26/2014  08:32:00       35.729       43.924       27.546       17.367       15.964       19.127      301.617      254.864      365.830        0.244        0.046       56.620       11.602        0.042      331.442       -0.540      866.877
01/26/2014  08:33:00       32.465       40.616       38.330       18.699       16.081       13.476      349.639      258.590      181.610        0.248        0.039       51.997        7.546        0.021      331.467       -0.498      866.892
01/26/2014  08:34:00       36.932       34.823       12.650       17.855       12.097       17.107      318.785      146.329      292.640        0.175        0.038       50.760       10.505        0.043      331.386       -0.631      866.904
01/26/2014  08:35:00       13.268       12.071       13.124       19.562       18.549       18.501      382.682      344.050      342.279        0.078        0.053       17.937       15.158        0.714      331.810        0.066      866.917
01/26/2014  08:36:00       -1.152       26.246       33.834       13.451       23.279       14.033      180.925      541.903      196.937        0.138        0.046       26.271       14.241        0.294      332.052        0.464      866.929
01/26/2014  08:37:00       -9.635      -36.494       21.428       20.515       28.627       14.655      420.853      819.496      214.758        0.167        0.073       37.744       15.314        0.165      332.061        0.479      866.935
01/26/2014  08:38:00      -12.921      -16.479       -2.569       13.766       12.128       13.981      189.505      147.095      195.482        0.049        0.027       20.940        8.178        0.153      331.799        0.048      866.954
01/26/2014  08:39:00      -13.795       -6.614       -0.127        8.654       15.920        6.887       74.891      253.437       47.429        0.030        0.019       15.299        7.997        0.273      331.734       -0.061      866.962
01/26/2014  08:40:00       -5.256       15.827       27.653       11.131       17.110       13.398      123.906      292.751      179.507        0.082        0.030       16.677       10.428        0.391      332.492        1.191      866.967
01/26/2014  08:41:00       -3.669       24.247       36.635        5.716       15.372        7.684       32.676      236.292       59.050        0.114        0.016       24.523        6.294        0.066      332.335        0.931      866.960
01/26/2014  08:42:00       14.302       47.235       40.837       18.105       20.358       20.922      327.794      414.455      437.734        0.264        0.059       49.353       11.941        0.059      332.005        0.386      866.950
01/26/2014  08:43:00       37.102       62.254       23.806       22.442       13.545       18.646      503.629      183.469      347.666        0.343        0.052       72.471       13.532        0.035      331.857        0.143      866.938
01/26/2014  08:44:00       16.740       45.576       40.815       27.696       33.493       15.512      767.081     1121.767      240.615        0.308        0.106       48.553       14.471        0.089      332.157        0.637      866.934
01/26/2014  08:45:00      -13.552        6.943       24.329       13.979       18.245       13.895      195.426      332.890      193.066        0.077        0.036       15.227       10.081        0.438      332.360        0.973      866.935
01/26/2014  08:46:00      -18.487        4.015        9.953       10.615       10.619       10.395      112.687      112.755      108.066        0.040        0.017       18.918        7.674        0.165      332.202        0.712      866.938
01/26/2014  08:47:00      -13.101       13.008       29.848       14.119       11.914       14.383      199.344      141.935      206.869        0.089        0.027       18.462        8.538        0.214      332.684        1.506      866.948
01/26/2014  08:48:00      -15.051       -3.900       25.546       15.560       12.642       11.369      242.110      159.829      129.245        0.071        0.027       15.548       10.319        0.440      332.656        1.459      866.952
01/26/2014  08:49:00      -27.302       13.713       10.883       10.994       12.801       14.705      120.873      163.869      216.251        0.078        0.025       30.553        7.941        0.068      332.215        0.734      866.961
01/26/2014  08:50:00      -27.447       -2.241       -4.665       10.876       11.885        7.744      118.279      141.255       59.970        0.055        0.016       27.539        2.184        0.006      332.063        0.483      866.974
01/26/2014  08:51:00       -5.472        1.997        4.157        6.210        8.743       10.231       38.566       76.436      104.674        0.014        0.011        5.825        5.553        0.909      332.549        1.284      866.986
01/26/2014  08:52:00      -15.366       -2.732        6.573        7.396        6.585       11.790       54.694       43.363      139.003        0.026        0.012       15.607        8.644        0.307      332.527        1.247      866.985
01/26/2014  08:53:00      -11.437        3.039       -2.369       15.931        8.460        6.838      253.799       71.570       46.762        0.026        0.019       11.834        7.197        0.370      332.347        0.950      866.975
01/26/2014  08:54:00      -18.898        3.568        9.498        8.771       11.268       14.392       76.922      126.960      207.117        0.044        0.021       19.232       10.403        0.293      332.522        1.241      866.958
01/26/2014  08:55:00       -7.768        6.267       32.336       10.909       12.024       13.216      119.005      144.567      174.651        0.079        0.022        9.981        6.158        0.381      333.128        2.241      866.935
01/26/2014  08:56:00      -22.996        8.037       29.776       16.626       19.927       18.099      276.411      397.081      327.562        0.124        0.050       24.360       17.413        0.511      332.751        1.617      866.921
01/26/2014  08:57:00       -9.069        7.228       30.344       13.635       23.149       28.895      185.908      535.871      834.894        0.131        0.078       11.597       22.960        3.920      332.833        1.754      866.905
01/26/2014  08:58:00      -28.455       -2.560       -2.076       17.275       18.164        8.625      298.419      329.945       74.396        0.076        0.035       28.569        6.352        0.049      332.422        1.075      866.902
01/26/2014  08:59:00      -14.536      -11.744        9.830       15.867       17.963       17.391      251.754      322.665      302.433        0.066        0.044       18.688       15.802        0.715      332.753        1.621      866.887
01/26/2014  09:00:00      -10.133       21.377       56.803       13.125       20.760       14.149      172.272      430.982      200.200        0.229        0.040       23.657       12.370        0.273      333.211        2.379      866.874
01/26/2014  09:01:00       -2.749       45.677       64.566       13.523       24.592       17.469      182.884      604.768      305.173        0.368        0.055       45.760       14.150        0.096      332.698        1.530      866.849
01/26/2014  09:02:00        5.020       37.309       47.226       16.821       24.499       19.288      282.938      600.184      372.024        0.245        0.063       37.646        8.965        0.057      332.734        1.588      866.842
01/26/2014  09:03:00      -10.026       32.082       48.747       16.634       28.218       23.451      276.695      796.231      549.947        0.256        0.081       33.612       14.720        0.192      333.117        2.221      866.834
01/26/2014  09:04:00       -9.117       33.065       65.103       11.708       26.378       16.451      137.072      695.818      270.634        0.326        0.055       34.299       10.322        0.091      333.215        2.384      866.843
01/26/2014  09:05:00       36.432       55.635       38.995       29.243       34.404       29.840      855.140     1183.602      890.407        0.444        0.146       66.502       19.192        0.083      332.776        1.659      866.850
01/26/2014  09:06:00       11.193       26.094       36.786       28.383       27.286       17.818      805.593      744.506      317.483        0.201        0.093       28.393        5.618        0.039      333.195        2.352      866.863
01/26/2014  09:07:00       23.922       42.028       39.638       42.916       30.445       44.919     1841.767      926.901     2017.745        0.435        0.239       48.359       38.249        0.626      333.125        2.236      866.867
01/26/2014  09:08:00       26.698       71.645       72.494       36.544       38.135       45.333     1335.480     1454.252     2055.122        0.797        0.242       76.457       27.784        0.132      332.872        1.818      866.887
01/26/2014  09:09:00       -4.042       55.923       83.029       26.937       44.062       19.055      725.600     1941.496      363.103        0.653        0.152       56.069       20.625        0.135      333.034        2.085      866.898
01/26/2014  09:10:00        7.589       55.784       70.697       32.228       40.680       30.742     1038.674     1654.853      945.099        0.590        0.182       56.298       15.895        0.080      333.119        2.226      866.907
01/26/2014  09:11:00       -3.472       67.811       79.878       22.920       44.788       28.300      525.303     2005.924      800.913        0.716        0.167       67.900       31.090        0.210      333.056        2.122      866.910
01/26/2014  09:12:00        0.145       96.866      100.824       19.956       43.011       22.998      398.242     1849.928      528.887        1.116        0.139       96.866       24.719        0.065      332.847        1.776      866.914
01/26/2014  09:13:00       70.620      106.770       90.542       45.997       30.217       27.362     2115.712      913.070      748.676        1.418        0.189      128.012       28.345        0.049      332.632        1.421      866.914
01/26/2014  09:14:00       83.606      104.368       76.262       34.386       25.088       37.786     1182.422      629.418     1427.784        1.347        0.162      133.726       24.820        0.034      332.680        1.499      866.922
01/26/2014  09:15:00       66.696       75.069       72.649       39.989       42.327       35.856     1599.099     1791.617     1285.650        1.002        0.234      100.418       22.989        0.052      332.691        1.517      866.921
01/26/2014  09:16:00       37.005       93.679       89.835       35.272       35.170       24.222     1244.137     1236.929      586.692        1.064        0.153      100.723       20.691        0.042      332.739        1.599      866.921
01/26/2014  09:17:00       45.249       42.537       65.918       42.768       56.693       36.521     1829.115     3214.049     1333.812        0.729        0.319       62.104       40.800        0.432      332.807        1.711      866.919
01/26/2014  09:18:00       15.631       47.302       72.679       40.017       39.849       23.021     1601.383     1587.950      529.957        0.574        0.186       49.818       18.559        0.139      333.154        2.283      866.928
01/26/2014  09:19:00       67.197      139.485      103.773       42.188       25.191       31.553     1779.794      634.595      995.606        1.907        0.170      154.827       25.431        0.027      332.806        1.708      866.923
01/26/2014  09:20:00       79.829       85.294       65.001       42.284       38.143       46.207     1787.974     1454.912     2135.072        1.162        0.269      116.823       34.773        0.089      332.857        1.793      866.934
01/26/2014  09:21:00       76.580       65.631       45.062       43.625       30.053       34.524     1903.183      903.175     1191.912        0.810        0.200      100.856       22.809        0.051      332.817        1.726      866.935
01/26/2014  09:22:00       16.820       46.940       56.319       36.078       30.155       24.507     1301.630      909.315      600.571        0.423        0.141       49.862       19.145        0.147      333.315        2.550      866.947
01/26/2014  09:23:00       70.534       58.762       28.325       51.444       35.970       39.883     2646.484     1293.825     1590.636        0.738        0.277       91.804       37.708        0.169      333.286        2.502      866.951
01/26/2014  09:24:00       51.049       55.833       56.073       53.244       37.866       38.857     2834.938     1433.841     1509.886        0.732        0.289       75.653       33.867        0.200      333.364        2.631      866.962
01/26/2014  09:25:00       39.947       50.245       40.623       42.759       37.144       47.181     1828.293     1379.663     2226.064        0.560        0.272       64.190       36.563        0.324      333.387        2.669      866.967
01/26/2014  09:26:00       28.381       12.357       25.749       35.391       48.171       37.701     1252.500     2320.416     1421.399        0.331        0.250       30.954       16.681        0.290      333.485        2.831      866.970
01/26/2014  09:27:00       11.381       27.132       52.365       29.214       33.586       25.419      853.483     1128.049      646.135        0.312        0.131       29.422       18.908        0.413      333.455        2.781      866.975
01/26/2014  09:28:00        6.957       62.964       76.517       21.395       44.911       25.311      457.765     2017.032      640.624        0.649        0.156       63.347       22.269        0.124      333.537        2.919      866.974
01/26/2014  09:29:00       29.758       94.658       99.231       38.947       38.527       18.364     1516.854     1484.328      337.219        1.151        0.167       99.226       14.733        0.022      333.204        2.367      866.965
01/26/2014  09:30:00       70.682       79.995       50.677       40.699       22.120       21.805     1656.397      489.298      475.443        0.829        0.131      106.748       13.986        0.017      332.948        1.943      866.964
01/26/2014  09:31:00       38.991       58.239       45.863       38.535       32.903       30.744     1484.934     1082.635      945.173        0.526        0.176       70.086       24.312        0.120      333.392        2.676      866.951
01/26/2014  09:32:00       88.352       74.127       37.936       73.663       35.882       43.537     5426.275     1287.554     1895.488        1.167        0.430      115.330       45.241        0.154      333.358        2.620      866.951
01/26/2014  09:33:00       80.158       54.614        7.310       47.654       74.722       28.487     2270.920     5583.444      811.514        0.906        0.433       96.995       12.460        0.017      333.271        2.477      866.944
01/26/2014  09:34:00       -0.794       26.234       52.903       16.181       44.537       28.561      261.832     1983.564      815.747        0.327        0.153       26.246       28.463        1.176      333.932        3.573      866.935
01/26/2014  09:35:00       29.441       33.412       52.389       34.168       35.334       41.605     1167.474     1248.473     1730.956        0.444        0.207       44.532       28.061        0.397      333.709        3.202      866.926
01/26/2014  09:36:00       33.719       44.646       60.440       30.145       27.530       18.171      908.741      757.890      330.200        0.439        0.100       55.949       10.694        0.037      333.490        2.838      866.919
01/26/2014  09:37:00       78.186       58.921       49.156       46.695       38.006       38.040     2180.458     1444.425     1447.017        0.854        0.254       97.902       25.532        0.068      333.419        2.722      866.906
01/26/2014  09:38:00       31.635       25.900       19.733       52.500       41.377       26.465     2756.261     1712.025      700.390        0.361        0.258       40.885       25.328        0.384      333.701        3.189      866.906
01/26/2014  09:39:00       28.234       39.630       59.872       37.293       27.183       24.874     1390.737      738.920      618.713        0.435        0.137       48.659        7.938        0.027      333.927        3.562      866.905
01/26/2014  09:40:00        8.332       18.269       48.965       29.712       31.667       28.387      882.805     1002.793      805.804        0.275        0.135       20.079       21.799        1.179      334.240        4.081      866.908
01/26/2014  09:41:00        8.419       70.573       93.316       33.120       33.630       16.273     1096.958     1130.997      264.814        0.813        0.125       71.073       16.598        0.055      333.754        3.276      866.914
01/26/2014  09:42:00       69.320       76.076       62.373       27.240       25.002       22.281      741.997      625.088      496.424        0.817        0.093      102.922       16.587        0.026      333.253        2.447      866.919
01/26/2014  09:43:00       52.332       50.915       26.145       28.139       28.087       20.377      791.810      788.854      415.211        0.400        0.100       73.014       11.995        0.027      333.541        2.924      866.920
01/26/2014  09:44:00       32.351       22.512       33.809       30.724       21.639       14.798      943.985      468.263      218.972        0.216        0.082       39.412       14.273        0.131      334.160        3.949      866.914
01/26/2014  09:45:00       23.080       33.352       38.109       32.932       28.169       22.985     1084.494      793.508      528.301        0.275        0.120       40.559       20.279        0.250      334.360        4.281      866.910
01/26/2014  09:46:00        8.822       60.442       71.569       27.552       36.836       27.448      759.105     1356.919      753.399        0.586        0.143       61.082       24.034        0.155      334.194        4.006      866.898
01/26/2014  09:47:00       45.803       74.541       77.860       62.215       37.827       42.875     3870.704     1430.881     1838.286        1.043        0.357       87.488       36.628        0.175      334.080        3.817      866.886
01/26/2014  09:48:00      110.330       88.067       28.562       41.665       29.010       33.874     1735.948      841.574     1147.442        1.223        0.186      141.168       21.361        0.023      333.692        3.173      866.897
01/26/2014  09:49:00       83.830       66.003       22.571       38.505       28.175       28.289     1482.655      793.828      800.291        0.748        0.154      106.695       10.279        0.009      333.641        3.089      866.895
01/26/2014  09:50:00       63.197       72.352       49.302       40.935       33.274       30.869     1675.694     1107.127      952.885        0.770        0.187       96.066       19.737        0.042      334.037        3.745      866.890
01/26/2014  09:51:00       16.181       39.373       47.942       44.266       47.778       27.874     1959.521     2282.770      776.957        0.456        0.251       42.569       15.232        0.128      334.357        4.276      866.887
01/26/2014  09:52:00        3.731       49.576       79.762       29.221       47.270       28.724      853.865     2234.465      825.068        0.637        0.196       49.717       20.151        0.164      334.282        4.152      866.886
01/26/2014  09:53:00       64.927       65.863       77.555       26.779       25.903       32.893      717.120      670.960     1081.981        0.852        0.124       92.485       15.051        0.026      333.746        3.262      866.890
01/26/2014  09:54:00       31.285       56.528       55.343       38.501       31.216       25.318     1482.363      974.452      640.995        0.517        0.155       64.608       14.782        0.052      334.041        3.753      866.876
01/26/2014  09:55:00       12.572       13.975       61.902       24.523       34.318       19.197      601.386     1177.706      368.511        0.317        0.107       18.798       14.187        0.570      334.341        4.251      866.876
01/26/2014  09:56:00       31.788       35.363       36.934       26.460       27.186       36.218      700.156      739.069     1311.714        0.319        0.138       47.550       14.048        0.087      334.011        3.703      866.865
01/26/2014  09:57:00       -2.899       18.444       20.108       18.145       24.496       41.720      329.244      600.077     1740.522        0.171        0.133       18.671       16.452        0.776      334.325        4.223      866.868
01/26/2014  09:58:00       38.015      -30.992       20.076       41.590       56.450       37.587     1729.746     3186.548     1412.771        0.457        0.316       49.047       38.469        0.615      334.418        4.378      866.870
01/26/2014  09:59:00        2.487       31.926       74.612       28.772       60.557       36.147      827.837     3667.108     1306.580        0.620        0.290       32.023       45.052        1.979      334.663        4.784      866.863
01/26/2014  10:00:00       26.360       29.624       65.866       45.789       44.176       27.877     2096.593     1951.504      777.148        0.537        0.241       39.654       24.644        0.386      334.543        4.584      866.874
01/26/2014  10:01:00       40.796       83.903       97.575       51.195       43.799       23.209     2620.877     1918.340      538.676        1.165        0.254       93.295       19.846        0.045      334.212        4.035      866.888
01/26/2014  10:02:00       80.059       86.600       47.686       36.688       26.433       23.282     1345.987      698.714      542.034        0.938        0.129      117.936       12.154        0.011      333.963        3.623      866.908
01/26/2014  10:03:00        9.399       58.705       82.338       29.209       39.517       25.022      853.144     1561.605      626.085        0.668        0.152       59.453       23.999        0.163      334.313        4.203      866.916
01/26/2014  10:04:00       46.407       18.542       55.219       32.473       30.396       32.261     1054.491      923.929     1040.743        0.428        0.151       49.974       19.562        0.153      334.499        4.513      866.937
01/26/2014  10:05:00       14.320        4.079       20.023       19.028       41.207       32.446      362.072     1697.995     1052.714        0.187        0.156       14.890       30.103        4.087      334.413        4.371      866.946
01/26/2014  10:06:00       20.172       48.622       78.202       30.315       53.515       29.539      919.026     2863.849      872.566        0.677        0.233       52.641       32.386        0.379      334.769        4.959      866.939
01/26/2014  10:07:00       68.136      109.321       93.907       52.056       33.639       35.772     2709.814     1131.610     1279.667        1.527        0.256      128.816       27.656        0.046      334.158        3.946      866.938
01/26/2014  10:08:00       70.743       97.494       68.585       43.416       31.440       36.424     1884.916      988.481     1326.696        1.171        0.210      120.456       27.934        0.054      334.250        4.098      866.940
01/26/2014  10:09:00       24.503       86.009       85.497       41.937       45.839       36.550     1758.703     2101.233     1335.934        1.025        0.260       89.431       33.776        0.143      334.547        4.592      866.932
01/26/2014  10:10:00       75.703       68.734       66.254       46.478       39.171       32.888     2160.194     1534.350     1081.616        0.981        0.239      102.252       25.222        0.061      334.579        4.643      866.922
01/26/2014  10:11:00       86.610       59.559       28.950       27.402       36.092       39.925      750.872     1302.602     1593.971        0.777        0.182      105.112       32.724        0.097      334.110        3.866      866.919
01/26/2014  10:12:00       32.521      -11.905       28.167       31.434       51.368       39.314      988.095     2638.680     1545.596        0.358        0.259       34.632       34.919        1.017      334.647        4.756      866.905
01/26/2014  10:13:00       40.450       21.951       62.544       42.254       43.350       37.671     1785.440     1879.180     1419.083        0.556        0.254       46.022        7.699        0.028      334.934        5.236      866.884
01/26/2014  10:14:00       10.175       64.271       84.036       35.811       46.068       35.878     1282.453     2122.284     1287.207        0.799        0.235       65.072       33.465        0.264      334.902        5.180      866.889
01/26/2014  10:15:00       30.047      -38.691       34.097       51.212       75.768       49.498     2622.644     5740.796     2450.077        0.719        0.541       48.988       56.895        1.349      334.828        5.058      866.890
01/26/2014  10:16:00       49.510      -46.617       25.724       50.518       91.038       51.539     2552.081     8287.984     2656.292        0.939        0.675       68.003       63.602        0.875      334.872        5.132      866.879
01/26/2014  10:17:00        5.311       69.588       97.845       40.142       46.036       31.173     1611.392     2119.336      971.772        0.957        0.235       69.791       30.508        0.191      334.864        5.117      866.884
01/26/2014  10:18:00       58.551       45.478       82.116       38.957       56.497       35.751     1517.616     3191.899     1278.155        0.911        0.299       74.139       33.829        0.208      334.507        4.524      866.891
01/26/2014  10:19:00       89.432       64.031       35.883       57.834       49.751       42.060     3344.743     2475.199     1769.062        1.049        0.379      109.992       36.628        0.111      334.454        4.438      866.884
01/26/2014  10:20:00       73.800       80.006       51.060       49.872       42.432       30.952     2487.206     1800.438      958.008        0.985        0.262      108.846       23.282        0.046      334.599        4.677      866.884
01/26/2014  10:21:00       -1.381        6.266       36.316       27.498       37.298       30.806      756.119     1391.158      949.002        0.223        0.155        6.416       25.625       15.952      335.184        5.651      866.894
01/26/2014  10:22:00       38.679       -2.557       57.457       55.580       59.575       49.643     3089.187     3549.228     2464.456        0.695        0.455       38.763       42.930        1.227      335.291        5.827      866.886
01/26/2014  10:23:00       48.295       25.818       60.631       43.151       86.787       45.722     1862.016     7531.899     2090.483        0.908        0.574       54.763       56.329        1.058      334.627        4.724      866.899
01/26/2014  10:24:00       28.832       52.152       72.367       36.697       42.911       30.281     1346.688     1841.344      916.932        0.645        0.205       59.591       27.321        0.210      334.822        5.049      866.884
01/26/2014  10:25:00       76.885       55.286       48.019       54.244       46.267       36.919     2942.369     2140.628     1363.046        0.886        0.322       94.698       27.421        0.084      334.806        5.022      866.875
01/26/2014  10:26:00       68.245       76.660       78.372       47.139       50.396       46.224     2222.050     2539.730     2136.649        1.179        0.345      102.636       39.600        0.149      334.719        4.876      866.868
01/26/2014  10:27:00       21.071       56.677       72.061       41.817       35.408       22.948     1748.649     1253.701      526.615        0.619        0.176       60.467       15.264        0.064      335.180        5.643      866.864
01/26/2014  10:28:00       23.065       -5.108       43.648       30.110       41.422       28.462      906.641     1715.776      810.068        0.295        0.172       23.624       21.230        0.808      335.399        6.007      866.860
01/26/2014  10:29:00        7.153       11.371       59.891       27.816       59.604       29.364      773.705     3552.669      862.266        0.448        0.259       13.433       33.647        6.273      335.220        5.709      866.837
01/26/2014  10:30:00       78.216       88.965       16.760       46.844       32.507       46.124     2194.388     1056.681     2127.467        0.985        0.269      118.459       28.563        0.058      334.877        5.139      866.825
01/26/2014  10:31:00       42.047       50.898        2.022       42.470       33.944       32.865     1803.662     1152.201     1080.138        0.420        0.202       66.019       22.672        0.118      335.030        5.394      866.812
01/26/2014  10:32:00       41.162       91.995       94.141       61.254       47.037       37.385     3752.032     2212.515     1397.617        1.319        0.368      100.784       32.367        0.103      335.036        5.403      866.791
01/26/2014  10:33:00      121.813       81.323       53.154       39.883       43.198       36.058     1590.663     1866.036     1300.194        1.452        0.238      146.465       24.204        0.027      334.653        4.767      866.785
01/26/2014  10:34:00       38.016       59.843       66.792       45.119       39.519       32.275     2035.721     1561.720     1041.693        0.706        0.232       70.898       19.523        0.076      335.064        5.450      866.775
01/26/2014  10:35:00       21.717       39.252       81.337       30.526       38.924       17.776      931.813     1515.101      315.982        0.570        0.138       44.860       18.320        0.167      335.154        5.600      866.769
01/26/2014  10:36:00       30.461       30.344       73.612       33.553       28.364       20.498     1125.782      804.502      420.157        0.481        0.118       42.996       22.286        0.269      335.359        5.941      866.778
01/26/2014  10:37:00       31.365       12.913       54.058       29.891       30.551       19.095      893.483      933.354      364.601        0.313        0.110       33.919       19.008        0.314      335.317        5.870      866.772
01/26/2014  10:38:00       51.717       54.484       52.118       34.491       31.147       34.531     1189.642      970.139     1192.392        0.586        0.168       75.121       13.350        0.032      335.092        5.496      866.771
01/26/2014  10:39:00       86.158       93.763        6.128       28.236       25.642       24.033      797.268      657.510      577.595        0.914        0.102      127.337       20.604        0.026      334.768        4.958      866.768
01/26/2014  10:40:00       10.167       73.646       73.451       34.519       41.843       59.349     1191.567     1750.868     3522.315        0.869        0.323       74.345       44.432        0.357      335.052        5.431      866.762
01/26/2014  10:41:00       53.290       90.059       79.582       42.869       32.305       31.805     1837.780     1043.625     1011.559        1.059        0.195      104.645       22.959        0.048      335.033        5.398      866.757
01/26/2014  10:42:00       53.502       45.210       24.828       31.737       30.775       32.258     1007.259      947.095     1040.596        0.426        0.150       70.046       13.532        0.037      335.206        5.684      866.757
01/26/2014  10:43:00       42.671       55.942       84.699       63.688       55.148       49.175     4056.161     3041.256     2418.176        1.082        0.476       70.358       52.631        0.560      335.282        5.812      866.749
01/26/2014  10:44:00       33.195       21.834       52.436       44.329       36.608       29.020     1965.062     1340.128      842.134        0.424        0.207       39.732       29.939        0.568      335.574        6.300      866.749
01/26/2014  10:45:00       68.016       76.247       48.412       33.918       52.263       41.723     1150.437     2731.406     1740.841        0.920        0.281      102.176       35.806        0.123      335.311        5.861      866.748
01/26/2014  10:46:00       18.536      104.295      116.592       36.534       40.805       23.541     1334.721     1665.086      554.161        1.418        0.178      105.929       25.164        0.056      335.270        5.791      866.728
01/26/2014  10:47:00       95.303       90.786       55.774       40.928       21.970       39.331     1675.138      482.701     1546.922        1.207        0.185      131.623       34.747        0.070      335.037        5.404      866.729
01/26/2014  10:48:00       63.277       67.486       33.800       52.096       26.014       43.393     2713.968      676.717     1882.981        0.749        0.264       92.511       37.592        0.165      335.444        6.083      866.723
01/26/2014  10:49:00       36.495       51.958       62.157       40.130       39.486       23.446     1610.394     1559.177      549.730        0.581        0.186       63.494       20.291        0.102      335.610        6.359      866.718
01/26/2014  10:50:00       47.205       32.206       67.547       58.012       69.021       48.221     3365.346     4763.864     2325.273        0.914        0.523       57.145       49.771        0.759      335.772        6.628      866.713
01/26/2014  10:51:00       97.689       43.367       43.273       33.235       35.280       35.200     1104.589     1244.708     1239.046        0.844        0.179      106.882       15.433        0.021      335.225        5.718      866.704
01/26/2014  10:52:00       47.855       21.442       40.523       50.865       77.762       42.756     2587.254     6046.918     1828.101        0.743        0.523       52.439       41.497        0.626      335.678        6.472      866.681
01/26/2014  10:53:00       29.399      -25.088       36.524       47.189       81.031       50.867     2226.799     6566.048     2587.464        0.710        0.569       38.649       60.992        2.490      335.953        6.931      866.672
01/26/2014  10:54:00       33.654       43.703       91.296       43.956       61.458       35.200     1932.111     3777.122     1239.038        0.916        0.347       55.160       32.759        0.353      336.002        7.011      866.653
01/26/2014  10:55:00       39.476        2.719       22.624       27.621       42.671       35.888      762.904     1820.783     1287.973        0.297        0.194       39.570       24.828        0.394      335.559        6.272      866.645
01/26/2014  10:56:00       27.399       69.916       68.211       44.635       48.727       52.170     1992.311     2374.320     2721.673        0.869        0.354       75.093       40.003        0.284      335.706        6.517      866.611
01/26/2014  10:57:00       26.934       59.433       84.031       47.866       75.023       47.086     2291.148     5628.470     2217.073        1.073        0.507       65.251       53.742        0.678      335.798        6.671      866.580
01/26/2014  10:58:00       40.920      -24.401       42.947       39.311       52.447       43.860     1545.368     2750.720     1923.711        0.517        0.311       47.643       36.954        0.602      336.078        7.138      866.571
01/26/2014  10:59:00        9.497      -38.906       22.425       23.903       32.825       23.036      571.348     1077.498      530.638        0.214        0.109       40.048       12.900        0.104      335.966        6.952      866.545
01/26/2014  11:00:00       39.095       43.770       48.850       38.692       42.655       19.705     1497.048     1819.451      388.288        0.477        0.185       58.687       16.091        0.075      335.909        6.857      866.532
01/26/2014  11:01:00       61.134       56.702       52.067       24.836       27.814       35.693      616.823      773.644     1274.004        0.616        0.133       83.382       20.543        0.061      335.672        6.462      866.514
01/26/2014  11:02:00       86.346       48.878       42.591       41.345       52.937       51.220     1709.428     2802.331     2623.532        0.940        0.357       99.220       40.797        0.169      335.645        6.417      866.499
01/26/2014  11:03:00       65.990      141.262      111.811       54.535       48.613       49.327     2974.017     2363.239     2433.198        2.229        0.389      155.915       38.181        0.060      335.598        6.338      866.468
01/26/2014  11:04:00       86.842      147.761      100.118       39.795       29.146       38.768     1583.608      849.501     1502.966        2.167        0.197      171.390       23.461        0.019      335.522        6.210      866.456
01/26/2014  11:05:00       28.704       27.554       57.547       37.707       65.165       31.748     1421.841     4246.413     1007.936        0.578        0.334       39.789       30.004        0.569      335.893        6.830      866.447
01/26/2014  11:06:00       36.884        4.199       42.328       41.234       46.029       31.335     1700.216     2118.639      981.857        0.398        0.240       37.122       28.175        0.576      336.188        7.324      866.442
01/26/2014  11:07:00       65.956       11.334       29.437       48.489       41.472       46.824     2351.189     1719.952     2192.448        0.580        0.313       66.923       38.698        0.334      336.077        7.137      866.433
01/26/2014  11:08:00       81.601       41.687       21.595       52.969       44.852       41.157     2805.685     2011.723     1693.914        0.769        0.326       91.632       33.644        0.135      336.080        7.142      866.422
01/26/2014  11:09:00       79.913       68.203       36.065       53.237       43.849       42.593     2834.200     1922.770     1814.151        0.945        0.329      105.061       24.091        0.053      336.031        7.061      866.396
01/26/2014  11:10:00       78.157       73.890       27.512       54.936       43.292       50.883     3017.984     1874.223     2589.030        0.990        0.374      107.555       42.195        0.154      335.987        6.987      866.386
01/26/2014  11:11:00       21.328       67.730       99.020       37.952       45.494       26.400     1440.373     2069.681      696.948        0.953        0.210       71.009       23.881        0.113      336.188        7.323      866.358
01/26/2014  11:12:00       41.327       77.586       93.096       49.708       53.673       34.534     2470.912     2880.810     1192.623        1.147        0.327       87.907       29.078        0.109      336.016        7.034      866.339
01/26/2014  11:13:00       50.170       35.044       29.366       52.474       43.884       38.770     2753.560     1925.844     1503.089        0.539        0.309       61.197       26.021        0.181      336.012        7.029      866.317
01/26/2014  11:14:00       57.762       59.091       35.296       92.097       55.704       44.432     8481.878     3102.977     1974.240        1.081        0.678       82.633       56.154        0.462      336.501        7.844      866.287
01/26/2014  11:15:00      101.847       86.847       17.407       41.220       33.013       45.655     1699.069     1089.857     2084.396        1.154        0.244      133.848       24.324        0.033      336.144        7.248      866.252
01/26/2014  11:16:00       91.426       75.163       23.757       39.312       27.993       35.382     1545.395      783.605     1251.890        0.908        0.179      118.356       17.839        0.023      335.864        6.782      866.237
01/26/2014  11:17:00       73.071       61.283       18.155       40.710       33.700       27.358     1657.318     1135.694      748.439        0.648        0.177       95.367       12.298        0.017      336.003        7.014      866.215
01/26/2014  11:18:00       28.744       65.507       62.889       61.898       50.776       46.553     3831.350     2578.217     2167.144        0.882        0.429       71.536       36.238        0.257      336.395        7.668      866.192
01/26/2014  11:19:00       35.075      -11.020       45.537       46.531      108.084       34.749     2165.174    11682.239     1207.508        0.924        0.753       36.765       43.210        1.381      336.160        7.276      866.165
01/26/2014  11:20:00       45.139       58.455       89.827       48.817       49.407       23.785     2383.096     2441.004      565.745        0.946        0.269       73.855       13.565        0.034      336.295        7.501      866.158
01/26/2014  11:21:00       49.425       71.929       57.056       20.835       23.404       24.992      434.115      547.761      624.575        0.624        0.080       87.273        6.075        0.005      335.982        6.978      866.155
01/26/2014  11:22:00       77.450       79.439       36.078       30.777       23.886       26.251      947.219      570.539      689.125        0.791        0.110      110.946       15.827        0.020      335.936        6.901      866.136
01/26/2014  11:23:00       29.029       73.199       83.517       43.158       39.412       26.772     1862.623     1553.315      716.739        0.865        0.207       78.745       21.626        0.075      336.401        7.678      866.140
01/26/2014  11:24:00       59.216       52.070       22.663       40.701       48.435       44.098     1656.587     2345.903     1944.626        0.634        0.297       78.853       32.039        0.165      336.335        7.570      866.131
01/26/2014  11:25:00       12.303       51.421       42.722       45.135       38.803       36.160     2037.156     1505.654     1307.529        0.473        0.243       52.872       25.061        0.225      336.784        8.318      866.125
01/26/2014  11:26:00       57.424       38.541       20.823       43.691       48.477       41.469     1908.900     2350.059     1719.659        0.560        0.299       69.159       24.758        0.128      336.473        7.799      866.116
01/26/2014  11:27:00       47.044       52.111       22.342       39.620       38.491       39.082     1569.728     1481.565     1527.371        0.500        0.229       70.204       26.489        0.142      336.726        8.221      866.111
01/26/2014  11:28:00       35.293       53.669       62.082       31.717       35.355       30.030     1005.995     1249.943      901.810        0.557        0.158       64.234       25.017        0.152      336.611        8.030      866.096
01/26/2014  11:29:00       46.963       41.275       64.547       45.063       39.400       29.996     2030.705     1552.367      899.770        0.628        0.224       62.523       30.246        0.234      336.536        7.904      866.083
01/26/2014  11:30:00       40.311       78.201       90.977       43.094       37.418       20.232     1857.079     1400.127      409.346        0.984        0.183       87.979       18.525        0.044      336.489        7.825      866.052
01/26/2014  11:31:00       45.087       61.308       84.979       35.433       31.698       21.504     1255.513     1004.790      462.414        0.787        0.136       76.102       16.247        0.046      336.327        7.554      866.031
01/26/2014  11:32:00       39.152       78.083       86.904       39.863       43.127       34.876     1589.080     1859.919     1216.367        0.992        0.233       87.349       30.298        0.120      336.462        7.781      866.006
01/26/2014  11:33:00       99.799       39.996       51.534       54.164       52.476       49.823     2933.771     2753.732     2482.375        1.119        0.408      107.515       44.113        0.168      336.258        7.441      865.984
01/26/2014  11:34:00       68.793       22.355       56.400       50.578       42.026       36.909     2558.184     1766.201     1362.258        0.705        0.284       72.334       26.394        0.133      336.536        7.904      865.966
01/26/2014  11:35:00       67.562       49.988       28.602       29.315       32.410       30.179      859.387     1050.422      910.791        0.535        0.141       84.044       16.205        0.037      336.245        7.417      865.945
01/26/2014  11:36:00       14.736       27.776       21.722       23.440       22.259       15.469      549.429      495.441      239.278        0.137        0.064       31.443       11.447        0.133      336.745        8.253      865.921
01/26/2014  11:37:00       -9.363        6.511       48.597       14.921       30.454       19.840      222.622      927.476      393.635        0.202        0.077       11.404       18.256        2.563      337.256        9.106      865.896
01/26/2014  11:38:00       19.519       -0.036       43.910       29.484       28.940       30.213      869.329      837.547      912.834        0.246        0.131       19.519        6.666        0.117      337.172        8.967      865.878
01/26/2014  11:39:00        8.485       49.265       75.120       35.804       44.563       29.751     1281.912     1985.892      885.130        0.615        0.208       49.990       30.783        0.379      337.234        9.070      865.867
01/26/2014  11:40:00       62.577       24.333       51.527       57.422       48.762       40.483     3297.327     2377.759     1638.884        0.724        0.366       67.141       34.158        0.259      336.863        8.450      865.851
01/26/2014  11:41:00       85.401     -114.269        7.128       60.622       62.616       45.065     3675.016     3920.812     2030.899        1.501        0.481      142.655       43.123        0.091      336.578        7.974      865.823
01/26/2014  11:42:00       49.696        4.225       38.856       47.093       72.060       33.032     2217.781     5192.675     1091.093        0.625        0.425       49.875       19.658        0.155      336.872        8.465      865.805
01/26/2014  11:43:00       30.402       30.214       60.269       43.131       72.777       33.194     1860.311     5296.540     1101.843        0.686        0.413       42.862       41.407        0.933      336.899        8.510      865.779
01/26/2014  11:44:00       11.648       10.317       61.456       43.433       59.309       31.058     1886.445     3517.596      964.606        0.519        0.318       15.560       26.746        2.955      337.378        9.313      865.764
01/26/2014  11:45:00       76.100      111.126      100.887       60.944       49.026       34.891     3714.173     2403.502     1217.405        1.783        0.367      134.685       26.885        0.040      336.816        8.371      865.730
01/26/2014  11:46:00       70.532       90.635       99.624       59.534       53.313       37.464     3544.350     2842.230     1403.537        1.545        0.390      114.845       29.900        0.068      336.659        8.110      865.720
01/26/2014  11:47:00       71.850       87.081      104.158       78.753       66.190       59.940     6201.982     4381.105     3592.852        1.888        0.709      112.895       56.197        0.248      336.660        8.111      865.704
01/26/2014  11:48:00       74.211       37.340       13.863       60.376       36.180       37.841     3645.285     1308.983     1431.961        0.674        0.319       83.076       26.048        0.098      336.593        7.999      865.696
01/26/2014  11:49:00        8.111       24.713       29.533       45.039       45.427       32.594     2028.498     2063.624     1062.338        0.335        0.258       26.009       21.787        0.702      337.241        9.080      865.680
01/26/2014  11:50:00       10.269       54.910       91.579       39.613       58.648       32.247     1569.191     3439.535     1039.853        0.878        0.302       55.862       22.370        0.160      337.331        9.235      865.666
01/26/2014  11:51:00       55.127       98.992       85.993       72.305       43.108       44.644     5228.057     1858.288     1993.065        1.465        0.454      113.307       43.091        0.145      336.983        8.650      865.671
01/26/2014  11:52:00       71.242      105.521       76.475       65.053       40.057       42.506     4231.844     1604.583     1806.720        1.485        0.382      127.319       41.836        0.108      336.743        8.250      865.653
01/26/2014  11:53:00       34.542      115.862      116.376       49.338       47.909       36.526     2434.232     2295.307     1334.144        1.711        0.303      120.901       37.023        0.094      336.903        8.516      865.645
01/26/2014  11:54:00       47.115       59.759       61.057       60.737       45.420       46.299     3688.954     2062.964     2143.606        0.871        0.395       76.098       40.892        0.289      336.972        8.631      865.644
01/26/2014  11:55:00       32.509       31.173       13.176       20.133       18.371       25.506      405.354      337.492      650.565        0.180        0.070       45.040       15.664        0.121      336.661        8.114      865.634
01/26/2014  11:56:00       26.770        5.982       33.543       18.800       16.355       19.425      353.433      267.493      377.313        0.144        0.050       27.430        9.048        0.109      337.318        9.212      865.631
01/26/2014  11:57:00       11.572        1.844        9.989       17.198       15.879       12.829      295.786      252.152      164.594        0.047        0.036       11.718        7.998        0.466      337.243        9.086      865.616
01/26/2014  11:58:00       63.706       64.473       35.178       82.433       45.677       54.527     6795.157     2086.351     2973.190        1.065        0.593       90.638       52.683        0.338      337.110        8.864      865.600
01/26/2014  11:59:00       39.337      101.940       94.562       44.322       47.269       45.585     1964.466     2234.313     2078.002        1.358        0.314      109.267       28.193        0.067      337.139        8.911      865.570
01/26/2014  12:00:00       91.164       78.354       20.480       34.469       23.813       37.164     1188.086      567.068     1381.190        0.900        0.157      120.209       23.703        0.039      336.997        8.673      865.547
01/26/2014  12:01:00       13.768       71.923       85.173       46.710       44.681       33.770     2181.834     1996.417     1140.384        0.897        0.266       73.229       24.764        0.114      337.341        9.250      865.524
01/26/2014  12:02:00       44.977       42.973       27.583       34.755       35.827       47.352     1207.925     1283.594     2242.200        0.468        0.237       62.206       28.987        0.217      337.117        8.875      865.494
01/26/2014  12:03:00      -14.256       65.148       -8.503       34.504       30.041       27.798     1190.521      902.446      772.719        0.369        0.143       66.689        9.482        0.020      337.038        8.743      865.470
01/26/2014  12:04:00       29.114       -4.163       34.926       35.690       54.429       28.061     1273.762     2962.565      787.395        0.355        0.251       29.410       31.356        1.137      337.539        9.581      865.444
01/26/2014  12:05:00       51.184      -26.920       46.641       51.504      111.490       48.484     2652.641    12430.082     2350.735        1.147        0.872       57.831       62.452        1.166      337.162        8.951      865.402
01/26/2014  12:06:00       72.484      104.751       49.569       50.090       51.484       55.699     2508.984     2650.616     3102.396        1.347        0.413      127.384       30.886        0.059      337.163        8.951      865.386
01/26/2014  12:07:00      128.505       90.445       33.627       32.453       35.114       37.312     1053.206     1232.995     1392.211        1.475        0.184      157.143       18.898        0.014      337.062        8.782      865.352
01/26/2014  12:08:00       61.723       85.055       86.213       77.602       60.163       52.631     6022.057     3619.586     2769.996        1.544        0.621      105.091       49.723        0.224      337.494        9.505      865.324
01/26/2014  12:09:00       84.940       95.658       82.899       79.806       60.618       53.856     6369.001     3674.495     2900.516        1.809        0.647      127.927       45.819        0.128      337.335        9.239      865.302
01/26/2014  12:10:00       90.911       66.027      -10.327       39.059       26.610       22.239     1525.637      708.068      494.585        0.773        0.136      112.359       13.489        0.014      337.098        8.843      865.291
01/26/2014  12:11:00       24.589       33.516       62.200       28.316       42.255       24.691      801.821     1785.513      609.637        0.440        0.160       41.569       24.721        0.354      337.681        9.819      865.280
01/26/2014  12:12:00        6.942       34.017       75.179       30.252       41.516       23.029      915.168     1723.556      530.328        0.501        0.158       34.718       16.651        0.230      337.955       10.279      865.251
01/26/2014  12:13:00       20.283       34.107       33.616       42.631       28.848       38.078     1817.423      832.225     1449.944        0.340        0.205       39.682       29.695        0.560      337.828       10.067      865.234
01/26/2014  12:14:00       34.749       57.556       59.340       43.743       40.183       25.450     1913.448     1614.668      647.706        0.611        0.209       67.232       15.395        0.052      337.763        9.957      865.208
01/26/2014  12:15:00      105.791       72.011       79.237       87.234       92.782       63.296     7609.853     8608.530     4006.331        2.144        1.011      127.973       67.912        0.282      337.340        9.247      865.185
01/26/2014  12:16:00       96.770       97.774       65.751       44.888       52.002       48.913     2014.967     2704.162     2392.529        1.518        0.356      137.566       35.909        0.068      337.312        9.200      865.160
01/26/2014  12:17:00       10.452       35.206       46.797       33.716       51.855       46.485     1136.769     2688.921     2160.884        0.476        0.299       36.725       42.511        1.340      337.743        9.923      865.122
01/26/2014  12:18:00       98.271       56.257       22.077       47.305       41.999       33.045     2237.792     1763.884     1091.954        0.920        0.255      113.235       17.405        0.024      337.478        9.480      865.096
01/26/2014  12:19:00       60.625       41.481       43.263       51.519       34.377       37.564     2654.188     1181.797     1411.063        0.626        0.262       73.458       27.900        0.144      337.845       10.095      865.059
01/26/2014  12:20:00       74.276       86.423       73.974       66.187       54.851       61.417     4380.752     3008.673     3772.028        1.481        0.558      113.955       56.515        0.246      337.718        9.881      865.035
01/26/2014  12:21:00       23.142       10.849       16.482       41.147       58.915       32.437     1693.115     3470.936     1052.186        0.357        0.311       25.559       26.979        1.114      337.929       10.235      865.022
01/26/2014  12:22:00       62.385       64.859       49.395       58.988       44.038       43.961     3479.599     1939.356     1932.574        0.894        0.368       89.992       23.961        0.071      337.574        9.640      864.999
01/26/2014  12:23:00       61.034       37.831       51.077       31.571       58.876       45.618      996.725     3466.358     2080.984        0.715        0.327       71.808       44.221        0.379      337.510        9.533      864.986
01/26/2014  12:24:00       37.878       64.473       68.912       52.482       55.678       40.994     2754.393     3100.019     1680.506        0.894        0.377       74.776       40.317        0.291      337.703        9.856      864.961
01/26/2014  12:25:00        5.558        1.601       49.636       28.241       68.189       31.280      797.565     4649.735      978.425        0.446        0.321        5.784       30.577       27.950      337.895       10.177      864.924
01/26/2014  12:26:00       42.372       43.890       67.883       44.370       64.737       33.906     1968.717     4190.896     1149.638        0.782        0.365       61.006       22.869        0.141      337.943       10.259      864.896
01/26/2014  12:27:00       38.567       74.821       90.343       67.642       60.418       42.749     4575.422     3650.388     1827.518        1.265        0.503       84.176       37.071        0.194      338.183       10.659      864.851
01/26/2014  12:28:00       45.942       53.348       60.690       65.640       59.079       45.620     4308.607     3490.297     2081.218        0.926        0.494       70.403       30.785        0.191      338.120       10.555      864.829
01/26/2014  12:29:00       19.830       61.496       82.671       63.557       59.704       40.250     4039.453     3564.574     1620.068        1.012        0.461       64.614       35.674        0.305      338.130       10.572      864.804
01/26/2014  12:30:00       29.643       48.296       38.688       69.683       38.567       37.674     4855.687     1487.415     1419.363        0.623        0.388       56.667       17.899        0.100      337.856       10.113      864.770
01/26/2014  12:31:00       -3.351        9.625       72.502       36.070       68.183       40.312     1301.042     4648.964     1625.017        0.647        0.379       10.192       41.124       16.280      338.236       10.750      864.751
01/26/2014  12:32:00       86.065      121.904      109.840       83.961       49.844       51.546     7049.454     2484.474     2657.005        2.326        0.610      149.224       53.033        0.126      337.748        9.931      864.729
01/26/2014  12:33:00      103.442       96.306       59.364       56.844       42.469       48.543     3231.236     1803.581     2356.392        1.544        0.370      141.333       38.272        0.073      337.607        9.695      864.711
01/26/2014  12:34:00       75.226      114.053      104.093       67.044       53.034       43.709     4494.912     2812.596     1910.465        1.936        0.461      136.628       40.789        0.089      337.765        9.959      864.691
01/26/2014  12:35:00       79.712      120.445      118.497       73.299       60.290       45.215     5372.813     3634.882     2044.436        2.298        0.553      144.434       40.862        0.080      337.714        9.873      864.666
01/26/2014  12:36:00       76.131      103.444      105.515       76.684       73.144       56.107     5880.459     5350.105     3148.016        2.100        0.719      128.439       58.297        0.206      337.702        9.853      864.644
01/26/2014  12:37:00      136.816      121.804       90.520       68.188       68.758       64.821     4649.638     4727.670     4201.733        2.766        0.679      183.180       52.866        0.083      337.663        9.785      864.629
01/26/2014  12:38:00      105.071      132.305       84.868       54.591       80.967       54.951     2980.185     6555.656     3019.640        2.415        0.628      168.951       58.071        0.118      337.639        9.748      864.601
01/26/2014  12:39:00       26.244       82.598       82.506       41.995       48.830       35.323     1763.552     2384.404     1247.681        0.986        0.270       86.667       33.795        0.152      337.938       10.252      864.584
01/26/2014  12:40:00       70.017       59.372       62.649       54.059       34.318       39.405     2922.394     1177.736     1552.722        0.900        0.283       91.801       26.964        0.086      338.120       10.555      864.563
01/26/2014  12:41:00       94.386       77.395       43.189       52.868       56.392       50.427     2795.037     3180.082     2542.861        1.264        0.426      122.060       24.127        0.039      338.212       10.711      864.543
01/26/2014  12:42:00      162.121       91.128       27.522       66.377       57.892       49.635     4405.957     3351.471     2463.673        2.278        0.511      185.977       29.276        0.025      337.840       10.084      864.527
01/26/2014  12:43:00      154.102       66.347       31.971       76.392       65.721       49.136     5835.779     4319.219     2414.330        2.087        0.628      167.778       26.236        0.024      337.949       10.267      864.520
01/26/2014  12:44:00       39.524       71.565       92.708       59.407       53.851       35.503     3529.177     2899.901     1260.487        1.148        0.384       81.754       36.146        0.195      338.111       10.540      864.498
01/26/2014  12:45:00       57.852       44.017       37.275       59.457       47.324       53.865     3535.130     2239.516     2901.469        0.767        0.434       72.694       52.160        0.515      337.873       10.141      864.483
01/26/2014  12:46:00      106.719       65.013       57.383       46.445       46.913       45.473     2157.149     2200.862     2067.768        1.267        0.321      124.963       32.426        0.067      337.847       10.097      864.460
01/26/2014  12:47:00       71.823       58.989       59.492       61.233       50.381       31.950     3749.530     2538.210     1020.824        0.974        0.365       92.942       22.570        0.059      338.144       10.597      864.425
01/26/2014  12:48:00       94.429       96.702       21.355       29.825       29.347       47.318      889.524      861.254     2238.954        1.136        0.199      135.159       23.763        0.031      337.929       10.236      864.392
01/26/2014  12:49:00       57.617       59.485       53.107       63.374       53.576       50.482     4016.324     2870.352     2548.425        0.956        0.472       82.814       42.542        0.264      338.086       10.499      864.375
01/26/2014  12:50:00       30.623      -56.790       18.522       52.252       61.083       34.783     2730.284     3731.141     1209.841        0.609        0.384       64.521       38.966        0.365      338.394       11.015      864.346
01/26/2014  12:51:00       44.887       11.279       59.830       66.494      107.909       67.601     4421.430    11644.399     4569.959        1.318        1.032       46.282       82.811        3.201      338.271       10.810      864.326
01/26/2014  12:52:00       82.831       58.602       72.602       68.747       77.315       35.270     4726.148     5977.684     1243.998        1.376        0.597      101.465       29.798        0.086      338.344       10.931      864.302
01/26/2014  12:53:00        1.895       43.145       77.958       29.466       43.202       26.323      868.255     1866.402      692.885        0.568        0.171       43.187       25.760        0.356      338.563       11.299      864.293
01/26/2014  12:54:00        0.410       74.824       90.382       27.524       66.756       47.970      757.582     4456.413     2301.118        1.064        0.376       74.825       50.350        0.453      338.667       11.473      864.271
01/26/2014  12:55:00       64.645       12.151       60.352       67.694       72.108       50.519     4582.502     5199.543     2552.207        1.015        0.617       65.777       51.112        0.604      338.481       11.161      864.265
01/26/2014  12:56:00       64.583      -47.557        7.321       52.086       49.792       41.123     2712.958     2479.274     1691.110        0.668        0.344       80.204       40.605        0.256      338.349       10.939      864.264
01/26/2014  12:57:00       40.931      -73.659        1.647       37.595       35.758       24.550     1413.398     1278.634      602.685        0.520        0.165       84.268       22.995        0.074      338.104       10.529      864.253
01/26/2014  12:58:00       63.352     -145.997      -28.160       49.227       45.492       30.147     2423.295     2069.477      908.828        1.576        0.270      159.149       18.310        0.013      338.230       10.740      864.225
01/26/2014  12:59:00       55.916      -75.849      -17.056       46.198       71.639       32.899     2134.283     5132.125     1082.337        0.876        0.417       94.232       35.281        0.140      338.335       10.917      864.221
01/26/2014  13:00:00       23.358      -64.868       20.478       32.821       78.129       41.055     1077.186     6104.116     1685.496        0.702        0.443       68.945       49.752        0.521      338.591       11.347      864.199
01/26/2014  13:01:00      -16.129      -32.702        0.898       34.131       31.117       27.418     1164.911      968.256      751.773        0.211        0.144       36.463       24.307        0.444      338.751       11.616      864.178
01/26/2014  13:02:00       12.789       18.744       22.007       25.513       37.843       31.601      650.932     1432.069      998.629        0.204        0.154       22.691       23.820        1.102      339.029       12.082      864.160
01/26/2014  13:03:00       48.824       58.332       66.228       60.123       67.080       48.637     3614.765     4499.722     2365.549        1.032        0.524       76.069       46.293        0.370      338.552       11.281      864.130
01/26/2014  13:04:00       45.079      -24.878       -3.562       26.769       33.214       25.406      716.601     1103.188      645.443        0.256        0.123       51.488       15.232        0.088      338.259       10.789      864.106
01/26/2014  13:05:00       37.112       21.382       31.396       35.794       34.532       34.114     1281.241     1192.429     1163.780        0.323        0.182       42.831       32.416        0.573      338.560       11.293      864.067
01/26/2014  13:06:00       97.118       70.638       64.512       72.086       73.170       57.780     5196.375     5353.917     3338.499        1.623        0.694      120.090       45.808        0.146      338.458       11.122      864.041
01/26/2014  13:07:00       20.819      131.907      119.879       39.055       42.860       26.141     1525.272     1836.954      683.349        1.812        0.202      133.540       23.886        0.032      338.353       10.947      864.013
01/26/2014  13:08:00       58.860       73.007       74.470       50.208       41.189       43.557     2520.835     1696.562     1897.225        1.023        0.306       93.779       28.732        0.094      338.475       11.152      863.996
01/26/2014  13:09:00       59.416       82.208       73.922       48.542       41.961       36.419     2356.328     1760.759     1326.308        1.060        0.272      101.432       30.097        0.088      338.551       11.279      863.987
01/26/2014  13:10:00       58.560       76.551       58.375       34.773       32.956       42.713     1209.163     1086.067     1824.396        0.841        0.206       96.381       31.422        0.106      338.454       11.116      863.984
01/26/2014  13:11:00       26.589       49.145        1.426       27.430       33.795       22.028      752.379     1142.124      485.223        0.275        0.119       55.877       19.219        0.118      338.677       11.491      863.953
01/26/2014  13:12:00        9.402        6.813        9.033       36.672       25.769       20.563     1344.871      664.033      422.838        0.132        0.122       11.611       15.314        1.740      338.895       11.856      863.940
01/26/2014  13:13:00       23.263       27.770       66.663       49.213       55.267       35.525     2421.871     3054.465     1262.037        0.625        0.337       36.226       34.934        0.930      339.042       12.106      863.925
01/26/2014  13:14:00       78.781      -87.246       -0.969       32.472       40.922       40.870     1054.447     1674.586     1670.360        0.911        0.220      117.551       35.269        0.090      338.584       11.336      863.912
01/26/2014  13:15:00      138.131       46.545       40.984       84.673       89.545       55.128     7169.553     8018.227     3039.059        2.057        0.911      145.762       49.189        0.114      338.637       11.421      863.898
01/26/2014  13:16:00       51.342       68.017       85.426       65.965       48.168       32.018     4351.432     2320.114     1025.135        1.113        0.385       85.219       29.524        0.120      338.747       11.608      863.888
01/26/2014  13:17:00       39.911       53.472       17.405       34.453       29.861       38.580     1187.018      891.653     1488.423        0.416        0.178       66.724       31.367        0.221      338.462       11.129      863.859
01/26/2014  13:18:00       23.860       48.780       52.732       39.626       30.370       34.830     1570.187      922.309     1213.122        0.472        0.185       54.303       11.661        0.046      338.925       11.908      863.827
01/26/2014  13:19:00       19.525       69.263       71.480       41.372       39.011       31.201     1711.680     1521.872      973.489        0.725        0.210       71.963       21.695        0.091      338.890       11.851      863.800
01/26/2014  13:20:00       27.383      -13.241       38.734       29.165       56.242       43.156      850.586     3163.188     1862.416        0.415        0.294       30.417       47.034        2.391      338.795       11.689      863.777
01/26/2014  13:21:00       38.757      -36.128        2.694       31.886       30.356       31.293     1016.747      921.478      979.222        0.287        0.146       52.985       22.508        0.180      338.706       11.539      863.750
01/26/2014  13:22:00       31.032       -8.515       16.411       27.065       27.297       16.589      732.513      745.136      275.179        0.153        0.088       32.179       17.530        0.297      339.048       12.115      863.733
01/26/2014  13:23:00       59.612       65.686        7.056       66.182       41.603       26.518     4380.093     1730.775      703.222        0.736        0.341       88.703       20.336        0.053      338.877       11.826      863.723
01/26/2014  13:24:00       53.225       53.629       14.862       59.139       45.418       46.722     3497.472     2062.809     2182.975        0.684        0.387       75.557       27.185        0.129      338.908       11.881      863.708
01/26/2014  13:25:00      104.541       51.641       53.334       70.515       55.056       46.807     4972.386     3031.210     2190.934        1.332        0.510      116.600       37.281        0.102      338.877       11.826      863.693
01/26/2014  13:26:00      171.124      104.436       39.611       65.039       41.116       44.710     4230.095     1690.520     1998.944        2.484        0.396      200.475       31.862        0.025      338.945       11.940      863.681
01/26/2014  13:27:00       89.747       62.248       -3.501       66.650       54.163       46.900     4442.257     2933.682     2199.567        1.076        0.479      109.221       31.009        0.081      338.976       11.993      863.667
01/26/2014  13:28:00      116.891      107.280       19.001       60.315       35.175       34.793     3637.915     1237.253     1210.537        1.581        0.304      158.658       19.712        0.015      338.653       11.450      863.667
01/26/2014  13:29:00       99.756       73.924       12.088       44.590       30.057       32.274     1988.294      903.406     1041.610        0.975        0.197      124.161       26.192        0.044      339.075       12.161      863.640
01/26/2014  13:30:00       56.264       40.437       19.637       78.000       53.735       31.893     6083.958     2887.447     1017.137        0.759        0.499       69.288       25.694        0.138      339.256       12.464      863.616
01/26/2014  13:31:00       47.310       35.545       24.359       44.202       34.149       29.719     1953.825     1166.128      883.231        0.405        0.200       59.175       17.923        0.092      339.127       12.246      863.596
01/26/2014  13:32:00      121.296       78.240        8.343       35.268       43.526       27.746     1243.797     1894.515      769.862        1.241        0.195      144.341       13.211        0.008      338.708       11.542      863.568
01/26/2014  13:33:00       71.182       16.457       19.630       64.981       34.492       42.594     4222.588     1189.697     1814.207        0.647        0.361       73.060       42.960        0.346      339.122       12.239      863.534
01/26/2014  13:34:00        3.356       -0.871       44.796       53.537       83.987       43.654     2866.257     7053.764     1905.712        0.692        0.591        3.467       42.390      149.451      339.440       12.775      863.516
01/26/2014  13:35:00       88.287     -125.997      -27.428       53.914       77.630       50.695     2906.700     6026.491     2570.016        1.796        0.575      153.850       45.304        0.087      339.036       12.094      863.486
01/26/2014  13:36:00       89.051      -91.090      -17.517       51.767       56.960       30.475     2679.778     3244.484      928.726        1.169        0.343      127.387       15.742        0.015      338.986       12.011      863.486
01/26/2014  13:37:00       45.022      -72.526       -5.841       47.824       27.422       22.425     2287.151      751.965      502.886        0.543        0.177       85.364       23.927        0.079      338.950       11.950      863.478
01/26/2014  13:38:00        8.432      -15.973       22.373       15.051       32.924       24.101      226.546     1083.976      580.879        0.136        0.095       18.062       24.415        1.827      339.314       12.561      863.464
01/26/2014  13:39:00       28.849       48.558       43.906       49.129       36.107       38.998     2413.699     1303.682     1520.847        0.518        0.262       56.481       30.826        0.298      339.343       12.612      863.458
01/26/2014  13:40:00       76.002       59.041       48.839       41.372       38.389       50.654     1711.615     1473.742     2565.839        0.870        0.288       96.240       32.264        0.112      339.318       12.570      863.446
01/26/2014  13:41:00       58.210      -81.488       20.929       50.258       61.983       37.136     2525.831     3841.859     1379.077        0.911        0.387      100.143       32.473        0.105      339.149       12.284      863.442
01/26/2014  13:42:00      -10.125      -61.150       -7.016       23.848       30.756       24.098      568.742      945.930      580.701        0.299        0.105       61.982       18.490        0.089      339.497       12.869      863.432
01/26/2014  13:43:00      -15.143       -1.477       29.155       25.851       35.534       31.633      668.285     1262.667     1000.641        0.201        0.147       15.215       28.360        3.475      339.603       13.048      863.420
01/26/2014  13:44:00       42.867       -1.608       -1.664       31.055       28.914       24.242      964.391      836.043      587.659        0.212        0.119       42.897        9.401        0.048      339.127       12.247      863.413
01/26/2014  13:45:00       34.151        7.046       28.035       30.676       22.782       12.884      941.006      519.009      166.002        0.181        0.081       34.870        6.275        0.032      339.357       12.634      863.408
01/26/2014  13:46:00       47.550       18.897       20.545       33.396       38.087       35.222     1115.288     1450.593     1240.566        0.342        0.190       51.167        8.906        0.030      339.253       12.458      863.395
01/26/2014  13:47:00      110.720       64.529       17.781       65.667       49.703       38.495     4312.092     2470.378     1481.867        1.250        0.413      128.152       17.047        0.018      339.273       12.492      863.367
01/26/2014  13:48:00       51.512       75.425       81.655       53.833       61.759       47.486     2898.010     3814.143     2254.959        1.199        0.448       91.337       42.944        0.221      339.366       12.648      863.350
01/26/2014  13:49:00       92.734      101.831       54.237       42.020       40.481       49.824     1765.678     1638.706     2482.443        1.390        0.294      137.729       29.252        0.045      339.068       12.147      863.327
01/26/2014  13:50:00       19.802       62.600       -5.707       26.392       39.424       21.643      696.513     1554.238      468.402        0.353        0.136       65.657       20.386        0.096      339.260       12.471      863.310
01/26/2014  13:51:00       18.959       57.050       -5.874       20.953       32.615       24.377      439.030     1063.720      594.240        0.287        0.105       60.118       17.749        0.087      339.233       12.426      863.304
01/26/2014  13:52:00       30.146       19.162       12.722       19.895       18.781       16.684      395.806      352.717      278.348        0.123        0.051       35.720       10.872        0.093      339.320       12.573      863.290
01/26/2014  13:53:00        3.330       27.721       55.679       26.006       41.450       19.829      676.296     1718.099      393.205        0.333        0.139       27.921       17.916        0.412      339.739       13.281      863.266
01/26/2014  13:54:00       28.525      -20.824       14.113       38.811       43.472       36.408     1506.316     1889.798     1325.523        0.308        0.236       35.317       27.661        0.613      339.736       13.273      863.263
01/26/2014  13:55:00       -9.381      -38.563       21.873       28.267       30.191       24.803      799.026      911.470      615.186        0.219        0.116       39.688       17.325        0.191      339.707       13.225      863.262
01/26/2014  13:56:00       23.914      -71.238       13.598       27.008       76.289       28.018      729.449     5819.988      785.025        0.658        0.367       75.144       37.168        0.245      339.582       13.014      863.266
01/26/2014  13:57:00       15.720       28.122       29.013       45.251       42.509       34.166     2047.628     1807.048     1167.289        0.345        0.251       32.218       24.331        0.570      339.615       13.071      863.269
01/26/2014  13:58:00       57.759       55.059       54.840       32.754       31.372       42.827     1072.805      984.196     1834.123        0.663        0.195       79.797       28.946        0.132      339.330       12.588      863.278
01/26/2014  13:59:00        2.590       36.926        4.563       21.490       18.368       18.317      461.799      337.392      335.509        0.126        0.057       37.017       16.475        0.198      339.345       12.616      863.262
01/26/2014  14:00:00        1.575       74.028       -7.426       26.796       37.082       19.331      718.032     1375.104      373.676        0.400        0.123       74.045       19.278        0.068      339.232       12.424      863.260
01/26/2014  14:01:00       -5.973       52.378        0.358       16.097       27.835       22.079      259.120      774.809      487.470        0.215        0.076       52.717       17.371        0.109      339.440       12.774      863.248
01/26/2014  14:02:00       26.835       40.786       20.747       46.957       29.615       34.102     2204.938      877.070     1162.932        0.353        0.212       48.822       12.491        0.065      339.614       13.069      863.229
01/26/2014  14:03:00      107.510       56.107       28.155       44.646       37.673       35.857     1993.224     1419.221     1285.738        1.010        0.235      121.270       12.568        0.011      339.356       12.634      863.220
01/26/2014  14:04:00       86.648       74.300        5.072       36.505       34.918       33.294     1332.597     1219.286     1108.488        0.836        0.183      114.142       16.874        0.022      339.407       12.719      863.203
01/26/2014  14:05:00      119.811       96.540       24.072       34.280       31.382       33.330     1175.089      984.830     1110.860        1.376        0.164      153.866       11.576        0.006      339.270       12.487      863.181
01/26/2014  14:06:00       61.119       73.851        5.615       42.780       25.800       28.529     1830.165      665.624      813.926        0.626        0.165       95.862       20.836        0.047      339.307       12.549      863.175
01/26/2014  14:07:00       79.559       63.489       19.763       63.184       40.407       40.578     3992.168     1632.719     1646.558        0.901        0.364      101.786       29.285        0.083      339.449       12.790      863.157
01/26/2014  14:08:00       90.883       53.108       34.092       65.061       53.456       34.573     4232.957     2857.527     1195.305        1.026        0.414      105.262       27.769        0.070      339.638       13.109      863.129
01/26/2014  14:09:00        5.623       69.142       94.744       43.048       70.304       53.100     1853.133     4942.672     2819.567        1.170        0.481       69.370       52.975        0.583      339.710       13.230      863.111
01/26/2014  14:10:00       71.936       91.794       73.206       58.334       29.399       40.005     3402.879      864.298     1600.403        1.241        0.293      116.623       42.390        0.132      339.410       12.724      863.106
01/26/2014  14:11:00       70.550       88.203       64.428       52.823       29.415       37.016     2790.282      865.255     1370.209        1.097        0.251      112.947       20.795        0.034      339.392       12.692      863.096
01/26/2014  14:12:00       44.776       22.883       65.465       32.465       38.648       28.314     1053.990     1493.656      801.677        0.508        0.167       50.284       25.604        0.259      339.569       12.992      863.086
01/26/2014  14:13:00       55.470      -53.848       11.805       24.706       25.910       17.368      610.372      671.328      301.643        0.385        0.079       77.308       18.319        0.056      339.272       12.493      863.088
01/26/2014  14:14:00       45.802        2.664       18.198       36.259       56.143       26.749     1314.708     3151.995      715.515        0.381        0.259       45.879       26.271        0.328      339.481       12.844      863.067
01/26/2014  14:15:00      -15.443       25.039       35.461       22.909       40.479       39.242      524.818     1638.549     1539.926        0.291        0.185       29.418       28.521        0.940      339.734       13.270      863.059
01/26/2014  14:16:00      -58.850       24.105      -12.463       35.339       18.352       33.184     1248.866      336.808     1101.194        0.344        0.134       63.595       30.836        0.235      339.515       12.901      863.060
01/26/2014  14:17:00      -11.482       33.245       -1.901       48.006       11.680       15.980     2304.611      136.429      255.351        0.197        0.135       35.172        7.038        0.040      339.564       12.982      863.042
01/26/2014  14:18:00       23.852       67.926       -2.266       34.113       33.490       31.152     1163.679     1121.559      970.446        0.422        0.163       71.992       20.788        0.083      339.579       13.010      863.036
01/26/2014  14:19:00       15.458       43.735        3.229       38.069       30.471       23.824     1449.255      928.477      567.600        0.255        0.147       46.386       22.745        0.240      339.609       13.059      863.027
01/26/2014  14:20:00       25.761      108.781      -13.211       28.515       31.710       23.717      813.123     1005.534      562.484        0.753        0.119      111.790       15.251        0.019      339.482       12.846      863.025
01/26/2014  14:21:00       -3.066       61.349       -3.795       29.144       38.584       24.076      849.377     1488.759      579.630        0.335        0.146       61.425       24.282        0.156      339.644       13.119      863.004
01/26/2014  14:22:00      -24.001       72.694      -14.814       19.809       41.654       19.814      392.403     1735.055      392.591        0.430        0.126       76.553       19.862        0.067      339.693       13.202      862.990
01/26/2014  14:23:00       -3.890       69.104       -5.354       21.421       34.636       24.764      458.879     1199.650      613.246        0.355        0.114       69.213       22.264        0.103      340.046       13.796      862.977
01/26/2014  14:24:00      -10.153       87.427       -5.026       22.617       47.356       24.247      511.519     2242.580      587.913        0.556        0.167       88.015       28.762        0.107      339.882       13.521      862.952
01/26/2014  14:25:00       -5.798       13.907       -7.990       37.400       72.281       28.374     1398.728     5224.498      805.103        0.386        0.371       15.067       35.959        5.696      339.899       13.548      862.927
01/26/2014  14:26:00        2.079      -23.184       55.741       55.933      113.797       66.656     3128.512    12949.812     4443.054        1.208        1.026       23.277       79.673       11.715      340.025       13.761      862.905
01/26/2014  14:27:00       69.954      -63.668       22.687       53.099      107.529       56.480     2819.550    11562.420     3190.010        1.351        0.879       94.589       62.680        0.439      339.918       13.579      862.883
01/26/2014  14:28:00      130.441     -135.047      -23.348       55.299       56.406       29.587     3057.944     3181.678      875.374        2.146        0.356      187.757       31.445        0.028      339.663       13.148      862.868
01/26/2014  14:29:00      110.893     -114.139      -22.010       43.367       78.788       47.459     1880.716     6207.577     2252.341        1.807        0.517      159.138       44.583        0.078      339.607       13.054      862.861
01/26/2014  14:30:00      109.342      -39.659       22.467       63.463      130.367       60.940     4027.514    16995.471     3713.623        1.938        1.237      116.312       74.047        0.405      339.719       13.242      862.854
01/26/2014  14:31:00       33.949       61.824       72.364       58.192       67.174       41.694     3386.275     4512.350     1738.371        0.992        0.482       70.532       43.491        0.380      339.885       13.526      862.855
01/26/2014  14:32:00       86.770       98.987      105.882       53.340       53.528       39.578     2845.108     2865.276     1566.381        1.791        0.364      131.634       24.731        0.035      339.578       13.005      862.847
01/26/2014  14:33:00       75.346       63.176       83.159       39.999       41.890       37.625     1599.913     1754.734     1415.668        1.068        0.239       98.327       29.566        0.090      339.571       12.996      862.846
01/26/2014  14:34:00       54.485      -45.197       38.111       50.762       40.941       33.970     2576.813     1676.161     1153.953        0.593        0.270       70.791       28.099        0.158      339.809       13.397      862.835
01/26/2014  14:35:00       51.398      -18.800       28.268       46.761       62.451       39.094     2186.611     3900.177     1528.355        0.570        0.381       54.728       41.359        0.571      339.752       13.300      862.823
01/26/2014  14:36:00       42.158       63.628       79.746       54.044       47.697       33.192     2920.744     2274.986     1101.718        0.924        0.315       76.327       32.087        0.177      339.761       13.317      862.819
01/26/2014  14:37:00      117.438       78.562       17.046       34.576       37.514       31.073     1195.480     1407.296      965.516        1.191        0.178      141.293       16.478        0.014      339.656       13.140      862.806
01/26/2014  14:38:00       25.387       21.778       -1.476       28.421       15.359        9.040      807.764      235.898       81.721        0.112        0.056       33.448        4.705        0.020      339.627       13.091      862.807
01/26/2014  14:39:00      -12.263       28.093      -20.293       15.945       17.052       12.489      254.244      290.778      155.967        0.103        0.035       30.653       10.559        0.119      339.734       13.271      862.792
01/26/2014  14:40:00      -32.460      101.309      -13.941       28.199       29.905       16.469      795.194      894.321      271.221        0.674        0.098      106.382       14.183        0.018      339.754       13.304      862.784
01/26/2014  14:41:00       -9.556       13.420      -24.211       21.204       52.187       17.283      449.603     2723.526      298.714        0.216        0.174       16.475       10.428        0.401      339.843       13.454      862.779
01/26/2014  14:42:00      -32.622        9.426       -3.905       24.631       20.482       20.270      606.670      419.523      410.882        0.130        0.072       33.956        9.644        0.081      339.896       13.545      862.779
01/26/2014  14:43:00       -0.409       16.484       10.246       38.811       25.778       25.382     1506.265      664.521      644.265        0.160        0.141       16.489       19.801        1.442      340.104       13.895      862.780
01/26/2014  14:44:00       39.343       14.058       33.602       36.820       35.076       28.526     1355.694     1230.314      813.741        0.314        0.170       41.779       25.476        0.372      339.811       13.401      862.780
01/26/2014  14:45:00        1.473       41.201        7.141       14.522       18.768       16.802      210.885      352.243      282.310        0.130        0.042       41.228        9.776        0.056      339.735       13.272      862.769
01/26/2014  14:46:00       -0.690       20.361        2.804       21.916       39.638       17.037      480.328     1571.160      290.243        0.138        0.117       20.372       21.296        1.093      340.054       13.811      862.761
01/26/2014  14:47:00       65.540      -97.045       -7.062       51.117       39.384       31.569     2612.964     1551.106      996.598        0.946        0.258      117.104       27.531        0.055      339.932       13.605      862.749
01/26/2014  14:48:00       38.142      -20.104       21.468       46.414       59.148       34.037     2154.248     3498.458     1158.499        0.456        0.341       43.116       44.528        1.067      339.900       13.551      862.748
01/26/2014  14:49:00      114.960     -130.471      -27.414       40.246       61.487       22.434     1619.731     3780.676      503.268        1.845        0.295      173.892       11.876        0.005      339.797       13.375      862.733
01/26/2014  14:50:00       85.027      -99.175      -14.392       22.878       21.680       17.928      523.412      470.032      321.422        0.929        0.066      130.634       14.822        0.013      339.739       13.278      862.734
01/26/2014  14:51:00       68.496      -75.140      -26.573       26.087       41.453       18.178      680.554     1718.374      330.425        0.689        0.136      101.675       12.029        0.014      339.912       13.571      862.716
01/26/2014  14:52:00       21.042      -22.628       22.158       17.956       48.980       28.316      322.411     2399.074      801.770        0.248        0.176       30.900       29.495        0.911      340.117       13.917      862.697
01/26/2014  14:53:00       68.515       43.279       41.875       37.996       33.546       27.333     1443.667     1125.324      747.093        0.582        0.166       81.039       18.787        0.054      339.800       13.383      862.686
01/26/2014  14:54:00       37.397       23.997       20.197       19.094       18.247       18.884      364.582      332.939      356.599        0.172        0.053       44.434       13.580        0.093      339.842       13.452      862.668
01/26/2014  14:55:00        8.813       25.830       33.684       24.152       21.640       22.188      583.333      468.281      492.322        0.171        0.077       27.292       14.169        0.270      340.144       13.963      862.649
01/26/2014  14:56:00       21.623       26.493       50.503       26.882       24.437       17.650      722.647      597.185      311.527        0.268        0.082       34.197        7.165        0.044      340.083       13.860      862.630
01/26/2014  14:57:00       63.032       -1.677       19.866       31.552       29.895       25.129      995.505      893.716      631.492        0.345        0.126       63.055       23.011        0.133      339.845       13.458      862.595
01/26/2014  14:58:00       41.881       36.336       29.219       41.707       27.553       25.029     1739.436      759.174      626.472        0.353        0.156       55.447       26.014        0.220      339.953       13.640      862.583
01/26/2014  14:59:00       49.218       45.809        1.357       29.280       25.565       21.506      857.310      653.563      462.523        0.325        0.099       67.238       17.900        0.071      339.912       13.570      862.565
01/26/2014  15:00:00       16.801       48.642       -0.938       26.622       24.867       20.499      708.705      618.389      420.220        0.220        0.087       51.462       16.570        0.104      339.971       13.671      862.561
01/26/2014  15:01:00        4.889       42.895      -20.100       17.695       22.864       12.421      313.112      522.771      154.274        0.163        0.050       43.172       10.467        0.059      339.902       13.554      862.550
01/26/2014  15:02:00        1.567       45.540        2.825       27.529       40.781       24.068      757.858     1663.082      579.261        0.254        0.150       45.567       10.711        0.055      340.068       13.833      862.539
01/26/2014  15:03:00       28.693       22.311        4.557       41.022       33.574       17.504     1682.844     1127.230      306.395        0.223        0.156       36.346       16.125        0.197      340.008       13.731      862.543
01/26/2014  15:04:00        1.959       96.405      -17.204       18.767       28.806       14.146      352.207      829.789      200.099        0.549        0.069       96.424       13.229        0.019      339.866       13.492      862.550
01/26/2014  15:05:00        9.888       60.063       -1.687       25.621       27.725       24.271      656.452      768.653      589.070        0.286        0.101       60.872       13.516        0.049      339.923       13.589      862.548
01/26/2014  15:06:00       27.461       48.719        8.569       24.898       17.082       20.696      619.923      291.778      428.317        0.227        0.067       55.925       12.415        0.049      339.990       13.702      862.548
01/26/2014  15:07:00       20.413       42.963       16.560       32.335       25.740       21.811     1045.521      662.559      475.705        0.236        0.109       47.566       22.272        0.219      339.943       13.623      862.534
01/26/2014  15:08:00      -23.830       42.118      -17.437       18.507       21.169       12.898      342.500      448.125      166.357        0.180        0.048       48.392        8.020        0.027      340.021       13.753      862.524
01/26/2014  15:09:00       15.827       19.880        7.200       26.876       15.834       19.723      722.316      250.711      389.010        0.103        0.068       25.411       12.987        0.261      340.209       14.072      862.514
01/26/2014  15:10:00       27.133       26.310       14.427       30.803       26.448       21.807      948.850      699.506      475.525        0.188        0.106       37.794       10.514        0.077      340.122       13.926      862.510
01/26/2014  15:11:00       90.723       27.959       13.360       43.478       37.215       33.523     1890.309     1384.937     1123.794        0.679        0.220       94.933       14.586        0.024      339.976       13.678      862.495
01/26/2014  15:12:00        7.093        9.815       -2.773       33.750       21.194       10.580     1139.029      449.183      111.933        0.093        0.085       12.110        5.227        0.186      340.015       13.745      862.476
01/26/2014  15:13:00       10.267       11.101        8.526       13.640       13.357        8.902      186.040      178.411       79.250        0.037        0.022       15.121        6.037        0.159      340.214       14.080      862.472
01/26/2014  15:14:00       29.691       31.948       28.666       18.155       18.284       28.097      329.609      334.308      789.426        0.209        0.073       43.614       18.126        0.173      340.064       13.827      862.475
01/26/2014  15:15:00       27.293       36.393       32.691       28.049       32.967       33.448      786.771     1086.801     1118.745        0.306        0.150       45.490       25.180        0.306      340.085       13.861      862.465
01/26/2014  15:16:00        5.926        3.674       18.206       36.801       41.486       22.304     1354.325     1721.129      497.476        0.198        0.179        6.972       21.351        9.378      340.239       14.124      862.454
01/26/2014  15:17:00       11.408       34.645       11.438       25.206       23.250       18.053      635.361      540.574      325.919        0.148        0.075       36.475        7.068        0.038      340.152       13.976      862.452
01/26/2014  15:18:00       47.252     -107.646       -4.016       42.424       74.910       30.250     1799.763     5611.504      915.041        1.108        0.416      117.560       20.696        0.031      340.166       13.999      862.447
01/26/2014  15:19:00       44.046      -45.699       14.689       40.554       59.696       32.001     1644.639     3563.601     1024.047        0.524        0.312       63.470       33.660        0.281      340.243       14.130      862.451
01/26/2014  15:20:00       41.024      -41.467        9.642       25.492       57.130       25.470      649.842     3263.840      648.711        0.403        0.228       58.331       29.158        0.250      340.182       14.026      862.451
01/26/2014  15:21:00       11.806       19.664        4.307       28.642       13.437       19.065      820.336      180.547      363.492        0.095        0.068       22.936       15.604        0.463      340.249       14.138      862.441
01/26/2014  15:22:00       -3.433       -3.746       -0.444       13.730       15.568       12.880      188.505      242.352      165.888        0.031        0.030        5.082        4.409        0.753      340.493       14.552      862.440
01/26/2014  15:23:00       23.689        7.530        5.044       22.047       21.761       18.371      486.053      473.532      337.489        0.097        0.065       24.857       16.042        0.416      340.294       14.215      862.439
01/26/2014  15:24:00        9.376        7.821       22.179       22.920       34.331       34.805      525.336     1178.591     1211.383        0.178        0.146       12.210       28.286        5.367      340.394       14.384      862.430
01/26/2014  15:25:00       62.113       54.939       25.924       32.040       32.581       24.658     1026.540     1061.513      608.031        0.512        0.135       82.923       19.235        0.054      340.086       13.864      862.414
01/26/2014  15:26:00       80.968       63.831       14.513       29.167       23.568       23.260      850.691      555.432      541.045        0.639        0.097      103.103        6.620        0.004      340.017       13.748      862.405
01/26/2014  15:27:00       34.601       -4.217        2.441       29.283       18.528       19.869      857.466      343.284      394.770        0.141        0.080       34.857       15.949        0.209      340.225       14.097      862.396
01/26/2014  15:28:00        1.159       26.883       43.419       22.255       31.626       27.907      495.301     1000.216      778.821        0.244        0.114       26.908       26.306        0.956      340.446       14.472      862.387
01/26/2014  15:29:00       15.483       19.601       40.550       31.920       24.468       18.163     1018.915      598.689      329.877        0.211        0.097       24.979       16.543        0.439      340.428       14.441      862.391
01/26/2014  15:30:00       10.504       16.764       31.201       26.168       39.441       31.525      684.747     1555.604      993.829        0.230        0.162       19.783       27.326        1.908      340.423       14.432      862.388
01/26/2014  15:31:00       19.448       28.107       28.087       21.072       28.863       14.461      444.030      833.094      209.115        0.172        0.074       34.180       14.913        0.190      340.337       14.286      862.385
01/26/2014  15:32:00       -3.167        0.834       28.936       12.527       22.690       13.138      156.923      514.857      172.612        0.085        0.042        3.275       10.554       10.386      340.714       14.926      862.375
01/26/2014  15:33:00       -4.205       18.413       20.310       11.672       18.125       10.983      136.225      328.533      120.629        0.068        0.029       18.887        6.546        0.120      340.603       14.737      862.382
01/26/2014  15:34:00      -10.005       22.561       18.278       16.824       12.932       11.974      283.056      167.232      143.380        0.077        0.030       24.680        3.249        0.017      340.413       14.416      862.373
01/26/2014  15:35:00       24.764       37.964       51.171       36.280       42.712       29.268     1316.203     1824.278      856.613        0.433        0.200       45.327       26.420        0.340      340.340       14.294      862.367
01/26/2014  15:36:00       58.299       58.531        0.789       14.969       13.624       16.465      224.058      185.607      271.085        0.375        0.034       82.611       12.480        0.023      340.009       13.737      862.357
01/26/2014  15:37:00       30.288       38.384       13.645       15.516        7.363       17.025      240.755       54.219      289.860        0.158        0.029       48.895       11.991        0.060      340.051       13.805      862.330
01/26/2014  15:38:00       17.669       11.455       -6.764       25.263       49.554       21.940      638.222     2455.646      481.373        0.203        0.179       21.058        8.920        0.179      340.194       14.047      862.297
01/26/2014  15:39:00       47.954      -50.499        1.514       39.094       42.251       19.839     1528.362     1785.114      393.585        0.428        0.185       69.640       22.976        0.109      340.239       14.122      862.264
01/26/2014  15:40:00       26.933      -61.920       -7.712       25.639       34.093       13.169      657.336     1162.300      173.426        0.331        0.100       67.524       12.151        0.032      340.211       14.075      862.238
01/26/2014  15:41:00       18.330        5.584        7.600       21.356       32.963       12.350      456.099     1086.565      152.529        0.106        0.085       19.161       13.999        0.534      340.303       14.230      862.223
01/26/2014  15:42:00       18.885       20.033       14.535       15.124       17.440       18.888      228.736      304.169      356.771        0.093        0.044       27.531       13.460        0.239      340.320       14.259      862.211
01/26/2014  15:43:00       89.063       54.381       16.106       38.292       43.364       24.060     1466.244     1880.426      578.872        0.754        0.196      104.352       14.773        0.020      340.080       13.854      862.209
01/26/2014  15:44:00       65.760       58.449        8.985       35.608       35.652       26.506     1267.937     1271.077      702.588        0.553        0.162       87.981       23.062        0.069      340.103       13.893      862.216
01/26/2014  15:45:00       27.086       43.609        5.942       34.860       32.142       27.738     1215.235     1033.131      769.417        0.284        0.151       51.337       24.289        0.224      340.185       14.032      862.223
01/26/2014  15:46:00       33.422       39.076        4.263       33.383       40.926       26.193     1114.452     1674.933      686.050        0.307        0.174       51.419       23.829        0.215      340.112       13.907      862.224
01/26/2014  15:47:00       66.742       33.464        6.411       31.626       29.772       28.910     1000.218      886.391      835.776        0.417        0.136       74.661       19.749        0.070      340.109       13.904      862.223
01/26/2014  15:48:00       92.830       76.066        5.597       35.590       24.656       24.767     1266.617      607.919      613.416        0.846        0.124      120.014       12.823        0.011      340.093       13.876      862.214
01/26/2014  15:49:00       28.936       52.258       -6.384       28.090       27.842       21.536      789.052      775.174      463.784        0.282        0.101       59.734       16.418        0.076      340.147       13.967      862.203
01/26/2014  15:50:00       27.579       85.646       -8.775       20.587       32.934       18.719      423.834     1084.644      350.397        0.502        0.093       89.977       17.829        0.039      340.157       13.982      862.197
01/26/2014  15:51:00       10.898       87.835      -12.727       24.667       47.013       20.069      608.456     2210.219      402.751        0.561        0.161       88.508       25.726        0.084      340.239       14.121      862.189
01/26/2014  15:52:00       23.457        1.070       -1.695       44.626       33.777       21.497     1991.475     1140.918      462.133        0.207        0.180       23.482       11.070        0.222      340.297       14.220      862.188
01/26/2014  15:53:00       73.819       14.377       12.449       38.230       38.231       29.241     1461.542     1461.574      855.052        0.479        0.189       75.206       26.887        0.128      340.274       14.182      862.198
01/26/2014  15:54:00       65.947       27.408       25.872       41.472       32.084       25.304     1719.894     1029.379      640.272        0.458        0.169       71.416       19.613        0.075      340.253       14.146      862.202
01/26/2014  15:55:00       36.971       27.641       10.546       35.624       24.903       29.882     1269.057      620.161      892.906        0.251        0.139       46.161       19.169        0.172      340.226       14.100      862.211
01/26/2014  15:56:00       94.933       58.814       19.014       20.583       22.205       21.002      423.662      493.068      441.099        0.710        0.068      111.675        9.542        0.007      340.123       13.925      862.224
01/26/2014  15:57:00       49.283       34.215        1.023       22.504       20.903       18.639      506.416      436.932      347.409        0.245        0.065       59.995       12.052        0.040      340.126       13.931      862.232
01/26/2014  15:58:00       19.170       32.118        4.053       23.857       16.357       22.168      569.157      267.551      491.431        0.137        0.066       37.404       12.858        0.118      340.230       14.106      862.255
01/26/2014  15:59:00       -3.938       37.932        0.127       16.194       15.397       13.062      262.250      237.064      170.613        0.106        0.033       38.136        7.488        0.039      340.227       14.102      862.273
01/26/2014  16:00:00        5.627       43.882       -2.170       12.989       14.976       10.351      168.720      224.284      107.153        0.123        0.025       44.242        7.829        0.031      340.205       14.065      862.298
01/26/2014  16:01:00       12.357       15.038       -6.348        9.091       11.210        8.894       82.644      125.669       79.109        0.035        0.014       19.463        3.086        0.025      340.265       14.165      862.311
01/26/2014  16:02:00       30.317        9.813       -0.649       10.821       11.456        8.481      117.098      131.245       71.921        0.067        0.016       31.866        5.776        0.033      340.200       14.056      862.316
01/26/2014  16:03:00       21.866       -2.915       -6.401       12.427        7.112        7.858      154.441       50.575       61.745        0.040        0.013       22.060        7.622        0.119      340.262       14.161      862.319
01/26/2014  16:04:00        8.174        3.212       -6.156       10.469        8.170        9.087      109.595       66.742       82.577        0.019        0.013        8.782        6.775        0.595      340.506       14.573      862.307
01/26/2014  16:05:00       40.581       27.079        4.930       10.542       12.317        8.629      111.133      151.709       74.452        0.137        0.017       48.786        6.820        0.020      340.216       14.081      862.295
01/26/2014  16:06:00       30.042        2.624       -1.936        6.656        9.565        6.175       44.301       91.486       38.128        0.054        0.009       30.157        4.811        0.025      340.223       14.093      862.287
01/26/2014  16:07:00       14.662       -9.925       -1.201        6.592        6.112        5.030       43.448       37.351       25.298        0.021        0.005       17.706        4.153        0.055      340.290       14.209      862.272
01/26/2014  16:08:00       32.284       -0.230        4.039       11.707        7.952       10.055      137.058       63.240      101.102        0.068        0.015       32.284        4.884        0.023      340.238       14.122      862.268
01/26/2014  16:09:00       18.823       -8.438       -0.812       12.559        7.461        8.436      157.725       55.662       71.171        0.036        0.014       20.628        5.191        0.063      340.390       14.378      862.257
01/26/2014  16:10:00        6.401       17.722        4.233       10.693       11.468       11.803      114.349      131.513      139.304        0.038        0.019       18.842       10.165        0.291      340.346       14.303      862.241
01/26/2014  16:11:00        3.090       26.332        4.959       12.842       20.162        9.966      164.910      406.494       99.330        0.070        0.034       26.513       10.447        0.155      340.406       14.405      862.231
01/26/2014  16:12:00      -23.308       53.200       -8.640       23.029       27.279       16.819      530.344      744.171      282.864        0.250        0.078       58.082       12.551        0.047      340.383       14.366      862.222
01/26/2014  16:13:00      -47.461       44.559      -14.307       15.204       27.251       14.525      231.157      742.599      210.989        0.281        0.059       65.100        5.591        0.007      340.366       14.337      862.207
01/26/2014  16:14:00      -37.962       26.561       -2.809       22.221       16.839       13.542      493.794      283.558      183.382        0.156        0.048       46.332       11.690        0.064      340.491       14.550      862.193
01/26/2014  16:15:00       -9.527       40.776       -0.335       22.257       17.659       15.418      495.367      311.825      237.729        0.140        0.052       41.874       11.199        0.072      340.426       14.438      862.184
01/26/2014  16:16:00      -22.228       36.682        3.150       16.333       22.038       16.139      266.752      485.655      260.471        0.143        0.051       42.891       13.972        0.106      340.545       14.639      862.185
01/26/2014  16:17:00      -16.155       50.736       -5.061       18.423       20.657       13.597      339.421      426.710      184.890        0.191        0.048       53.246       10.490        0.039      340.483       14.534      862.188
01/26/2014  16:18:00       -4.619       63.978       -8.298       18.455       21.967       16.781      340.587      482.564      281.608        0.264        0.055       64.144       10.822        0.028      340.378       14.357      862.204
01/26/2014  16:19:00        9.811      101.624      -24.743       10.043       14.170        8.258      100.863      200.787       68.191        0.570        0.018      102.097        6.604        0.004      340.284       14.199      862.212
01/26/2014  16:20:00       12.403       72.827      -18.227       14.898       14.008        7.528      221.954      196.231       56.664        0.313        0.024       73.876        6.398        0.008      340.284       14.198      862.219
01/26/2014  16:21:00       14.584       49.188       -8.549       18.801       25.603       11.533      353.479      655.491      133.012        0.192        0.057       51.304       11.151        0.047      340.259       14.158      862.225
01/26/2014  16:22:00       17.556       51.958       -2.356       14.108       18.265       17.544      199.049      333.616      307.783        0.193        0.042       54.844        9.017        0.027      340.243       14.128      862.222
01/26/2014  16:23:00       12.101       46.387       -1.766       11.764       19.337       10.323      138.389      373.934      106.563        0.146        0.031       47.939        5.892        0.015      340.314       14.249      862.221
01/26/2014  16:24:00        8.573       20.277        0.613       10.914       12.280        8.878      119.113      150.792       78.822        0.042        0.017       22.014        8.309        0.142      340.302       14.229      862.225
01/26/2014  16:25:00       10.356       31.400       -2.089       14.749       15.173        7.407      217.529      230.221       54.857        0.080        0.025       33.064        4.049        0.015      340.302       14.229      862.225
01/26/2014  16:26:00       -3.957        5.222       -3.579        7.970        7.238        6.620       63.527       52.382       43.827        0.011        0.008        6.552        3.992        0.371      340.537       14.627      862.226
01/26/2014  16:27:00        2.744       57.269       -4.428       10.629       15.083        9.011      112.966      227.494       81.205        0.186        0.021       57.335        6.736        0.014      340.346       14.304      862.224
01/26/2014  16:28:00       -4.941       54.496      -11.520        6.302       13.172        6.432       39.716      173.509       41.373        0.169        0.013       54.719        3.263        0.004      340.342       14.295      862.213
01/26/2014  16:29:00       -0.877       50.717      -10.101        8.928       12.500        5.547       79.706      156.254       30.767        0.147        0.013       50.725        3.300        0.004      340.355       14.320      862.204
01/26/2014  16:30:00      -15.485       39.634       -9.857        9.131       14.527        6.684       83.372      211.035       44.677        0.112        0.017       42.552        6.303        0.022      340.303       14.231      862.201
01/26/2014  16:31:00        3.435       58.079      -12.276       13.841       11.612        6.675      191.571      134.830       44.560        0.195        0.019       58.180        5.580        0.009      340.327       14.269      862.196
01/26/2014  16:32:00       15.750       42.619       -9.982        5.595        8.709        5.221       31.301       75.854       27.254        0.115        0.007       45.436        4.325        0.009      340.292       14.213      862.204
01/26/2014  16:33:00       17.747       18.824       -7.098        7.711       11.953        6.939       59.465      142.867       48.144        0.049        0.013       25.871        5.289        0.042      340.302       14.229      862.210
01/26/2014  16:34:00        4.903        3.982        3.766       21.083        6.748        8.522      444.513       45.532       72.625        0.031        0.028        6.317       11.179        3.132      340.324       14.265      862.222
01/26/2014  16:35:00        4.532        4.725       -2.680        8.307        6.356        5.754       69.012       40.404       33.110        0.010        0.007        6.546        3.656        0.312      340.328       14.272      862.230
01/26/2014  16:36:00       21.064        1.024        1.002       13.799       11.231        6.930      190.405      126.145       48.027        0.041        0.018       21.088        7.622        0.131      340.329       14.275      862.234
01/26/2014  16:37:00        8.071        1.761        7.325        9.101        9.000        8.377       82.820       81.000       70.173        0.018        0.012        8.261        7.562        0.838      340.327       14.271      862.226
01/26/2014  16:38:00       20.117        9.839        3.818       10.750        9.313        4.535      115.555       86.741       20.564        0.037        0.011       22.394        2.875        0.016      340.260       14.156      862.213
01/26/2014  16:39:00       42.134       28.670        8.443       10.584       13.254        7.193      112.029      175.679       51.742        0.150        0.017       50.963        4.495        0.008      340.239       14.121      862.202
01/26/2014  16:40:00       30.547       10.339        8.813       18.861       13.421       11.936      355.720      180.121      142.457        0.090        0.034       32.249       10.182        0.100      340.229       14.104      862.207
01/26/2014  16:41:00        4.625       20.190       11.936       14.933       11.754       11.546      222.993      138.162      133.307        0.053        0.025       20.713        5.690        0.075      340.146       13.965      862.219
01/26/2014  16:42:00       34.795        9.574       -0.582       18.244       10.549       10.380      332.856      111.287      107.741        0.093        0.028       36.088        9.905        0.075      340.201       14.058      862.234
01/26/2014  16:43:00       22.516        2.480       -1.991       16.341       14.138        6.838      267.030      199.882       46.754        0.052        0.026       22.652        4.215        0.035      340.313       14.249      862.251
01/26/2014  16:44:00        9.385        5.488       -1.536        5.596        6.965        4.771       31.315       48.515       22.762        0.011        0.005       10.872        3.256        0.090      340.323       14.263      862.268
01/26/2014  16:45:00       -0.208        2.424       -1.754        2.083        4.313        3.294        4.340       18.601       10.849        0.002        0.002        2.433        2.738        1.267      340.481       14.531      862.275
01/26/2014  16:46:00        6.445        4.636        2.217        5.812        4.273        5.854       33.774       18.256       34.265        0.008        0.004        7.940        1.348        0.029      340.425       14.434      862.268
01/26/2014  16:47:00       -0.750        0.836       -0.292        8.760        5.684        6.029       76.738       32.308       36.354        0.007        0.007        1.123        4.413       15.438      340.419       14.428      862.261
01/26/2014  16:48:00        5.226        0.831       -9.528        5.480        8.449        5.717       30.028       71.380       32.686        0.013        0.007        5.291        4.388        0.688      340.362       14.329      862.248
01/26/2014  16:49:00        1.592       25.098       -3.918        8.067        9.354        5.703       65.076       87.502       32.522        0.042        0.009       25.148        6.350        0.064      340.344       14.300      862.243
01/26/2014  16:50:00        4.526       38.404       -7.809       10.373       11.768        6.262      107.601      138.488       39.210        0.092        0.014       38.669        5.694        0.022      340.352       14.314      862.239
01/26/2014  16:51:00        5.543       26.356       -5.081       12.804       10.023        4.280      163.946      100.455       18.319        0.052        0.014       26.933        3.802        0.020      340.305       14.232      862.246
01/26/2014  16:52:00        4.872       30.378       -7.196        8.844        6.546        4.521       78.211       42.850       20.440        0.057        0.007       30.767        3.764        0.015      340.322       14.263      862.250
01/26/2014  16:53:00      -11.372       18.209       -2.788        5.988        9.723        6.538       35.857       94.541       42.745        0.032        0.009       21.469        4.202        0.038      340.362       14.329      862.260
01/26/2014  16:54:00      -39.339      -11.173       -6.820       16.156        8.604        8.459      261.001       74.034       71.561        0.106        0.020       40.895        9.601        0.055      339.957       13.646      862.263
01/26/2014  16:55:00      -66.589       -1.301      -11.222       20.660       13.004        8.312      426.842      169.094       69.093        0.261        0.033       66.602        6.493        0.010      339.639       13.110      862.269
01/26/2014  16:56:00      -90.842       23.375       -4.570       31.479       25.766       13.706      990.920      663.868      187.856        0.533        0.092       93.801        8.543        0.008      339.804       13.387      862.264
01/26/2014  16:57:00      -80.521       13.960       -5.370       20.778       19.126       11.870      431.723      365.794      140.901        0.382        0.047       81.722        8.100        0.010      339.759       13.313      862.265
01/26/2014  16:58:00      -68.273        8.615      -10.638       19.244       15.541       10.393      370.318      241.525      108.007        0.278        0.036       68.815        8.480        0.015      339.784       13.354      862.267
01/26/2014  16:59:00      -60.457       10.144      -10.438       13.437       11.301        9.468      180.547      127.710       89.636        0.213        0.020       61.302        7.915        0.017      339.807       13.394      862.267
01/26/2014  17:00:00      -51.386        9.323       -6.696       13.128       13.297        8.823      172.344      176.806       77.849        0.160        0.021       52.225        4.342        0.007      339.737       13.276      862.268
01/26/2014  17:01:00      -59.332       15.448       -6.620       24.596       18.899       12.655      604.986      357.183      160.162        0.246        0.056       61.310       10.339        0.028      339.649       13.128      862.275
01/26/2014  17:02:00      -57.576       -4.153       -8.277       12.209       16.736       12.932      149.071      280.099      167.226        0.200        0.030       57.726        7.500        0.017      339.595       13.037      862.278
01/26/2014  17:03:00      -57.954      -14.600       -3.598       19.159       20.487       12.195      367.077      419.728      148.709        0.226        0.047       59.765       11.431        0.037      339.536       12.937      862.268
01/26/2014  17:04:00      -52.114      -10.057       -5.780       17.465       21.995        9.768      305.023      483.771       95.416        0.187        0.044       53.075       10.993        0.043      339.514       12.900      862.247
01/26/2014  17:05:00      -47.212       -6.126       -6.174       16.360       15.841       11.222      267.665      250.951      125.927        0.147        0.032       47.608        8.080        0.029      339.425       12.749      862.232
01/26/2014  17:06:00      -70.484       11.918      -12.492       31.456       25.215       17.979      989.488      635.816      323.249        0.361        0.097       71.485       12.057        0.028      339.242       12.440      862.228
01/26/2014  17:07:00      -64.028       -8.404       -5.272       28.294       26.667       18.404      800.565      711.138      338.709        0.302        0.093       64.577       13.872        0.046      339.068       12.148      862.223
01/26/2014  17:08:00      -72.054      -24.350       -1.484       48.924       35.950       25.467     2393.566     1292.372      648.574        0.506        0.217       76.057       24.155        0.101      338.875       11.823      862.212
01/26/2014  17:09:00     -108.801      -31.225      -14.026       29.497       39.325       20.624      870.062     1546.459      425.354        0.793        0.142      113.193       14.022        0.015      338.746       11.608      862.222
01/26/2014  17:10:00     -110.010      -22.690       -4.797       49.588       41.205       23.627     2459.000     1697.824      558.233        0.868        0.236      112.326       23.017        0.042      338.691       11.514      862.232
01/26/2014  17:11:00      -76.003        3.206        0.638       60.182       32.834       21.633     3621.845     1078.090      467.979        0.548        0.258       76.071       24.895        0.107      338.659       11.459      862.238
01/26/2014  17:12:00     -112.752      -11.232      -13.869       51.234       43.378       26.505     2624.950     1881.625      702.495        0.912        0.260      113.310       24.017        0.045      338.757       11.626      862.238
01/26/2014  17:13:00     -124.923      -11.154       -9.168       50.405       31.409       26.249     2540.672      986.526      689.033        1.001        0.211      125.420       26.767        0.046      338.715       11.554      862.227
01/26/2014  17:14:00     -108.288      -27.190       -1.681       39.979       24.198       17.806     1598.327      585.529      317.051        0.748        0.125      111.649       18.487        0.027      338.687       11.508      862.216
01/26/2014  17:15:00     -130.956      -31.721      -12.915       23.499       22.394       15.164      552.211      501.496      229.945        0.980        0.064      134.743       11.104        0.007      338.586       11.339      862.206
01/26/2014  17:16:00      -89.053      -18.241        5.695       33.322       29.195       20.840     1110.352      852.349      434.290        0.535        0.120       90.902       19.814        0.048      338.527       11.241      862.199
01/26/2014  17:17:00      -89.323      -29.662        3.900       34.561       25.692       17.607     1194.461      660.064      310.011        0.552        0.108       94.119       17.821        0.036      338.555       11.285      862.201
01/26/2014  17:18:00      -97.212      -39.186        2.233       26.241       26.409       14.957      688.582      697.455      223.707        0.630        0.080      104.813       13.265        0.016      338.590       11.345      862.216
01/26/2014  17:19:00     -123.899      -44.986       -6.312       27.823       18.043       18.679      774.108      325.558      348.896        0.943        0.072      131.813       15.597        0.014      338.480       11.161      862.220
01/26/2014  17:20:00     -133.101      -35.203       -8.204       24.537       15.094       12.104      602.063      227.827      146.498        1.000        0.049      137.677       13.039        0.009      338.421       11.061      862.218
01/26/2014  17:21:00     -125.567      -29.364      -17.338       25.123       17.367       14.518      631.171      301.625      210.760        0.904        0.057      128.955       13.559        0.011      338.464       11.133      862.210
01/26/2014  17:22:00     -104.236      -26.950       -5.460       25.969       21.131       15.086      674.414      446.540      227.580        0.648        0.067      107.663       10.728        0.010      338.467       11.139      862.198
01/26/2014  17:23:00      -89.728      -32.391       -4.827       22.448       24.983       13.644      503.929      624.171      186.148        0.522        0.066       95.395       12.725        0.018      338.424       11.067      862.179
01/26/2014  17:24:00     -103.098      -50.742        0.176       23.852       19.433       15.095      568.895      377.622      227.852        0.719        0.059      114.909       13.274        0.013      338.530       11.245      862.165
01/26/2014  17:25:00     -143.487      -27.061      -11.646       20.518       29.945       17.526      421.008      896.682      307.147        1.154        0.081      146.017       14.556        0.010      338.581       11.330      862.162
01/26/2014  17:26:00      -99.842       -3.986       -3.154       33.425       34.542       22.646     1117.205     1193.129      512.824        0.641        0.141       99.921       20.403        0.042      338.449       11.108      862.166
01/26/2014  17:27:00      -62.988      -10.128       -7.929       39.814       26.674       16.977     1585.160      711.512      288.230        0.336        0.129       63.797       13.492        0.045      338.368       10.971      862.180
01/26/2014  17:28:00      -39.612      -40.221       -0.040       26.315       25.593       12.514      692.481      655.006      156.592        0.235        0.075       56.452       12.576        0.050      338.390       11.008      862.198
01/26/2014  17:29:00      -75.362      -68.956      -16.076       31.653       24.261       20.850     1001.881      588.617      434.726        0.636        0.101      102.149       19.845        0.038      338.218       10.718      862.224
01/26/2014  17:30:00     -129.525      -44.891      -14.902       21.990       21.324       14.250      483.558      454.717      203.067        1.008        0.057      137.084       10.715        0.006      337.944       10.260      862.229
01/26/2014  17:31:00      -92.600      -61.467       -1.212       33.014       27.878       18.326     1089.914      777.160      335.835        0.728        0.110      111.144       11.097        0.010      337.881       10.155      862.239
01/26/2014  17:32:00     -125.615      -22.784      -10.133       29.701       17.134       17.736      882.150      293.561      314.564        0.895        0.075      127.665       18.738        0.022      337.634        9.740      862.252
01/26/2014  17:33:00     -126.861      -13.698       -5.122       43.344       23.418       23.687     1878.728      548.419      561.067        0.965        0.149      127.598       23.128        0.033      337.793       10.007      862.263
01/26/2014  17:34:00     -107.727      -12.325       -4.878       38.275       31.126       22.258     1464.991      968.803      495.425        0.735        0.146      108.430       19.781        0.033      337.850       10.103      862.269
01/26/2014  17:35:00     -105.135       -3.416       -4.793       46.009       41.066       25.176     2116.808     1686.406      633.852        0.776        0.222      105.190       25.718        0.060      337.895       10.177      862.272
01/26/2014  17:36:00      -77.360      -30.075        0.943       31.877       36.348       22.107     1016.148     1321.141      488.737        0.486        0.141       83.000       19.138        0.053      337.830       10.068      862.279
01/26/2014  17:37:00     -109.985      -23.962       -7.077       27.982       42.966       16.511      783.010     1846.095      272.614        0.781        0.145      112.565       10.601        0.009      337.903       10.193      862.291
01/26/2014  17:38:00     -105.912      -36.090       -9.174       33.816       31.230       17.399     1143.508      975.298      302.719        0.751        0.121      111.892       15.691        0.020      337.662        9.788      862.305
01/26/2014  17:39:00      -94.827        0.114      -10.116       52.080       42.073       22.549     2712.299     1770.098      508.476        0.704        0.250       94.827       21.918        0.053      337.768        9.966      862.325
01/26/2014  17:40:00     -140.984       26.328      -12.451       59.070       45.839       26.998     3489.230     2101.193      728.910        1.352        0.316      143.421       22.802        0.025      337.913       10.208      862.362
01/26/2014  17:41:00     -173.636       35.138       -4.811       46.030       34.998       22.572     2118.716     1224.834      509.496        1.763        0.193      177.156       20.663        0.014      338.038       10.418      862.395
01/26/2014  17:42:00     -189.154       14.963      -17.699       31.419       21.993       17.637      987.127      483.679      311.050        1.905        0.089      189.745       15.213        0.006      337.949       10.268      862.424
01/26/2014  17:43:00     -184.045       42.239       -8.878       42.830       34.313       20.379     1834.417     1177.352      415.305        1.958        0.171      188.829       18.849        0.010      337.816       10.044      862.437
01/26/2014  17:44:00     -176.974       23.233      -15.246       48.009       41.063       25.801     2304.906     1686.159      665.717        1.837        0.233      178.492       26.464        0.022      337.798       10.015      862.438
01/26/2014  17:45:00     -174.758        1.985      -19.845       41.087       34.332       21.082     1688.181     1178.703      444.444        1.712        0.166      174.770       16.342        0.009      337.716        9.879      862.434
01/26/2014  17:46:00     -173.016      -11.938      -17.620       40.172       38.699       28.518     1613.818     1497.634      813.271        1.716        0.196      173.428       22.836        0.017      337.633        9.739      862.427
01/26/2014  17:47:00     -132.106      -23.234       -8.864       53.030       35.473       26.537     2812.182     1258.299      704.230        1.142        0.239      134.134       22.668        0.029      337.487        9.495      862.433
01/26/2014  17:48:00     -128.715       -2.640       -9.057       46.476       37.623       21.385     2160.017     1415.489      457.333        1.034        0.202      128.742       19.146        0.022      337.429        9.397      862.441
01/26/2014  17:49:00     -148.278       23.467       -8.721       37.112       39.646       19.916     1377.308     1571.770      396.639        1.298        0.167      150.123       14.395        0.009      337.466        9.459      862.444
01/26/2014  17:50:00     -174.146       20.227      -17.903       40.107       39.873       20.209     1608.559     1589.828      408.420        1.733        0.180      175.317       16.764        0.009      337.503        9.520      862.456
01/26/2014  17:51:00     -154.909       27.336       -8.307       51.601       44.443       28.052     2662.629     1975.141      786.900        1.512        0.271      157.303       22.334        0.020      337.401        9.350      862.463
01/26/2014  17:52:00     -185.358       45.210       -9.687       47.707       37.322       24.868     2275.939     1392.901      618.407        2.039        0.214      190.792       16.589        0.008      337.352        9.266      862.456
01/26/2014  17:53:00     -193.422       38.549      -15.333       47.649       39.088       21.694     2270.388     1527.880      470.614        2.170        0.213      197.226       15.678        0.006      337.280        9.146      862.447
01/26/2014  17:54:00     -136.959        0.472      -11.928       50.194       40.479       25.309     2519.419     1638.544      640.557        1.185        0.240      136.960       23.377        0.029      337.237        9.077      862.443
01/26/2014  17:55:00     -160.479       -0.444      -10.053       73.279       36.123       30.903     5369.810     1304.846      954.970        1.674        0.381      160.480       33.464        0.043      337.205        9.020      862.442
01/26/2014  17:56:00     -147.882      -11.656       -9.402       60.849       45.476       34.604     3702.606     2068.111     1197.433        1.453        0.348      148.340       33.602        0.051      337.126        8.889      862.442
01/26/2014  17:57:00     -194.122      -55.197      -22.643       42.715       40.098       27.514     1824.573     1607.889      757.033        2.272        0.209      201.817       21.694        0.012      337.057        8.773      862.433
01/26/2014  17:58:00     -164.597      -38.595      -11.619       47.332       47.616       27.889     2240.297     2267.310      777.791        1.700        0.264      169.061       24.999        0.022      337.063        8.782      862.439
01/26/2014  17:59:00     -156.099      -17.160       -6.327       57.713       42.858       27.008     3330.775     1836.805      729.448        1.530        0.295      157.039       31.786        0.041      336.975        8.636      862.446
01/26/2014  18:00:00     -152.221      -37.819       -5.246       42.929       28.661       23.309     1842.928      821.468      543.298        1.392        0.160      156.849       22.100        0.020      337.002        8.681      862.453
01/26/2014  18:01:00     -113.926      -12.297       -3.346       50.751       30.858       25.773     2575.649      952.204      664.272        0.867        0.210      114.588       27.130        0.056      336.960        8.611      862.453
01/26/2014  18:02:00      -78.164      -45.790        5.726       37.575       26.322       19.324     1411.877      692.823      373.419        0.536        0.124       90.589       18.321        0.041      337.045        8.753      862.439
01/26/2014  18:03:00     -106.620      -52.634        3.835       43.150       25.619       19.577     1861.891      656.359      383.277        0.853        0.145      118.904       21.859        0.034      337.168        8.960      862.416
01/26/2014  18:04:00      -79.246      -33.675        4.822       43.734       30.437       21.492     1912.636      926.426      461.896        0.537        0.165       86.105       21.980        0.065      337.190        8.997      862.403
01/26/2014  18:05:00      -80.001      -39.868        5.795       37.458       21.377       17.232     1403.105      456.969      296.952        0.509        0.108       89.385       17.371        0.038      337.207        9.026      862.407
01/26/2014  18:06:00     -125.871      -56.774       -5.214       23.948       19.064       16.023      573.525      363.441      256.727        1.014        0.060      138.082       10.453        0.006      337.316        9.209      862.420
01/26/2014  18:07:00      -95.146      -56.914        5.020       38.039       27.231       18.911     1446.950      741.548      357.617        0.743        0.127      110.869       15.080        0.019      337.286        9.158      862.447
01/26/2014  18:08:00     -115.396      -45.205       10.424       36.809       24.556       21.530     1354.885      603.016      463.534        0.894        0.121      123.934       22.574        0.033      337.234        9.071      862.472
01/26/2014  18:09:00     -122.189      -41.857        4.429       24.371       20.098       16.226      593.927      403.910      263.271        0.898        0.063      129.159       14.543        0.013      337.319        9.213      862.480
01/26/2014  18:10:00     -111.964      -45.309        1.770       33.198       24.601       13.400     1102.115      605.187      179.565        0.824        0.094      120.784       13.533        0.013      337.392        9.335      862.458
01/26/2014  18:11:00      -71.504      -22.362        2.742       28.280       21.313       14.439      799.763      454.239      208.491        0.354        0.073       74.919       15.326        0.042      337.394        9.339      862.428
01/26/2014  18:12:00      -60.181      -14.924        1.393       28.871       20.992       16.465      833.520      440.673      271.080        0.270        0.077       62.004       13.205        0.045      337.273        9.137      862.399
01/26/2014  18:13:00      -92.499      -20.218       -6.127       30.098       19.192       13.422      905.860      368.345      180.155        0.523        0.073       94.683       11.050        0.014      337.216        9.042      862.374
01/26/2014  18:14:00     -107.155      -31.832       -2.047       31.634       20.185       15.846     1000.683      407.440      251.098        0.708        0.083      111.783       17.798        0.025      337.136        8.908      862.369
01/26/2014  18:15:00     -134.986      -28.262       -1.233       25.165       20.192       14.938      633.270      407.721      223.157        1.014        0.063      137.913       13.466        0.010      337.060        8.780      862.385
01/26/2014  18:16:00     -119.091      -30.957        1.772       45.100       27.310       19.928     2034.025      745.840      397.111        0.916        0.159      123.048       22.643        0.034      337.065        8.786      862.413
01/26/2014  18:17:00     -141.709      -66.337       -6.321       26.289       24.199       17.534      691.116      585.575      307.428        1.305        0.079      156.468       13.495        0.007      336.983        8.650      862.446
01/26/2014  18:18:00     -146.670      -54.108       -6.858       36.300       32.877       21.437     1317.711     1080.907      459.535        1.367        0.143      156.332       16.635        0.011      336.916        8.539      862.473
01/26/2014  18:19:00     -147.552      -36.558       -8.495       33.178       30.432       23.251     1100.766      926.077      540.589        1.287        0.128      152.013       14.293        0.009      336.716        8.205      862.492
01/26/2014  18:20:00     -159.814      -20.204      -10.055       36.605       26.480       21.808     1339.955      701.188      475.610        1.428        0.126      161.086       17.469        0.012      336.588        7.992      862.494
01/26/2014  18:21:00     -136.036       -9.083       -6.452       64.497       35.734       30.342     4159.843     1276.926      920.631        1.249        0.318      136.339       30.414        0.050      336.609        8.026      862.504
01/26/2014  18:22:00     -143.297      -20.830       -4.551       54.405       35.683       25.775     2959.920     1273.267      664.359        1.294        0.245      144.803       30.581        0.045      336.641        8.079      862.507
01/26/2014  18:23:00     -180.985      -52.168      -19.473       36.116       26.160       21.593     1304.352      684.357      466.259        1.916        0.123      188.354       14.280        0.006      336.576        7.971      862.501
01/26/2014  18:24:00     -151.754      -22.887       -8.447       50.581       29.174       25.909     2558.465      851.136      671.260        1.385        0.204      153.470       26.432        0.030      336.576        7.972      862.493
01/26/2014  18:25:00     -133.126      -30.979       -1.247       49.308       31.696       25.401     2431.316     1004.612      645.203        1.138        0.204      136.683       24.506        0.032      336.516        7.870      862.489
01/26/2014  18:26:00     -133.970      -26.476       -2.396       46.501       33.129       24.637     2162.373     1097.563      606.960        1.126        0.193      136.561       20.821        0.023      336.372        7.630      862.492
01/26/2014  18:27:00     -108.952      -65.313       -1.235       30.140       33.877       22.565      908.423     1147.638      509.176        0.935        0.128      127.029       14.907        0.014      336.319        7.540      862.497
01/26/2014  18:28:00     -107.016      -44.498       -0.858       37.919       37.937       20.130     1437.862     1439.196      405.226        0.836        0.164      115.899       19.772        0.029      336.277        7.471      862.493
01/26/2014  18:29:00     -116.337      -44.745      -15.957       27.238       30.404       20.879      741.912      924.386      435.947        0.895        0.105      124.645        4.539        0.001      336.249        7.424      862.477
01/26/2014  18:30:00     -135.585      -18.625      -12.666       35.684       30.099       20.244     1273.343      905.972      409.809        1.074        0.129      136.858       17.424        0.016      336.169        7.290      862.483
01/26/2014  18:31:00      -85.353      -29.368       -4.967       38.181       22.249       13.637     1457.797      495.031      185.969        0.516        0.107       90.264       12.963        0.021      336.083        7.146      862.496
01/26/2014  18:32:00     -153.350      -33.171      -26.440       24.346       19.876       13.595      592.725      395.044      184.828        1.324        0.059      156.896        9.631        0.004      336.114        7.198      862.508
01/26/2014  18:33:00     -147.885      -37.389      -19.326       23.951       20.944       15.368      573.672      438.661      236.184        1.244        0.062      152.538        9.010        0.003      336.077        7.136      862.530
01/26/2014  18:34:00      -91.071      -55.144      -19.323       48.182       29.293       28.298     2321.464      858.071      800.788        0.784        0.199      106.464       25.067        0.055      336.177        7.303      862.553
01/26/2014  18:35:00     -166.729      -37.449      -17.897       22.341       17.989       13.589      499.138      323.618      184.659        1.526        0.050      170.883        6.345        0.001      336.036        7.068      862.580
01/26/2014  18:36:00     -177.113      -52.979      -19.005       30.210       23.328       19.972      912.621      544.201      398.888        1.820        0.093      184.866       15.632        0.007      336.002        7.010      862.620
01/26/2014  18:37:00     -165.253      -60.896      -14.434       34.027       28.073       19.574     1157.806      788.095      383.145        1.678        0.116      176.116       16.067        0.008      336.055        7.099      862.651
01/26/2014  18:38:00     -165.167      -34.638      -17.729       19.592       23.289       17.370      383.856      542.364      301.718        1.501        0.061      168.760        8.195        0.002      336.018        7.038      862.680
01/26/2014  18:39:00     -155.416      -25.503      -12.510       36.122       20.995       20.352     1304.794      440.795      414.189        1.356        0.108      157.494       20.350        0.017      335.987        6.985      862.701
01/26/2014  18:40:00     -110.731       -4.439       -3.417       55.814       47.546       29.900     3115.160     2260.622      894.019        0.928        0.313      110.820       33.092        0.089      336.057        7.102      862.705
01/26/2014  18:41:00     -101.176        7.192       -8.064       66.772       39.462       29.580     4458.510     1557.213      874.995        0.862        0.345      101.431       33.549        0.109      336.114        7.198      862.712
01/26/2014  18:42:00      -39.835      -14.894      -13.879       40.946       42.727       23.029     1676.558     1825.613      530.354        0.302        0.202       42.528       15.815        0.138      336.188        7.323      862.721
01/26/2014  18:43:00      -69.780      -22.196      -15.486       37.137       34.221       23.562     1379.142     1171.052      555.188        0.435        0.155       73.225       16.011        0.048      336.181        7.311      862.721
01/26/2014  18:44:00      -86.932      -38.450      -14.835       31.560       24.015       20.490      996.013      576.715      419.859        0.562        0.100       95.056       14.135        0.022      335.990        6.992      862.719
01/26/2014  18:45:00      -93.866      -16.848      -25.370       33.545       26.675       20.611     1125.239      711.550      424.795        0.600        0.113       95.366       12.366        0.017      336.001        7.010      862.710
01/26/2014  18:46:00      -89.738      -13.930      -16.096       23.738       28.274       18.399      563.507      799.446      338.514        0.510        0.085       90.812       16.248        0.032      335.962        6.945      862.699
01/26/2014  18:47:00     -109.462      -19.336      -20.456       28.966       28.242       17.509      839.018      797.612      306.551        0.736        0.097      111.157       12.008        0.012      335.938        6.905      862.704
01/26/2014  18:48:00     -144.448        3.960      -24.056       23.964       14.908       17.165      574.278      222.248      294.624        1.128        0.055      144.503       11.906        0.007      335.927        6.887      862.721
01/26/2014  18:49:00     -137.275        0.276      -19.172       29.157       26.290       18.214      850.119      691.171      331.747        1.054        0.094      137.275       13.965        0.010      335.895        6.833      862.734
01/26/2014  18:50:00     -147.728        5.959      -26.362       24.149       18.153       16.287      583.194      329.518      265.267        1.187        0.059      147.848        9.805        0.004      335.908        6.853      862.746
01/26/2014  18:51:00     -146.004        9.691      -24.752       20.677       18.533       17.151      427.552      343.461      294.164        1.154        0.053      146.326        9.018        0.004      335.904        6.848      862.761
01/26/2014  18:52:00     -116.319       -8.524      -22.731       19.519       22.193       16.777      380.998      492.514      281.472        0.764        0.058      116.631       12.650        0.012      335.908        6.854      862.785
01/26/2014  18:53:00      -85.205       -8.146      -17.264       26.530       21.108       19.315      703.817      445.545      373.071        0.457        0.076       85.594       14.046        0.027      335.935        6.900      862.807
01/26/2014  18:54:00     -108.010       -3.471      -26.472       28.446       22.136       16.513      809.184      490.001      272.666        0.698        0.079      108.065       10.924        0.010      335.929        6.889      862.834
01/26/2014  18:55:00      -84.722       -2.913      -12.684       41.689       26.226       19.392     1737.988      687.816      376.053        0.507        0.140       84.772       20.069        0.056      336.060        7.108      862.864
01/26/2014  18:56:00     -103.000       24.901      -24.743       42.710       35.906       23.678     1824.147     1289.209      560.640        0.776        0.184      105.967       15.750        0.022      336.113        7.196      862.892
01/26/2014  18:57:00      -95.381      -12.865      -24.886       36.301       32.376       20.554     1317.761     1048.220      422.484        0.633        0.139       96.245       12.971        0.018      336.076        7.135      862.906
01/26/2014  18:58:00      -75.669      -14.968      -13.891       26.270       32.931       19.963      690.109     1084.479      398.537        0.416        0.109       77.135       17.268        0.050      335.976        6.968      862.902
01/26/2014  18:59:00      -80.019      -33.093      -17.776       35.742       22.569       19.073     1277.523      509.374      363.786        0.498        0.108       86.592        6.406        0.005      335.995        7.000      862.901
01/26/2014  19:00:00      -63.546      -22.511      -20.718       25.841       19.783       12.941      667.747      391.365      167.477        0.310        0.061       67.416        8.617        0.016      335.982        6.976      862.886
01/26/2014  19:01:00      -82.403      -17.069      -18.442       16.757       21.385       12.694      280.794      457.315      161.141        0.416        0.045       84.152        9.028        0.012      335.985        6.982      862.887
01/26/2014  19:02:00     -100.889       -2.559      -15.593       24.420       17.070       16.572      596.329      291.401      274.629        0.580        0.058      100.922        6.935        0.005      336.031        7.061      862.899
01/26/2014  19:03:00     -120.454        3.660      -20.490       25.977       20.135       17.727      674.783      405.419      314.234        0.817        0.070      120.509       10.709        0.008      336.143        7.247      862.905
01/26/2014  19:04:00     -105.451        6.503      -17.367       36.471       22.402       19.702     1330.153      501.844      388.156        0.684        0.111      105.652       15.583        0.022      336.177        7.304      862.929
01/26/2014  19:05:00     -139.425        8.291      -29.402       46.704       24.290       16.687     2181.258      590.004      278.442        1.171        0.152      139.671       18.834        0.018      336.143        7.247      862.926
01/26/2014  19:06:00     -115.908        1.695      -20.034       44.476       29.256       19.788     1978.146      855.915      391.561        0.853        0.161      115.920       14.529        0.016      335.969        6.956      862.929
01/26/2014  19:07:00     -109.793        2.124      -25.675       37.007       22.774       20.373     1369.508      518.673      415.039        0.751        0.115      109.814       13.802        0.016      335.872        6.795      862.929
01/26/2014  19:08:00     -101.290        1.381      -32.509       29.282       26.953       21.319      857.408      726.441      454.501        0.668        0.102      101.300       12.423        0.015      336.038        7.073      862.918
01/26/2014  19:09:00      -84.526        0.951      -17.368       35.006       20.923       16.448     1225.422      437.757      270.547        0.469        0.097       84.531       15.075        0.032      336.013        7.031      862.925
01/26/2014  19:10:00     -112.746       -1.197      -23.164       20.875       17.249       13.493      435.785      297.537      182.060        0.708        0.046      112.752       10.941        0.009      336.208        7.355      862.928
01/26/2014  19:11:00      -95.920       -2.983      -23.282       29.080       15.343       15.007      845.660      235.415      225.220        0.553        0.065       95.966       11.832        0.015      336.269        7.457      862.948
01/26/2014  19:12:00     -103.968      -12.726      -13.120       16.615       15.248       12.062      276.070      232.491      145.481        0.590        0.033      104.744        7.916        0.006      336.049        7.091      862.957
01/26/2014  19:13:00      -86.931      -10.201      -17.468       15.263       20.362       14.979      232.953      414.598      224.363        0.442        0.044       87.528        9.696        0.012      336.113        7.197      862.968
01/26/2014  19:14:00      -85.654      -28.057      -15.024       19.899       23.403       15.523      395.962      547.695      240.977        0.477        0.059       90.132       11.089        0.015      336.127        7.219      862.975
01/26/2014  19:15:00     -114.857       -3.131      -22.867       23.120       22.188       16.778      534.522      492.286      281.498        0.752        0.065      114.899       10.648        0.009      336.112        7.194      862.978
01/26/2014  19:16:00     -100.689      -13.079      -22.256       29.020       20.237       13.332      842.159      409.539      177.749        0.612        0.071      101.534       12.996        0.016      336.054        7.097      862.987
01/26/2014  19:17:00      -74.631       -4.674      -18.748       25.540       20.354       16.453      652.267      414.267      270.695        0.364        0.067       74.778       12.935        0.030      336.051        7.092      862.982
01/26/2014  19:18:00      -91.875       -8.013      -11.902       40.113       27.426       18.346     1609.032      752.164      336.571        0.567        0.135       92.224       21.716        0.055      336.104        7.182      863.011
01/26/2014  19:19:00      -86.955      -26.458       -6.856       41.126       33.446       20.404     1691.332     1118.624      416.334        0.577        0.161       90.892       21.237        0.055      335.865        6.784      863.023
01/26/2014  19:20:00      -37.376      -11.035       -2.382       37.689       34.231       24.772     1420.451     1171.740      613.666        0.236        0.160       38.971       24.002        0.379      335.900        6.841      863.039
01/26/2014  19:21:00      -34.511        5.864      -11.522       36.565       28.328       18.178     1337.029      802.489      330.426        0.191        0.123       35.005       13.789        0.155      336.090        7.158      863.063
01/26/2014  19:22:00      -77.175       27.653      -24.547       39.979       34.011       17.344     1598.302     1156.756      300.827        0.519        0.153       81.980       15.209        0.034      336.328        7.555      863.067
01/26/2014  19:23:00      -76.361       18.479      -20.594       32.015       22.006       15.456     1024.969      484.253      238.886        0.417        0.087       78.565       11.353        0.021      336.343        7.580      863.084
01/26/2014  19:24:00      -82.400      -13.663       -1.816       29.313       23.972       13.851      859.277      574.680      191.858        0.430        0.081       83.525       15.087        0.033      336.153        7.263      863.076
01/26/2014  19:25:00      -75.403       -2.297       -5.142       19.815       23.114       16.637      392.632      534.274      276.796        0.346        0.060       75.438       11.227        0.022      336.204        7.348      863.064
01/26/2014  19:26:00      -71.597        9.553      -16.495       15.503       16.229       10.469      240.331      263.369      109.603        0.305        0.031       72.232        9.208        0.016      336.427        7.723      863.052
01/26/2014  19:27:00      -45.446      -12.906      -11.416       22.673       16.354       10.992      514.063      267.445      120.817        0.163        0.045       47.243       12.532        0.070      336.408        7.690      863.039
01/26/2014  19:28:00      -68.275      -18.323      -12.856       12.804       10.683        8.993      163.935      114.117       80.879        0.276        0.018       70.691        6.723        0.009      336.279        7.474      863.047
01/26/2014  19:29:00      -72.934      -32.191      -11.611       18.242       15.210       10.718      332.773      231.332      114.868        0.358        0.034       79.723       11.719        0.022      336.226        7.385      863.059
01/26/2014  19:30:00      -77.079       -5.506      -13.323       13.612        8.824        8.150      185.296       77.859       66.427        0.324        0.016       77.275        5.733        0.006      336.219        7.374      863.075
01/26/2014  19:31:00      -84.786       -7.730      -17.947       13.823       11.331        8.207      191.080      128.386       67.352        0.398        0.019       85.138        6.758        0.006      336.216        7.368      863.090
01/26/2014  19:32:00     -103.854      -12.427      -21.075       10.306       11.112        9.570      106.214      123.469       91.588        0.585        0.016      104.594        6.190        0.004      336.153        7.263      863.096
01/26/2014  19:33:00     -107.514      -13.533      -18.153       10.023       10.748        7.330      100.460      115.514       53.731        0.617        0.013      108.362        4.468        0.002      336.075        7.133      863.094
01/26/2014  19:34:00      -78.106      -23.221      -10.424       14.778       22.889       13.540      218.393      523.919      183.327        0.384        0.046       81.485       12.432        0.023      336.092        7.162      863.085
01/26/2014  19:35:00      -81.181      -20.758      -11.221       24.042       20.139       16.463      578.012      405.593      271.034        0.420        0.063       83.792       14.965        0.032      336.033        7.062      863.095
01/26/2014  19:36:00      -42.878      -29.036      -14.624       27.080       15.232       14.132      733.318      232.028      199.711        0.203        0.058       51.784       13.329        0.066      335.965        6.951      863.113
01/26/2014  19:37:00      -58.402      -44.437      -11.831       26.089       18.989       18.918      680.631      360.601      357.879        0.346        0.070       73.385       12.308        0.028      335.923        6.881      863.119
01/26/2014  19:38:00      -66.612      -44.573       -4.048       18.538       27.598       21.619      343.675      761.663      467.379        0.401        0.079       80.150       10.199        0.016      335.897        6.836      863.123
01/26/2014  19:39:00      -30.665      -42.425       -0.165       27.137       25.060       25.005      736.428      628.024      625.251        0.236        0.099       52.347       19.394        0.137      335.878        6.804      863.134
01/26/2014  19:40:00      -75.984      -23.867       -7.397       25.826       18.800       17.392      666.978      353.439      302.468        0.386        0.066       79.644       17.802        0.050      335.838        6.738      863.151
01/26/2014  19:41:00      -94.144      -18.349      -20.477       14.303       14.656        9.661      204.567      214.799       93.342        0.507        0.026       95.915        7.760        0.007      335.984        6.982      863.162
01/26/2014  19:42:00      -94.798      -26.061      -11.126       20.559       22.173       14.618      422.665      491.637      213.683        0.546        0.056       98.315       12.806        0.017      335.791        6.662      863.189
01/26/2014  19:43:00      -67.502      -48.434      -12.638       23.144       22.001       16.602      535.663      484.050      275.616        0.418        0.065       83.080       13.601        0.027      335.722        6.546      863.237
01/26/2014  19:44:00      -98.268      -27.134      -15.993       33.285       25.878       18.146     1107.922      669.653      329.295        0.638        0.105      101.945       16.719        0.027      335.688        6.489      863.302
01/26/2014  19:45:00      -82.237       -2.998      -15.737       30.834       25.634       19.004      950.718      657.088      361.169        0.449        0.098       82.292       16.526        0.040      335.562        6.278      863.353
01/26/2014  19:46:00      -79.575       -6.093      -19.132       30.017       23.405       14.998      901.035      547.796      224.945        0.420        0.084       79.808       11.763        0.022      335.711        6.529      863.372
01/26/2014  19:47:00      -66.981       -7.966      -15.597       40.780       21.106       15.481     1663.035      445.469      239.658        0.357        0.117       67.453       18.022        0.071      335.637        6.404      863.376
01/26/2014  19:48:00      -30.386       -6.662      -12.827       14.084       14.431        9.913      198.351      208.265       98.277        0.082        0.025       31.108        7.437        0.057      335.694        6.498      863.362
01/26/2014  19:49:00      -62.534      -11.735      -17.529       19.492       16.129       12.901      379.946      260.137      166.441        0.258        0.040       63.625        8.923        0.020      335.990        6.992      863.331
01/26/2014  19:50:00      -63.020      -12.134      -12.190       13.489       16.007       12.736      181.954      256.218      162.201        0.243        0.030       64.178        5.152        0.006      335.985        6.984      863.312
01/26/2014  19:51:00      -48.705        3.408      -14.676       27.877       16.693       15.013      777.149      278.648      225.382        0.194        0.064       48.824       12.596        0.067      336.434        7.733      863.314
01/26/2014  19:52:00      -68.644      -14.870      -17.264        9.546        9.670       10.121       91.135       93.504      102.426        0.276        0.014       70.236        7.111        0.010      335.975        6.967      863.317
01/26/2014  19:53:00      -63.917      -22.173      -17.873        9.193       10.800        8.225       84.520      116.640       67.650        0.258        0.013       67.654        5.792        0.007      336.039        7.075      863.325
01/26/2014  19:54:00      -71.325      -38.289      -13.329       10.570        9.999        9.206      111.716       99.984       84.749        0.351        0.015       80.952        4.723        0.003      335.923        6.882      863.343
01/26/2014  19:55:00      -74.735      -42.792      -20.112       20.687       16.002       10.111      427.935      256.048      102.233        0.430        0.039       86.119        9.397        0.012      335.975        6.967      863.357
01/26/2014  19:56:00      -82.370      -52.337      -15.650       25.558       18.555       14.836      653.211      344.290      220.108        0.549        0.061       97.591        7.033        0.005      335.781        6.643      863.356
01/26/2014  19:57:00      -90.636      -35.389      -22.062       30.388       22.594       13.095      923.443      510.504      171.477        0.578        0.080       97.299       11.124        0.013      335.761        6.610      863.356
01/26/2014  19:58:00     -111.869      -47.057      -18.826       24.220       22.572       14.784      586.626      509.498      218.556        0.820        0.066      121.364       10.694        0.008      335.649        6.423      863.355
01/26/2014  19:59:00      -87.947      -55.060       -4.283       32.995       18.630       12.655     1088.661      347.090      160.153        0.619        0.080      103.760        9.672        0.009      335.647        6.420      863.374
01/26/2014  20:00:00      -92.727      -64.486       -5.121       36.093       23.394       20.052     1302.697      547.287      402.093        0.752        0.113      112.946       17.648        0.024      335.647        6.421      863.394
01/26/2014  20:01:00     -129.047      -74.207       -7.816       25.732       25.559       16.910      662.141      653.288      285.950        1.191        0.080      148.862       11.789        0.006      335.564        6.281      863.417
01/26/2014  20:02:00     -122.128      -67.614      -11.217       25.927       21.121       13.803      672.184      446.082      190.525        1.046        0.065      139.596        7.970        0.003      335.557        6.270      863.453
01/26/2014  20:03:00     -112.857      -69.890       -3.866       28.834       22.353       21.236      831.399      499.672      450.981        0.971        0.089      132.745       18.520        0.019      335.480        6.143      863.484
01/26/2014  20:04:00     -121.371      -61.726       -6.583       26.736       16.081       14.584      714.803      258.597      212.679        0.989        0.059      136.166       12.343        0.008      335.403        6.013      863.496
01/26/2014  20:05:00     -118.833      -60.683       -2.497       29.527       17.772       17.695      871.871      315.846      313.100        0.966        0.075      133.431       14.837        0.012      335.386        5.984      863.520
01/26/2014  20:06:00     -123.315      -49.102       -3.831       31.210       29.444       15.874      974.083      866.963      251.987        0.986        0.105      132.731       11.954        0.008      335.368        5.956      863.528
01/26/2014  20:07:00     -129.538      -58.889       -6.091       18.443       18.283       12.777      340.155      334.270      163.245        1.056        0.042      142.295        9.117        0.004      335.334        5.898      863.535
01/26/2014  20:08:00     -100.960      -34.314      -13.206       24.518       18.961       17.978      601.132      359.528      323.220        0.641        0.064      106.632       15.965        0.022      335.290        5.825      863.544
01/26/2014  20:09:00      -94.255      -50.444      -20.306       16.497       15.825       11.408      272.154      250.444      130.134        0.625        0.033      106.904        6.634        0.004      335.268        5.786      863.554
01/26/2014  20:10:00     -119.627      -49.441       -5.152       20.078       13.369       12.062      403.143      178.725      145.484        0.875        0.036      129.441        8.545        0.004      335.339        5.906      863.548
01/26/2014  20:11:00      -92.439      -48.848        0.720       46.191       30.094       20.011     2133.563      905.655      400.441        0.719        0.172      104.552       23.649        0.051      335.252        5.761      863.541
01/26/2014  20:12:00     -130.088      -43.742      -11.721       27.353       22.553       23.357      748.181      508.633      545.537        1.039        0.090      137.245       20.204        0.022      335.139        5.575      863.551
01/26/2014  20:13:00     -141.122      -59.915       -9.382       21.992       17.818       10.984      483.662      317.496      120.640        1.226        0.046      153.314        5.178        0.001      335.183        5.646      863.544
01/26/2014  20:14:00     -109.826      -47.656        3.281       30.567       22.249       16.668      934.324      495.025      277.811        0.803        0.085      119.720       15.519        0.017      335.239        5.740      863.523
01/26/2014  20:15:00     -123.145      -47.640       -2.047       27.037       16.706       13.400      731.014      279.103      179.571        0.931        0.059      132.039       12.146        0.008      335.291        5.826      863.512
01/26/2014  20:16:00      -97.917      -42.936        0.457       29.622       20.087       15.172      877.470      403.475      230.196        0.647        0.076      106.917       15.078        0.020      335.165        5.617      863.473
01/26/2014  20:17:00     -104.727      -43.126       -1.466       22.513       18.845       13.502      506.853      355.133      182.314        0.694        0.052      113.259       11.985        0.011      335.244        5.748      863.434
01/26/2014  20:18:00     -116.311      -42.361       -2.677       21.002       14.067       14.297      441.079      197.880      204.413        0.809        0.042      123.785       13.539        0.012      335.261        5.776      863.403
01/26/2014  20:19:00     -113.252      -50.327       -5.968       21.544       18.047       14.011      464.135      325.701      196.311        0.819        0.049      123.931       14.927        0.015      335.192        5.663      863.371
01/26/2014  20:20:00     -115.349      -77.428       -4.178       25.680       17.810       17.629      659.484      317.206      310.765        1.030        0.064      138.926       14.968        0.012      335.294        5.831      863.353
01/26/2014  20:21:00     -138.429      -80.311       -3.316       34.239       25.733       18.624     1172.341      662.166      346.855        1.390        0.109      160.039       14.092        0.008      335.294        5.832      863.341
01/26/2014  20:22:00     -125.617      -72.419       -1.900       35.083       27.083       22.965     1230.824      733.485      527.409        1.176        0.125      144.997       20.098        0.019      335.195        5.668      863.344
01/26/2014  20:23:00      -68.151      -51.025        8.412       42.978       31.808       24.036     1847.143     1011.745      577.713        0.538        0.172       85.136       20.857        0.060      335.112        5.531      863.357
01/26/2014  20:24:00      -87.915      -47.474        1.290       32.917       22.494       18.763     1083.518      505.996      352.055        0.596        0.097       99.914       16.827        0.028      335.005        5.353      863.392
01/26/2014  20:25:00      -80.138      -31.844        0.258       27.350       21.646       10.883      748.039      468.570      118.429        0.439        0.067       86.233       10.521        0.015      335.052        5.428      863.427
01/26/2014  20:26:00      -85.260      -54.663       -3.910       30.345       19.723       14.327      920.820      388.996      205.273        0.589        0.076      101.279       14.599        0.021      335.076        5.470      863.447
01/26/2014  20:27:00      -92.692      -58.119        0.098       23.945       31.331       20.167      573.345      981.652      406.693        0.697        0.098      109.406       18.560        0.029      334.982        5.314      863.471
01/26/2014  20:28:00     -142.952      -80.276       -9.157       31.571       19.447       15.484      996.723      378.170      239.766        1.429        0.081      163.950       12.851        0.006      335.045        5.419      863.481
01/26/2014  20:29:00     -155.436      -96.713       -5.131       35.765       24.929       18.999     1279.109      621.472      360.968        1.790        0.113      183.068       14.985        0.007      335.142        5.577      863.487
01/26/2014  20:30:00     -143.920      -82.292       -2.144       43.860       34.735       26.203     1923.699     1206.519      686.594        1.565        0.191      165.786       26.207        0.025      335.195        5.668      863.499
01/26/2014  20:31:00     -133.345      -85.641        0.488       41.489       29.045       24.485     1721.333      843.619      599.498        1.414        0.158      158.478       22.612        0.020      335.123        5.549      863.490
01/26/2014  20:32:00     -164.639      -53.139       -5.410       19.117       18.616       17.474      365.456      346.541      305.340        1.549        0.051      173.002       10.889        0.004      335.118        5.540      863.483
01/26/2014  20:33:00     -148.071      -44.691       -5.638       26.134       20.922       14.388      683.000      437.750      207.013        1.264        0.066      154.668       11.427        0.005      335.126        5.552      863.475
01/26/2014  20:34:00     -136.786      -52.434       -4.487       24.213       17.742       13.833      586.246      314.790      191.343        1.129        0.055      146.492       12.514        0.007      335.083        5.483      863.466
01/26/2014  20:35:00      -98.724      -46.879        4.264       44.696       28.594       19.003     1997.737      817.599      361.101        0.757        0.159      109.289       22.774        0.043      335.083        5.483      863.468
01/26/2014  20:36:00      -49.069      -38.674        4.043       31.221       28.087       19.758      974.751      788.896      390.370        0.304        0.108       62.477       16.481        0.070      334.976        5.305      863.459
01/26/2014  20:37:00      -12.179      -18.405       12.574       23.886       16.310       12.522      570.558      266.030      156.812        0.082        0.050       22.070        8.815        0.160      334.967        5.288      863.460
01/26/2014  20:38:00      -38.327      -31.023       -5.380       22.755       17.323       12.149      517.795      300.097      147.608        0.171        0.048       49.309       13.781        0.078      335.129        5.557      863.465
01/26/2014  20:39:00      -30.316      -24.537       -0.975       24.464       15.782       11.551      598.466      249.061      133.424        0.125        0.049       39.002       11.501        0.087      335.198        5.673      863.472
01/26/2014  20:40:00      -17.206        2.278        0.703       10.951        7.346        6.840      119.934       53.971       46.792        0.026        0.011       17.356        3.001        0.030      335.111        5.527      863.483
01/26/2014  20:41:00      -46.429       -9.828       -4.892       10.202        8.023        7.967      104.083       64.370       63.467        0.125        0.012       47.458        6.051        0.016      335.202        5.677      863.498
01/26/2014  20:42:00      -35.201      -24.963       -1.657       10.106        8.098        7.241      102.124       65.575       52.433        0.104        0.011       43.154        5.974        0.019      335.090        5.494      863.509
01/26/2014  20:43:00      -41.354      -29.166       -8.673       11.677        6.081        4.945      136.355       36.977       24.456        0.142        0.010       50.604        2.456        0.002      334.971        5.296      863.506
01/26/2014  20:44:00      -63.608      -35.259       -8.495        8.119        8.970        5.885       65.919       80.467       34.633        0.277        0.009       72.727        3.853        0.003      334.976        5.305      863.497
01/26/2014  20:45:00      -54.652      -38.779       -6.045       16.593       10.222       12.279      275.342      104.496      150.764        0.253        0.027       67.012        8.823        0.017      334.761        4.947      863.485
01/26/2014  20:46:00      -80.947      -48.040       -9.552       15.370       12.916        9.856      236.240      166.827       97.141        0.473        0.025       94.129        4.392        0.002      334.736        4.906      863.476
01/26/2014  20:47:00      -83.025      -50.973       -2.629       19.045       18.082       13.382      362.722      326.948      179.066        0.518        0.043       97.424        9.436        0.009      334.720        4.879      863.476
01/26/2014  20:48:00      -94.481      -55.266       -2.019       19.873       14.452       15.930      394.938      208.863      253.752        0.642        0.043      109.458       14.197        0.017      334.592        4.665      863.473
01/26/2014  20:49:00     -122.332      -70.339       -5.511       16.822       17.565       11.702      282.979      308.524      136.930        1.034        0.036      141.112        6.296        0.002      334.597        4.675      863.481
01/26/2014  20:50:00     -134.282      -40.748       -5.028       16.421       18.049       12.258      269.659      325.749      150.264        1.023        0.037      140.328        7.121        0.003      334.550        4.597      863.517
01/26/2014  20:51:00     -115.005      -47.454       -0.417       30.784       22.699       15.908      947.641      515.256      253.069        0.860        0.086      124.410       14.340        0.013      334.511        4.531      863.548
01/26/2014  20:52:00     -156.661      -56.367       -9.525       16.390       21.151       14.536      268.630      447.369      211.282        1.437        0.046      166.492       11.411        0.005      334.505        4.522      863.567
01/26/2014  20:53:00     -115.079      -47.085        1.501       31.585       31.016       20.979      997.622      961.970      440.108        0.893        0.120      124.339       20.624        0.028      334.559        4.612      863.588
01/26/2014  20:54:00      -83.641      -47.927        4.765       42.356       28.582       18.631     1794.000      816.949      347.104        0.614        0.148       96.400       19.637        0.041      334.585        4.653      863.620
01/26/2014  20:55:00      -97.843      -43.451        5.150       31.574       27.255       18.479      996.922      742.811      341.468        0.678        0.104      107.057       15.945        0.022      334.605        4.687      863.633
01/26/2014  20:56:00     -125.649      -48.583       -5.976       25.301       29.349       14.010      640.141      861.380      196.293        0.994        0.085      134.715       11.247        0.007      334.594        4.669      863.640
01/26/2014  20:57:00     -142.881      -41.578       -3.636       26.152       20.289       11.484      683.915      411.664      131.888        1.169        0.061      148.807        6.793        0.002      334.500        4.513      863.648
01/26/2014  20:58:00     -134.815      -33.941       -0.593       30.619       25.887       17.890      937.544      670.152      320.062        1.063        0.096      139.022       14.450        0.011      334.487        4.491      863.663
01/26/2014  20:59:00     -116.432      -55.004        3.064       45.832       26.768       19.829     2100.561      716.532      393.189        0.990        0.161      128.771       18.975        0.022      334.516        4.540      863.665
01/26/2014  21:00:00      -66.042      -33.033        1.150       39.292       26.322       18.042     1543.893      692.838      325.503        0.401        0.128       73.843       19.744        0.071      334.491        4.499      863.667
01/26/2014  21:01:00     -103.929      -51.761       -4.929       19.465       14.724       14.201      378.891      216.791      201.655        0.715        0.040      116.106       11.458        0.010      334.445        4.422      863.674
01/26/2014  21:02:00      -96.016      -55.281        3.686       27.097       26.863       20.685      734.238      721.617      427.850        0.709        0.094      110.793       19.635        0.031      334.480        4.482      863.665
01/26/2014  21:03:00     -132.246      -71.130       -6.760       23.989       21.406       14.180      575.451      458.218      201.071        1.191        0.062      150.161       12.069        0.006      334.498        4.511      863.654
01/26/2014  21:04:00     -157.513      -57.941       -7.501       20.308       20.968       12.385      412.395      439.665      153.383        1.461        0.050      167.832       11.213        0.004      334.516        4.540      863.656
01/26/2014  21:05:00     -144.728      -68.484       -0.966       34.790       29.981       18.893     1210.329      898.865      356.952        1.405        0.123      160.114       19.464        0.015      334.318        4.212      863.652
01/26/2014  21:06:00      -53.879      -40.059        8.759       53.603       30.188       21.380     2873.283      911.303      457.120        0.441        0.212       67.139       19.414        0.084      334.303        4.186      863.651
01/26/2014  21:07:00     -104.317      -66.077        0.461       38.465       25.947       23.563     1479.586      673.273      555.207        0.898        0.135      123.484       22.009        0.032      334.268        4.129      863.649
01/26/2014  21:08:00     -122.896      -69.794      -10.013       31.804       18.574       18.506     1011.497      344.995      342.478        1.089        0.085      141.332        8.554        0.004      334.300        4.182      863.639
01/26/2014  21:09:00     -139.593      -74.517       -2.061       24.269       24.964       20.931      588.988      623.211      438.119        1.335        0.083      158.237       18.049        0.013      334.272        4.135      863.615
01/26/2014  21:10:00     -127.871      -85.070       -4.083       27.491       20.721       18.287      755.740      429.348      334.400        1.256        0.076      153.584       15.818        0.011      334.285        4.157      863.594
01/26/2014  21:11:00     -140.246      -58.928       -0.583       34.558       26.587       19.014     1194.270      706.883      361.516        1.270        0.113      152.124       18.137        0.014      334.285        4.157      863.584
01/26/2014  21:12:00     -140.400      -75.373       -6.394       28.494       20.966       17.988      811.898      439.590      323.571        1.350        0.079      159.352       14.078        0.008      334.214        4.038      863.569
01/26/2014  21:13:00     -156.463      -54.780       -9.228       22.129       22.788       15.056      489.674      519.305      226.680        1.440        0.062      165.776        9.595        0.003      334.267        4.127      863.565
01/26/2014  21:14:00     -157.398      -58.593      -12.475       24.284       25.718       18.717      589.730      661.423      350.312        1.498        0.080      167.950       12.368        0.005      334.249        4.096      863.570
01/26/2014  21:15:00     -129.975      -41.702       -1.625       35.121       31.371       16.687     1233.474      984.149      278.448        1.057        0.125      136.501       17.545        0.017      334.214        4.039      863.560
01/26/2014  21:16:00     -147.434      -52.746       -0.946       32.888       26.889       13.044     1081.594      723.014      170.135        1.325        0.099      156.585       12.790        0.007      334.236        4.076      863.566
01/26/2014  21:17:00     -114.048      -34.780        3.256       37.979       26.679       18.582     1442.408      711.775      345.294        0.836        0.125      119.233       20.635        0.030      334.196        4.009      863.582
01/26/2014  21:18:00     -115.012      -44.516       -2.301       36.648       25.283       18.039     1343.045      639.253      325.395        0.876        0.115      123.327       15.333        0.015      334.162        3.954      863.598
01/26/2014  21:19:00     -129.800      -23.163       -9.170       35.700       32.986       22.364     1274.457     1088.084      500.136        1.017        0.143      131.851       20.729        0.025      334.161        3.951      863.596
01/26/2014  21:20:00     -177.213       17.182      -16.469       39.278       35.659       24.712     1542.751     1271.591      610.686        1.770        0.171      178.044       14.841        0.007      334.378        4.312      863.603
01/26/2014  21:21:00     -165.696      -14.384       -5.903       62.301       28.702       28.163     3881.470      823.794      793.148        1.660        0.275      166.319       26.597        0.026      334.293        4.170      863.598
01/26/2014  21:22:00     -151.187      -14.360       -8.625       47.776       31.519       26.370     2282.553      993.443      695.374        1.355        0.199      151.868       25.325        0.028      334.171        3.967      863.597
01/26/2014  21:23:00     -144.759      -10.034      -11.876       55.143       32.429       23.320     3040.782     1051.620      543.805        1.292        0.232      145.107       23.316        0.026      334.149        3.929      863.615
01/26/2014  21:24:00     -159.664       -8.425       -9.578       49.410       34.047       27.073     2441.334     1159.226      732.950        1.499        0.217      159.886       25.929        0.026      334.150        3.932      863.637
01/26/2014  21:25:00     -175.413      -19.299       -6.102       36.676       26.862       25.050     1345.157      721.582      627.507        1.694        0.135      176.472       21.443        0.015      334.074        3.806      863.645
01/26/2014  21:26:00     -159.305      -14.616      -10.434       48.365       39.984       26.345     2339.145     1598.685      694.066        1.517        0.232      159.974       26.121        0.027      334.082        3.820      863.648
01/26/2014  21:27:00     -127.175      -24.217       -2.189       48.783       33.234       26.682     2379.762     1104.502      711.942        1.048        0.210      129.460       25.447        0.039      334.040        3.749      863.664
01/26/2014  21:28:00     -131.220      -24.733        0.617       44.730       28.315       23.749     2000.766      801.712      564.015        1.060        0.168      133.530       23.081        0.030      334.085        3.823      863.654
01/26/2014  21:29:00     -133.011      -30.035       -6.018       36.823       24.428       19.177     1355.936      596.716      367.766        1.048        0.116      136.360       17.978        0.017      334.052        3.770      863.647
01/26/2014  21:30:00     -129.582      -49.914        2.709       36.152       26.750       19.914     1306.970      715.571      396.573        1.085        0.121      138.863       20.165        0.021      334.119        3.882      863.654
01/26/2014  21:31:00     -138.091      -59.537       -4.586       17.055       16.557       13.920      290.887      274.132      193.754        1.170        0.038      150.379        8.021        0.003      334.161        3.952      863.646
01/26/2014  21:32:00     -125.480      -61.918      -12.655       24.498       21.602       15.731      600.152      466.647      247.451        1.053        0.066      139.925        7.903        0.003      334.111        3.868      863.632
01/26/2014  21:33:00      -74.797      -43.425       -8.203       31.722       24.268       14.340     1006.273      588.946      205.647        0.467        0.090       86.489       11.449        0.018      334.070        3.800      863.630
01/26/2014  21:34:00     -121.966      -26.331      -19.047       24.266       25.901       15.775      588.840      670.859      248.851        0.872        0.075      124.776       12.556        0.010      333.970        3.634      863.636
01/26/2014  21:35:00     -124.572      -11.193      -17.468       29.538       25.894       19.152      872.491      670.502      366.814        0.893        0.095      125.074       14.931        0.014      333.990        3.668      863.632
01/26/2014  21:36:00      -99.307      -36.079      -14.236       31.493       36.749       19.523      991.831     1350.509      381.156        0.704        0.136      105.658       18.048        0.029      333.964        3.626      863.638
01/26/2014  21:37:00      -84.454      -20.511       -5.827       29.601       23.545       16.992      876.190      554.348      288.739        0.465        0.086       86.909       12.834        0.022      333.991        3.669      863.651
01/26/2014  21:38:00      -74.856      -20.176      -15.440       20.016       23.786       12.007      400.658      565.781      144.169        0.368        0.056       77.527        7.554        0.009      334.064        3.789      863.647
01/26/2014  21:39:00      -72.481      -47.609      -12.971       28.836       19.139       18.458      831.535      366.302      340.714        0.461        0.077       86.719       15.921        0.034      333.978        3.647      863.646
01/26/2014  21:40:00      -93.497      -51.320      -19.965       28.042       26.646       19.353      786.332      709.988      374.548        0.682        0.094      106.656       11.399        0.011      333.948        3.598      863.646
01/26/2014  21:41:00      -76.748      -55.344      -12.097       30.139       33.785       22.112      908.374     1141.441      488.953        0.582        0.127       94.622       13.599        0.021      333.884        3.491      863.647
01/26/2014  21:42:00     -118.824       -8.270      -11.094       24.756       23.528       18.491      612.871      553.544      341.935        0.791        0.075      119.111       13.752        0.013      333.844        3.427      863.652
01/26/2014  21:43:00      -79.211      -21.238       -6.784       28.547       25.341       19.967      814.929      642.174      398.688        0.431        0.093       82.008       19.057        0.054      333.820        3.386      863.661
01/26/2014  21:44:00      -91.419      -29.832      -14.410       22.023       33.688       23.038      485.011     1134.900      530.768        0.580        0.108       96.163       17.842        0.034      333.871        3.471      863.657
01/26/2014  21:45:00      -69.412      -64.110      -10.215       33.875       21.123       18.674     1147.516      446.177      348.701        0.549        0.097       94.489       14.966        0.025      333.900        3.519      863.650
01/26/2014  21:46:00      -91.080      -47.609       -4.416       26.791       22.269       15.189      717.738      495.914      230.691        0.601        0.072      102.773       10.939        0.011      333.854        3.441      863.646
01/26/2014  21:47:00     -103.409      -58.498       -4.909       26.237       24.600       15.770      688.389      605.138      248.703        0.784        0.077      118.808       10.740        0.008      333.966        3.627      863.649
01/26/2014  21:48:00      -80.364      -56.456       -3.734       35.953       28.456       18.178     1292.633      809.739      330.449        0.605        0.122       98.212        8.853        0.008      334.074        3.808      863.655
01/26/2014  21:49:00      -76.474      -44.928        1.874       37.131       24.561       16.338     1378.677      603.227      266.933        0.506        0.112       88.695       17.564        0.039      334.062        3.789      863.666
01/26/2014  21:50:00      -77.776      -44.452        0.358       23.443       15.696       10.409      549.563      246.356      108.356        0.446        0.045       89.583       10.982        0.015      334.097        3.845      863.693
01/26/2014  21:51:00      -94.936      -52.101       -6.153       25.490       12.545       10.905      649.743      157.387      118.909        0.635        0.046      108.293        6.401        0.003      334.052        3.771      863.712
01/26/2014  21:52:00     -126.404      -53.119       -7.777       26.940       22.284       17.957      725.785      496.593      322.445        1.020        0.077      137.112       13.414        0.010      333.968        3.631      863.720
01/26/2014  21:53:00     -146.136      -50.319      -15.537       22.881       16.247       14.601      523.531      263.968      213.184        1.256        0.050      154.557       11.485        0.006      333.928        3.564      863.721
01/26/2014  21:54:00     -142.090      -54.809       -8.692       17.181       15.863       11.785      295.187      251.628      138.890        1.198        0.034      152.294        7.268        0.002      333.880        3.484      863.732
01/26/2014  21:55:00     -110.091      -55.413       -5.910       31.907       20.499       13.071     1018.063      420.193      170.852        0.842        0.080      123.251        8.143        0.004      333.853        3.440      863.747
01/26/2014  21:56:00      -74.807      -43.680        4.763       49.134       33.421       23.555     2414.195     1116.984      554.840        0.581        0.204       86.626       25.870        0.089      333.818        3.382      863.750
01/26/2014  21:57:00      -76.502      -51.982        5.279       40.308       30.082       24.732     1624.768      904.915      611.692        0.586        0.157       92.492       23.526        0.065      333.814        3.375      863.754
01/26/2014  21:58:00      -64.955      -47.296        4.138       40.072       27.680       22.727     1605.803      766.210      516.496        0.468        0.144       80.350       19.262        0.057      333.866        3.463      863.759
01/26/2014  21:59:00      -67.908      -51.206        4.435       47.602       30.047       21.556     2265.959      902.838      464.666        0.544        0.182       85.051       21.801        0.066      333.975        3.644      863.759
01/26/2014  22:00:00      -61.913      -49.330       -0.050       35.891       21.650       14.273     1288.132      468.717      203.729        0.411        0.098       79.162       11.770        0.022      334.017        3.712      863.753
01/26/2014  22:01:00      -54.748      -55.110        2.237       42.087       35.707       20.652     1771.326     1274.967      426.504        0.476        0.174       77.682       24.558        0.100      333.982        3.655      863.755
01/26/2014  22:02:00      -69.700      -68.062        0.695       37.141       30.539       22.865     1379.485      932.625      522.813        0.616        0.142       97.419       21.135        0.047      333.954        3.607      863.753
01/26/2014  22:03:00      -96.099      -71.410       -4.544       35.045       29.523       16.363     1228.159      871.618      267.763        0.836        0.118      119.726        8.794        0.005      333.906        3.529      863.764
01/26/2014  22:04:00      -96.085      -55.265        3.364       40.805       24.857       20.663     1665.038      617.895      426.947        0.750        0.135      110.845       21.809        0.039      333.896        3.513      863.768
01/26/2014  22:05:00      -79.251      -53.403        7.164       48.554       25.043       21.977     2357.488      627.131      482.982        0.633        0.173       95.565       23.838        0.062      333.891        3.503      863.765
01/26/2014  22:06:00      -55.037      -46.085        6.176       55.462       36.454       26.106     3076.008     1328.918      681.527        0.514        0.254       71.783       28.622        0.159      333.866        3.461      863.761
01/26/2014  22:07:00     -114.563      -60.911        2.202       51.491       31.791       22.392     2651.372     1010.690      501.402        1.050        0.208      129.749       21.156        0.027      333.954        3.608      863.775
01/26/2014  22:08:00     -120.524      -87.841        5.950       49.316       39.573       29.780     2432.071     1566.028      886.826        1.358        0.244      149.138       29.558        0.039      333.935        3.576      863.783
01/26/2014  22:09:00      -97.130      -61.074        5.177       44.395       30.168       25.133     1970.958      910.093      631.664        0.835        0.176      114.735       22.306        0.038      333.901        3.521      863.783
01/26/2014  22:10:00     -138.350      -60.667       -5.643       27.899       29.119       18.061      778.343      847.935      326.194        1.240        0.098      151.067       12.457        0.007      333.893        3.508      863.787
01/26/2014  22:11:00     -121.551      -47.947       -8.444       27.989       21.237       19.323      783.371      451.016      373.390        0.938        0.080      130.666       17.679        0.018      333.853        3.440      863.814
01/26/2014  22:12:00     -107.554      -44.051       -1.616       33.911       23.286       17.102     1149.950      542.252      292.488        0.775        0.099      116.226       15.669        0.018      333.857        3.447      863.826
01/26/2014  22:13:00     -129.315      -41.544       -7.199       24.279       26.228       16.785      589.448      687.884      281.720        1.003        0.078      135.825       15.079        0.012      333.888        3.499      863.827
01/26/2014  22:14:00     -119.046      -37.844       -5.192       26.203       22.182       13.165      686.577      492.029      173.316        0.849        0.068      124.917        9.994        0.006      333.916        3.545      863.841
01/26/2014  22:15:00     -114.131      -30.068       -5.771       27.847       20.494       16.312      775.479      419.991      266.068        0.771        0.073      118.026       14.018        0.014      333.911        3.538      863.849
01/26/2014  22:16:00     -127.405      -21.177      -10.460       30.189       15.440       13.936      911.395      238.390      194.224        0.907        0.067      129.153       16.636        0.017      333.896        3.512      863.849
01/26/2014  22:17:00     -146.393      -17.595      -16.459       29.694       16.987       13.725      881.718      288.570      188.366        1.168        0.068      147.446       15.285        0.011      333.802        3.354      863.856
01/26/2014  22:18:00     -142.384      -31.556       -9.030       29.194       20.325       17.347      852.294      413.106      300.927        1.146        0.078      145.839       19.225        0.017      333.739        3.251      863.870
01/26/2014  22:19:00     -106.243      -43.794       -4.088       24.448       24.810       14.989      597.699      615.530      224.667        0.733        0.072      114.915       14.284        0.015      333.721        3.221      863.885
01/26/2014  22:20:00      -60.905      -32.691        1.501       26.949       16.082       13.937      726.232      258.627      194.241        0.298        0.059       69.124       10.536        0.023      333.748        3.265      863.884
01/26/2014  22:21:00      -91.754      -19.770       -7.689       40.948       22.573       14.644     1676.715      509.551      214.448        0.563        0.120       93.860        8.530        0.008      333.844        3.426      863.887
01/26/2014  22:22:00      -72.623      -50.083       -2.695       42.719       31.022       24.062     1824.872      962.363      578.991        0.558        0.168       88.218       23.100        0.069      333.823        3.392      863.894
01/26/2014  22:23:00      -79.312      -67.912        2.137       47.809       28.662       22.669     2285.694      821.539      513.868        0.726        0.181      104.415       27.075        0.067      333.770        3.303      863.914
01/26/2014  22:24:00     -138.288      -72.270       -3.057       37.099       35.073       20.260     1376.360     1230.147      410.483        1.369        0.151      156.034       18.177        0.014      333.712        3.206      863.921
01/26/2014  22:25:00     -123.976      -35.562       -7.821       18.554       19.642       13.043      344.259      385.810      170.130        0.880        0.045      128.976        9.060        0.005      333.757        3.281      863.926
01/26/2014  22:26:00      -85.986      -39.323        0.932       36.094       22.842       14.560     1302.758      521.738      211.995        0.549        0.102       94.551       17.879        0.036      333.817        3.380      863.928
01/26/2014  22:27:00      -90.227      -51.996        0.748       32.379       26.168       16.381     1048.379      684.785      268.351        0.642        0.100      104.137       14.019        0.018      333.758        3.283      863.931
01/26/2014  22:28:00      -76.505      -26.842       -2.575       21.421       18.013       10.325      458.863      324.486      106.598        0.373        0.044       81.078        9.915        0.015      333.822        3.389      863.925
01/26/2014  22:29:00      -57.668      -18.515       -0.361       21.464       14.488       14.203      460.688      209.912      201.729        0.227        0.044       60.568       13.619        0.051      333.853        3.441      863.918
01/26/2014  22:30:00      -63.867      -20.889       -7.648       10.531       11.225        7.932      110.893      126.006       62.924        0.244        0.015       67.197        4.080        0.004      333.791        3.338      863.910
01/26/2014  22:31:00      -65.424      -25.315       -6.799       21.901       10.185       11.522      479.671      103.743      132.754        0.284        0.036       70.151        9.659        0.019      333.705        3.194      863.919
01/26/2014  22:32:00      -56.088      -29.954       -1.792       24.522       18.828       11.912      601.351      354.504      141.899        0.257        0.055       63.586        4.062        0.004      333.598        3.015      863.917
01/26/2014  22:33:00      -57.370      -40.003       -0.025       19.094       10.600       10.697      364.579      112.361      114.428        0.274        0.030       69.940        8.584        0.015      333.633        3.077      863.897
01/26/2014  22:34:00      -28.907      -24.782        6.638       22.402       15.074       11.367      501.869      227.211      129.198        0.118        0.043       38.076       10.679        0.079      333.643        3.092      863.885
01/26/2014  22:35:00      -62.006      -36.856        2.224       23.946       14.954       13.188      573.420      223.616      173.935        0.309        0.049       72.132       13.482        0.035      333.562        2.958      863.887
01/26/2014  22:36:00      -78.645      -32.758       -2.696       16.450       16.002        7.950      270.612      256.078       63.199        0.393        0.029       85.194        5.223        0.004      333.576        2.980      863.888
01/26/2014  22:37:00      -72.269      -34.664       -4.935       16.232       12.934       11.390      263.479      167.277      129.723        0.350        0.028       80.153        9.003        0.013      333.543        2.925      863.887
01/26/2014  22:38:00      -88.337      -24.707       -7.605       30.513       14.801       14.669      931.066      219.076      215.194        0.492        0.068       91.727       18.599        0.041      333.510        2.872      863.896
01/26/2014  22:39:00     -108.727      -29.099      -10.851       14.009       15.098       10.911      196.239      227.946      119.042        0.666        0.027      112.554        6.162        0.003      333.530        2.903      863.895
01/26/2014  22:40:00     -110.013      -44.609       -6.177       21.288       22.390       15.368      453.198      501.301      236.188        0.766        0.060      118.714       15.017        0.016      333.485        2.828      863.887
01/26/2014  22:41:00     -112.882      -50.420       -8.148       23.386       19.202       16.457      546.883      368.701      270.828        0.827        0.059      123.631       15.092        0.015      333.459        2.786      863.864
01/26/2014  22:42:00     -118.447      -23.066      -19.632       13.595       14.733       10.752      184.821      217.053      115.608        0.773        0.026      120.672        5.749        0.002      333.403        2.696      863.846
01/26/2014  22:43:00     -107.520      -15.533      -11.080       19.625       11.902       12.252      385.131      141.658      150.105        0.630        0.034      108.637        9.941        0.008      333.404        2.697      863.830
01/26/2014  22:44:00     -113.898      -14.585      -16.535       28.898       13.466       10.175      835.117      181.340      103.526        0.729        0.056      114.828       12.164        0.011      333.423        2.727      863.817
01/26/2014  22:45:00      -85.419      -18.250       -9.653       25.118       14.840       12.845      630.923      220.232      164.983        0.437        0.051       87.347       12.711        0.021      333.391        2.674      863.805
01/26/2014  22:46:00     -100.613      -21.225      -16.286       17.034       16.656       13.999      290.147      277.436      195.964        0.580        0.038      102.827       11.311        0.012      333.361        2.625      863.787
01/26/2014  22:47:00     -113.825      -20.538      -15.967       15.613       14.978       10.280      243.759      224.329      105.685        0.710        0.029      115.663        6.487        0.003      333.290        2.508      863.773
01/26/2014  22:48:00     -114.800      -39.328      -16.088       19.670       18.381       12.833      386.904      337.855      164.689        0.794        0.044      121.349        8.342        0.005      333.255        2.449      863.766
01/26/2014  22:49:00     -107.171      -51.015      -12.132       19.915       22.209       15.304      396.606      493.229      234.217        0.768        0.056      118.694        8.793        0.005      333.213        2.378      863.752
01/26/2014  22:50:00      -90.507      -33.108       -5.784       16.938       23.125       17.447      286.909      534.747      304.404        0.522        0.056       96.372       10.498        0.012      333.192        2.345      863.748
01/26/2014  22:51:00     -102.338       -6.946       -5.302       31.634       24.653       17.071     1000.693      607.781      291.409        0.622        0.095      102.573       16.598        0.026      333.131        2.245      863.741
01/26/2014  22:52:00     -115.141       -1.646      -11.801       30.755       19.024       16.706      945.840      361.904      279.090        0.749        0.079      115.153       13.499        0.014      333.141        2.260      863.736
01/26/2014  22:53:00      -82.766       -8.503      -17.250       18.863       16.712       11.428      355.821      279.294      130.589        0.399        0.038       83.201        6.287        0.006      333.146        2.269      863.744
01/26/2014  22:54:00      -81.897      -10.223      -13.953       20.413       20.668       15.103      416.697      427.153      228.087        0.404        0.054       82.533       10.872        0.017      333.168        2.305      863.745
01/26/2014  22:55:00      -73.346       -2.337      -11.417       19.595       24.711       14.929      383.955      610.658      222.881        0.337        0.061       73.383       12.738        0.030      333.155        2.285      863.742
01/26/2014  22:56:00      -89.943       -1.441      -11.717       18.895       13.678       10.499      357.002      187.089      110.220        0.444        0.033       89.955        5.707        0.004      333.206        2.369      863.736
01/26/2014  22:57:00      -92.752        5.094      -17.020       10.926       11.836       10.630      119.384      140.102      113.004        0.465        0.019       92.892        6.828        0.005      333.294        2.514      863.729
01/26/2014  22:58:00      -85.651       -2.351      -15.627       12.085       13.280       10.074      146.051      176.354      101.490        0.400        0.021       85.683        7.034        0.007      333.226        2.401      863.716
01/26/2014  22:59:00      -73.288       -4.862      -15.834       16.061       12.717       10.014      257.941      161.730      100.281        0.308        0.026       73.449        9.714        0.017      333.141        2.262      863.716
01/26/2014  23:00:00      -74.754       -6.051      -11.528       29.249       13.210       13.363      855.499      174.502      178.573        0.348        0.060       74.999       10.741        0.021      333.162        2.297      863.721
01/26/2014  23:01:00      -73.219       -7.762      -12.790       10.978       11.796       11.994      120.512      139.141      143.868        0.299        0.020       73.630        7.718        0.011      333.112        2.214      863.708
01/26/2014  23:02:00      -67.484      -11.388      -13.497       10.892       10.112        8.546      118.626      102.260       73.033        0.258        0.015       68.438        5.257        0.006      333.155        2.284      863.686
01/26/2014  23:03:00      -73.233       -9.636      -12.386       14.133       10.293       11.002      199.755      105.940      121.044        0.302        0.021       73.864        6.807        0.008      333.125        2.235      863.667
01/26/2014  23:04:00      -88.579       -9.627      -15.771       16.315       14.396        9.016      266.173      207.255       81.291        0.437        0.028       89.100        4.525        0.003      333.111        2.213      863.653
01/26/2014  23:05:00      -78.346       -7.497      -19.837       18.588       12.413       11.409      345.511      154.093      130.162        0.361        0.031       78.704       10.066        0.016      333.183        2.329      863.654
01/26/2014  23:06:00     -115.043       -3.051      -18.735       28.138       15.315       12.633      791.728      234.555      159.603        0.739        0.059      115.084        6.691        0.003      333.134        2.249      863.648
01/26/2014  23:07:00     -112.625       -2.939      -15.269       24.752       18.354       12.185      612.649      336.872      148.463        0.701        0.055      112.663        7.298        0.004      333.081        2.163      863.632
01/26/2014  23:08:00     -106.046      -11.049      -19.566       10.224       13.422       10.797      104.539      180.142      116.572        0.608        0.020      106.620        5.458        0.003      333.185        2.335      863.618
01/26/2014  23:09:00      -88.169      -24.383      -10.816       25.581       16.175       10.732      654.380      261.616      115.178        0.476        0.052       91.478        9.307        0.010      333.214        2.380      863.609
01/26/2014  23:10:00     -104.525      -12.699      -12.539       18.608       12.439        9.509      346.243      154.724       90.426        0.592        0.030      105.294        7.172        0.005      333.111        2.213      863.608
01/26/2014  23:11:00     -100.285      -17.584      -11.618       20.580       17.594        9.714      423.546      309.564       94.362        0.566        0.041      101.815        8.859        0.008      333.079        2.160      863.610
01/26/2014  23:12:00     -110.385      -25.427      -14.800       15.500       13.815       11.839      240.254      190.842      140.172        0.681        0.029      113.275        6.031        0.003      333.079        2.159      863.619
01/26/2014  23:13:00     -113.771      -27.213      -14.005       12.507       16.961        9.113      156.420      287.692       83.041        0.720        0.026      116.980        7.509        0.004      332.979        1.996      863.629
01/26/2014  23:14:00      -99.421      -43.343      -18.499       20.439       28.011       15.503      417.767      784.621      240.334        0.677        0.072      108.458       11.888        0.012      332.928        1.910      863.643
01/26/2014  23:15:00     -111.855      -60.301      -22.216       20.153       22.385       12.901      406.152      501.089      166.436        0.886        0.054      127.073        9.987        0.006      332.856        1.791      863.654
01/26/2014  23:16:00     -148.805      -51.314      -13.360       24.638       24.595       14.609      607.055      604.928      213.422        1.319        0.071      157.404       10.832        0.005      332.852        1.784      863.664
01/26/2014  23:17:00     -143.709      -33.355      -20.174       23.558       21.288       13.916      554.974      453.176      193.650        1.169        0.060      147.529        7.520        0.003      332.967        1.973      863.669
01/26/2014  23:18:00     -135.782      -27.876       -8.993       18.357       20.399       13.603      336.982      416.129      185.055        1.012        0.047      138.614        9.132        0.004      332.965        1.970      863.671
01/26/2014  23:19:00     -129.527      -25.196      -10.524       24.750       23.415       13.754      612.581      548.260      189.168        0.944        0.068      131.955        7.905        0.004      332.917        1.890      863.676
01/26/2014  23:20:00     -126.896      -47.856       -7.224       23.339       19.693       12.080      544.702      387.830      145.922        0.976        0.054      135.620       11.642        0.007      332.847        1.777      863.675
01/26/2014  23:21:00     -121.202      -50.994       -8.259       25.075       19.130       15.608      628.759      365.968      243.614        0.930        0.062      131.493       14.331        0.012      332.874        1.820      863.666
01/26/2014  23:22:00     -128.131      -62.279       -8.261       29.561       23.321       16.627      873.864      543.879      276.464        1.103        0.085      142.465       13.896        0.010      332.841        1.765      863.664
01/26/2014  23:23:00     -117.490      -46.394      -15.306       16.149       17.519       15.891      260.775      306.904      252.529        0.851        0.041      126.319        6.763        0.003      332.822        1.735      863.654
01/26/2014  23:24:00     -114.939      -43.137       -0.243       29.824       19.073       17.056      889.469      363.778      290.913        0.831        0.077      122.768       16.606        0.018      332.899        1.863      863.639
01/26/2014  23:25:00     -118.333      -56.327       -0.781       25.167       23.085       20.197      633.383      532.897      407.900        0.937        0.079      131.055       16.095        0.015      333.038        2.092      863.642
01/26/2014  23:26:00     -105.091      -38.743        1.470       32.496       22.631       17.592     1056.003      512.145      309.471        0.721        0.094      112.005       17.273        0.024      332.953        1.950      863.650
01/26/2014  23:27:00     -111.692      -32.297       -3.770       32.063       23.961       13.718     1028.022      574.139      188.189        0.766        0.090      116.268       13.175        0.013      332.885        1.841      863.658
01/26/2014  23:28:00     -126.882      -13.706       -6.018       35.223       20.492       22.532     1240.672      419.921      507.673        0.925        0.108      127.620       20.941        0.027      332.838        1.760      863.654
01/26/2014  23:29:00     -131.223      -28.733       -7.350       24.570       20.777       13.247      603.682      431.679      175.481        0.965        0.061      134.332        8.670        0.004      332.932        1.916      863.660
01/26/2014  23:30:00     -114.584      -43.376       -1.876       24.279       21.296       16.143      589.478      453.533      260.590        0.816        0.065      122.519       12.851        0.011      332.868        1.811      863.666
01/26/2014  23:31:00      -89.086      -46.115        1.535       28.150       28.776       21.588      792.436      828.061      466.046        0.608        0.104      100.314       15.714        0.025      332.857        1.793      863.684
01/26/2014  23:32:00     -119.492      -48.504       -0.733       16.909       20.641       15.258      285.909      426.068      232.816        0.879        0.047      128.961        7.773        0.004      332.798        1.696      863.703
01/26/2014  23:33:00     -146.402      -50.905       -8.364       15.655       14.720       11.635      245.068      216.692      135.380        1.235        0.030      155.000        7.719        0.002      332.788        1.679      863.713
01/26/2014  23:34:00     -150.166      -47.169       -9.191       15.565       15.451        9.851      242.271      238.735       97.033        1.272        0.029      157.400        6.885        0.002      332.725        1.575      863.730
01/26/2014  23:35:00     -126.113      -33.006       -7.582       33.758       22.248       13.433     1139.600      494.978      180.435        0.943        0.091      130.360       12.900        0.010      332.621        1.402      863.752
01/26/2014  23:36:00     -120.186      -27.566       -6.420       52.085       37.284       25.955     2712.816     1390.087      673.665        1.001        0.239      123.307       28.701        0.054      332.599        1.365      863.769
01/26/2014  23:37:00     -115.309      -14.325       -4.920       50.385       33.249       24.149     2538.646     1105.471      583.187        0.888        0.211      116.195       25.423        0.048      332.596        1.360      863.772
01/26/2014  23:38:00     -105.781      -23.014       -4.601       40.978       38.644       25.050     1679.224     1493.320      627.483        0.777        0.190      108.255       22.733        0.044      332.581        1.336      863.763
01/26/2014  23:39:00     -148.515      -33.436      -11.540       35.147       34.941       20.924     1235.332     1220.891      437.799        1.310        0.145      152.232       11.757        0.006      332.502        1.206      863.763
01/26/2014  23:40:00      -94.403      -31.107       -5.922       36.166       31.435       18.660     1307.976      988.165      348.214        0.628        0.132       99.396       18.463        0.035      332.514        1.225      863.757
01/26/2014  23:41:00     -110.014       -7.585       -0.533       36.304       31.515       18.606     1318.008      993.208      346.188        0.741        0.133      110.276       19.530        0.031      332.558        1.299      863.745
01/26/2014  23:42:00     -170.299        2.579      -17.480       36.406       24.903       18.696     1325.420      620.151      349.523        1.580        0.115      170.318       16.814        0.010      332.804        1.705      863.738
01/26/2014  23:43:00     -141.141        1.059       -8.279       55.210       38.982       22.768     3048.184     1519.629      518.387        1.254        0.254      141.145       22.794        0.026      332.706        1.543      863.716
01/26/2014  23:44:00     -170.952        8.872      -13.331       39.974       34.362       25.801     1597.942     1180.740      665.682        1.646        0.172      171.182       23.343        0.019      332.742        1.602      863.682
01/26/2014  23:45:00     -153.219      -21.144      -13.788       36.899       39.998       22.591     1361.542     1599.857      510.357        1.379        0.174      154.671       18.075        0.014      332.653        1.455      863.662
01/26/2014  23:46:00     -117.981      -12.009       -3.561       66.673       39.639       30.443     4445.307     1571.285      926.767        1.051        0.347      118.591       31.217        0.069      332.636        1.426      863.653
01/26/2014  23:47:00     -173.665        2.278      -18.753       38.356       30.214       19.888     1471.185      912.864      395.540        1.665        0.139      173.680       18.435        0.011      332.609        1.383      863.647
01/26/2014  23:48:00     -157.214      -19.170      -14.181       43.495       37.377       18.609     1891.823     1397.062      346.297        1.446        0.182      158.378       19.705        0.015      332.599        1.364      863.650
01/26/2014  23:49:00     -180.557      -15.339      -14.832       45.226       32.917       21.992     2045.407     1083.543      483.667        1.833        0.181      181.207       20.217        0.012      332.661        1.467      863.659
01/26/2014  23:50:00     -135.420      -23.408       -0.260       41.888       29.739       24.617     1754.635      884.383      605.978        1.107        0.162      137.428       24.369        0.031      332.629        1.416      863.663
01/26/2014  23:51:00      -94.412      -34.413        3.920       40.655       32.535       15.773     1652.819     1058.540      248.786        0.654        0.148      100.488       12.967        0.017      332.769        1.648      863.662
01/26/2014  23:52:00      -89.212      -57.541        3.380       37.372       35.411       20.784     1396.690     1253.949      431.989        0.718        0.154      106.159       20.071        0.036      332.737        1.594      863.653
01/26/2014  23:53:00     -117.647      -30.677       -2.116       23.963       21.926       14.772      574.237      480.746      218.205        0.803        0.064      121.581       10.368        0.007      332.718        1.562      863.636
01/26/2014  23:54:00     -121.293      -56.009       -1.188       26.672       21.297       15.043      711.404      453.583      226.292        0.962        0.070      133.601       11.041        0.007      332.695        1.525      863.625
01/26/2014  23:55:00     -138.009      -42.009       -7.443       22.264       16.997       16.577      495.685      288.892      274.799        1.096        0.053      144.261       14.218        0.010      332.675        1.491      863.612
01/26/2014  23:56:00     -140.418      -34.122        1.207       35.977       23.720       22.003     1294.317      562.639      484.144        1.161        0.117      144.505       20.889        0.021      332.661        1.468      863.599
01/26/2014  23:57:00     -124.313      -15.409       -4.875       36.637       25.330       19.755     1342.236      641.631      390.254        0.904        0.119      125.265       16.640        0.018      332.718        1.563      863.598
01/26/2014  23:58:00     -112.207      -18.783       -0.750       44.563       32.651       24.171     1985.897     1066.110      584.249        0.829        0.182      113.768       21.373        0.035      332.909        1.879      863.592
01/26/2014  23:59:00     -126.097      -31.790      -14.824       29.139       32.633       17.215      849.070     1064.902      296.343        0.967        0.111      130.043       14.582        0.013      332.731        1.584      863.577
